<?xml version='1.0' encoding='UTF-8'?><gpx version="1.1" creator="JPX - https://github.com/jenetics/jpx" xmlns="http://www.topografix.com/GPX/1/1"><trk><trkseg><trkpt lat="42.150936710562334" lon="13.286763175689329"><ele>730.0</ele><time>2026-05-02T15:20:21.999Z</time></trkpt><trkpt lat="42.15100923318373" lon="13.286653665899701"><ele>730.0</ele><time>2026-05-02T15:20:23.999Z</time></trkpt><trkpt lat="42.15109793304227" lon="13.286544706664092"><ele>730.0</ele><time>2026-05-02T15:20:25.999Z</time></trkpt><trkpt lat="42.15115275692413" lon="13.286475511269247"><ele>730.0</ele><time>2026-05-02T15:20:26.999Z</time></trkpt><trkpt lat="42.151201255927944" lon="13.28639720446968"><ele>730.0</ele><time>2026-05-02T15:20:27.999Z</time></trkpt><trkpt lat="42.151253891190066" lon="13.286310499170868"><ele>729.6</ele><time>2026-05-02T15:20:28.999Z</time></trkpt><trkpt lat="42.15131112573423" lon="13.286210592675653"><ele>729.2</ele><time>2026-05-02T15:20:29.999Z</time></trkpt><trkpt lat="42.151374304855445" lon="13.28610269674274"><ele>728.8</ele><time>2026-05-02T15:20:31Z</time></trkpt><trkpt lat="42.15144067760078" lon="13.286001981578371"><ele>728.4</ele><time>2026-05-02T15:20:32Z</time></trkpt><trkpt lat="42.151511956823285" lon="13.285905555551636"><ele>728.0</ele><time>2026-05-02T15:20:33Z</time></trkpt><trkpt lat="42.15158596082442" lon="13.285822609450632"><ele>727.5999999999999</ele><time>2026-05-02T15:20:34Z</time></trkpt><trkpt lat="42.151670906417856" lon="13.285747918255135"><ele>727.1999999999999</ele><time>2026-05-02T15:20:35Z</time></trkpt><trkpt lat="42.15176520086225" lon="13.285673534681717"><ele>726.8</ele><time>2026-05-02T15:20:36Z</time></trkpt><trkpt lat="42.15185517795232" lon="13.285586752511945"><ele>726.4</ele><time>2026-05-02T15:20:37Z</time></trkpt><trkpt lat="42.151938218445885" lon="13.285477385066349"><ele>726.0</ele><time>2026-05-02T15:20:38Z</time></trkpt><trkpt lat="42.15202430314607" lon="13.285368911092911"><ele>726.0</ele><time>2026-05-02T15:20:39Z</time></trkpt><trkpt lat="42.15211488306447" lon="13.28526429775123"><ele>726.0</ele><time>2026-05-02T15:20:40Z</time></trkpt><trkpt lat="42.15220432617237" lon="13.285167756873186"><ele>726.0</ele><time>2026-05-02T15:20:41Z</time></trkpt><trkpt lat="42.15229094875934" lon="13.285070661170968"><ele>726.0</ele><time>2026-05-02T15:20:42Z</time></trkpt><trkpt lat="42.15237774664513" lon="13.284984517890663"><ele>726.0</ele><time>2026-05-02T15:20:42.999Z</time></trkpt><trkpt lat="42.15246716167045" lon="13.284894650928019"><ele>726.0</ele><time>2026-05-02T15:20:43.999Z</time></trkpt><trkpt lat="42.15255392485728" lon="13.284806433888473"><ele>726.0</ele><time>2026-05-02T15:20:44.999Z</time></trkpt><trkpt lat="42.15263977365209" lon="13.284720983663776"><ele>726.0</ele><time>2026-05-02T15:20:45.999Z</time></trkpt><trkpt lat="42.15272095211554" lon="13.284616093585464"><ele>726.0</ele><time>2026-05-02T15:20:46.999Z</time></trkpt><trkpt lat="42.15279726802984" lon="13.284524324386469"><ele>725.5</ele><time>2026-05-02T15:20:48Z</time></trkpt><trkpt lat="42.15289112214059" lon="13.28441248063103"><ele>725.0</ele><time>2026-05-02T15:20:49Z</time></trkpt><trkpt lat="42.152981235478215" lon="13.284282982456189"><ele>724.5</ele><time>2026-05-02T15:20:50Z</time></trkpt><trkpt lat="42.153079031672355" lon="13.284141232651077"><ele>724.0</ele><time>2026-05-02T15:20:51Z</time></trkpt><trkpt lat="42.15316832305214" lon="13.28400290055402"><ele>724.75</ele><time>2026-05-02T15:20:52Z</time></trkpt><trkpt lat="42.15325698041495" lon="13.283854605992351"><ele>725.5</ele><time>2026-05-02T15:20:53Z</time></trkpt><trkpt lat="42.15334415579165" lon="13.28372088807831"><ele>726.25</ele><time>2026-05-02T15:20:54Z</time></trkpt><trkpt lat="42.153433268792114" lon="13.283573373543044"><ele>727.0</ele><time>2026-05-02T15:20:55Z</time></trkpt><trkpt lat="42.15351793313445" lon="13.28340507705813"><ele>727.0</ele><time>2026-05-02T15:20:56Z</time></trkpt><trkpt lat="42.15360998173005" lon="13.283244983463566"><ele>727.0</ele><time>2026-05-02T15:20:57Z</time></trkpt><trkpt lat="42.153707747111184" lon="13.283100042820877"><ele>727.0</ele><time>2026-05-02T15:20:58Z</time></trkpt><trkpt lat="42.15380527796847" lon="13.282964460376009"><ele>727.0</ele><time>2026-05-02T15:20:59Z</time></trkpt><trkpt lat="42.1538910109627" lon="13.282843814027604"><ele>727.0</ele><time>2026-05-02T15:21:00Z</time></trkpt><trkpt lat="42.15397174040929" lon="13.282741357413089"><ele>727.0</ele><time>2026-05-02T15:21:01Z</time></trkpt><trkpt lat="42.15404512861346" lon="13.282640635336906"><ele>727.0</ele><time>2026-05-02T15:21:02Z</time></trkpt><trkpt lat="42.154128997410886" lon="13.282538074017788"><ele>727.0</ele><time>2026-05-02T15:21:03Z</time></trkpt><trkpt lat="42.15421809877456" lon="13.282413960185709"><ele>727.25</ele><time>2026-05-02T15:21:04Z</time></trkpt><trkpt lat="42.15430897269677" lon="13.282295529799066"><ele>727.5</ele><time>2026-05-02T15:21:05Z</time></trkpt><trkpt lat="42.154404740565056" lon="13.282175260352304"><ele>727.75</ele><time>2026-05-02T15:21:06Z</time></trkpt><trkpt lat="42.15450293856096" lon="13.282062664175212"><ele>728.0</ele><time>2026-05-02T15:21:07Z</time></trkpt><trkpt lat="42.15460298853258" lon="13.281973436294912"><ele>728.25</ele><time>2026-05-02T15:21:08Z</time></trkpt><trkpt lat="42.15471561056058" lon="13.2818909477536"><ele>728.5</ele><time>2026-05-02T15:21:09Z</time></trkpt><trkpt lat="42.15483322374234" lon="13.28181140550347"><ele>728.75</ele><time>2026-05-02T15:21:10Z</time></trkpt><trkpt lat="42.154956179202564" lon="13.281759822518138"><ele>729.0</ele><time>2026-05-02T15:21:11Z</time></trkpt><trkpt lat="42.15505794830784" lon="13.281674646406461"><ele>729.25</ele><time>2026-05-02T15:21:12Z</time></trkpt><trkpt lat="42.155166025179135" lon="13.281596560639889"><ele>729.5</ele><time>2026-05-02T15:21:13Z</time></trkpt><trkpt lat="42.155271877969994" lon="13.281504358746195"><ele>729.75</ele><time>2026-05-02T15:21:14Z</time></trkpt><trkpt lat="42.15538818144737" lon="13.281403887536705"><ele>730.0</ele><time>2026-05-02T15:21:15Z</time></trkpt><trkpt lat="42.15551018049135" lon="13.28128688090668"><ele>730.0</ele><time>2026-05-02T15:21:16Z</time></trkpt><trkpt lat="42.15562280223973" lon="13.28117345118665"><ele>730.0</ele><time>2026-05-02T15:21:17Z</time></trkpt><trkpt lat="42.15573139554369" lon="13.281074027577173"><ele>730.0</ele><time>2026-05-02T15:21:18Z</time></trkpt><trkpt lat="42.15582946573967" lon="13.280988145392618"><ele>730.0</ele><time>2026-05-02T15:21:19Z</time></trkpt><trkpt lat="42.1559214536983" lon="13.280916768127526"><ele>730.8</ele><time>2026-05-02T15:21:20Z</time></trkpt><trkpt lat="42.156014761149635" lon="13.280844682808677"><ele>731.6</ele><time>2026-05-02T15:21:21Z</time></trkpt><trkpt lat="42.156111171627906" lon="13.280763962056657"><ele>732.4000000000001</ele><time>2026-05-02T15:21:22Z</time></trkpt><trkpt lat="42.15620693756188" lon="13.280687056032525"><ele>733.2</ele><time>2026-05-02T15:21:23Z</time></trkpt><trkpt lat="42.156305139691185" lon="13.280605036666607"><ele>734.0</ele><time>2026-05-02T15:21:24Z</time></trkpt><trkpt lat="42.156403940075755" lon="13.280521828930928"><ele>734.25</ele><time>2026-05-02T15:21:25Z</time></trkpt><trkpt lat="42.156501753450804" lon="13.280437197935571"><ele>734.5</ele><time>2026-05-02T15:21:26Z</time></trkpt><trkpt lat="42.156601006460846" lon="13.28034325901237"><ele>734.75</ele><time>2026-05-02T15:21:27Z</time></trkpt><trkpt lat="42.15670530332117" lon="13.280242129015793"><ele>735.0</ele><time>2026-05-02T15:21:28Z</time></trkpt><trkpt lat="42.156817804822346" lon="13.280145859403504"><ele>735.75</ele><time>2026-05-02T15:21:29Z</time></trkpt><trkpt lat="42.15694268533574" lon="13.28004834791691"><ele>736.5</ele><time>2026-05-02T15:21:30Z</time></trkpt><trkpt lat="42.157069436326964" lon="13.279968455589463"><ele>737.25</ele><time>2026-05-02T15:21:31Z</time></trkpt><trkpt lat="42.15720517987953" lon="13.279887974221149"><ele>738.0</ele><time>2026-05-02T15:21:32Z</time></trkpt><trkpt lat="42.15734627641913" lon="13.27982210722087"><ele>738.3333333333334</ele><time>2026-05-02T15:21:33Z</time></trkpt><trkpt lat="42.15749329877595" lon="13.279768505769054"><ele>738.6666666666667</ele><time>2026-05-02T15:21:34Z</time></trkpt><trkpt lat="42.15763835552666" lon="13.279717541968688"><ele>739.0</ele><time>2026-05-02T15:21:35Z</time></trkpt><trkpt lat="42.15778387276998" lon="13.279666615880464"><ele>739.0</ele><time>2026-05-02T15:21:36Z</time></trkpt><trkpt lat="42.157923312600005" lon="13.279635848271427"><ele>739.0</ele><time>2026-05-02T15:21:37Z</time></trkpt><trkpt lat="42.158040866153556" lon="13.279598696292005"><ele>739.0</ele><time>2026-05-02T15:21:38Z</time></trkpt><trkpt lat="42.158138707625284" lon="13.279573341350558"><ele>739.0</ele><time>2026-05-02T15:21:39Z</time></trkpt><trkpt lat="42.15823835526414" lon="13.279553717620063"><ele>740.0</ele><time>2026-05-02T15:21:40Z</time></trkpt><trkpt lat="42.158349251950156" lon="13.279536653345254"><ele>741.0</ele><time>2026-05-02T15:21:41Z</time></trkpt><trkpt lat="42.158481161135896" lon="13.279500349610421"><ele>742.0</ele><time>2026-05-02T15:21:42Z</time></trkpt><trkpt lat="42.1586088156658" lon="13.279479504871862"><ele>743.0</ele><time>2026-05-02T15:21:43Z</time></trkpt><trkpt lat="42.15873774242234" lon="13.279465857872172"><ele>743.0</ele><time>2026-05-02T15:21:44Z</time></trkpt><trkpt lat="42.15887793073072" lon="13.279437878234317"><ele>743.0</ele><time>2026-05-02T15:21:45Z</time></trkpt><trkpt lat="42.15901671667833" lon="13.279410708885989"><ele>743.0</ele><time>2026-05-02T15:21:46Z</time></trkpt><trkpt lat="42.15916889312964" lon="13.279381058508687"><ele>743.0</ele><time>2026-05-02T15:21:47Z</time></trkpt><trkpt lat="42.15932882874499" lon="13.279325375424918"><ele>744.6666666666666</ele><time>2026-05-02T15:21:48Z</time></trkpt><trkpt lat="42.15949688090362" lon="13.279275540093732"><ele>746.3333333333334</ele><time>2026-05-02T15:21:49Z</time></trkpt><trkpt lat="42.15967287802323" lon="13.279227749985877"><ele>748.0</ele><time>2026-05-02T15:21:50Z</time></trkpt><trkpt lat="42.159851086971095" lon="13.279190523887866"><ele>749.0</ele><time>2026-05-02T15:21:51Z</time></trkpt><trkpt lat="42.16002949601337" lon="13.279151360044228"><ele>750.0</ele><time>2026-05-02T15:21:52Z</time></trkpt><trkpt lat="42.16021151776489" lon="13.279107691739643"><ele>751.0</ele><time>2026-05-02T15:21:53Z</time></trkpt><trkpt lat="42.16040348498933" lon="13.279049529602366"><ele>751.0</ele><time>2026-05-02T15:21:54Z</time></trkpt><trkpt lat="42.160598951627996" lon="13.278987231192374"><ele>751.0</ele><time>2026-05-02T15:21:55Z</time></trkpt><trkpt lat="42.160793039093186" lon="13.278923371216145"><ele>751.0</ele><time>2026-05-02T15:21:56Z</time></trkpt><trkpt lat="42.16098389283582" lon="13.278850267131133"><ele>752.0</ele><time>2026-05-02T15:21:57Z</time></trkpt><trkpt lat="42.16117072823312" lon="13.278782896508767"><ele>753.0</ele><time>2026-05-02T15:21:58Z</time></trkpt><trkpt lat="42.16135409510157" lon="13.278731281494567"><ele>754.0</ele><time>2026-05-02T15:21:59Z</time></trkpt><trkpt lat="42.16154568129298" lon="13.27867679478939"><ele>755.0</ele><time>2026-05-02T15:22:00Z</time></trkpt><trkpt lat="42.16172761667081" lon="13.278622834462706"><ele>756.0</ele><time>2026-05-02T15:22:01Z</time></trkpt><trkpt lat="42.16191179875897" lon="13.278570263794473"><ele>757.0</ele><time>2026-05-02T15:22:02Z</time></trkpt><trkpt lat="42.162093297555444" lon="13.278506270951427"><ele>757.0</ele><time>2026-05-02T15:22:03Z</time></trkpt><trkpt lat="42.16227370285058" lon="13.278434887227693"><ele>757.0</ele><time>2026-05-02T15:22:04Z</time></trkpt><trkpt lat="42.16244917584548" lon="13.278373568045238"><ele>757.0</ele><time>2026-05-02T15:22:05Z</time></trkpt><trkpt lat="42.162623644641734" lon="13.278312904472747"><ele>758.3333333333334</ele><time>2026-05-02T15:22:06Z</time></trkpt><trkpt lat="42.1628052653955" lon="13.278257248757903"><ele>759.6666666666666</ele><time>2026-05-02T15:22:07Z</time></trkpt><trkpt lat="42.162976293839336" lon="13.278203034533535"><ele>761.0</ele><time>2026-05-02T15:22:08Z</time></trkpt><trkpt lat="42.163126633074775" lon="13.278159360717389"><ele>762.0</ele><time>2026-05-02T15:22:09Z</time></trkpt><trkpt lat="42.16328025761437" lon="13.278118525351594"><ele>763.0</ele><time>2026-05-02T15:22:10Z</time></trkpt><trkpt lat="42.16342211418297" lon="13.278066017955657"><ele>764.0</ele><time>2026-05-02T15:22:11Z</time></trkpt><trkpt lat="42.16354468803649" lon="13.278006367403021"><ele>765.0</ele><time>2026-05-02T15:22:12Z</time></trkpt><trkpt lat="42.16366182323629" lon="13.277936436771194"><ele>765.0</ele><time>2026-05-02T15:22:13Z</time></trkpt><trkpt lat="42.16378127273234" lon="13.277843913827887"><ele>765.0</ele><time>2026-05-02T15:22:14Z</time></trkpt><trkpt lat="42.163894534193126" lon="13.277745095830316"><ele>765.0</ele><time>2026-05-02T15:22:15Z</time></trkpt><trkpt lat="42.16399275728868" lon="13.277650332489456"><ele>765.0</ele><time>2026-05-02T15:22:16Z</time></trkpt><trkpt lat="42.1640837150506" lon="13.277569627807932"><ele>765.0</ele><time>2026-05-02T15:22:17Z</time></trkpt><trkpt lat="42.16417507515308" lon="13.277514537311038"><ele>765.0</ele><time>2026-05-02T15:22:18Z</time></trkpt><trkpt lat="42.16427494830929" lon="13.277487101219272"><ele>765.0</ele><time>2026-05-02T15:22:19Z</time></trkpt><trkpt lat="42.164384799717745" lon="13.277464717005374"><ele>765.0</ele><time>2026-05-02T15:22:20Z</time></trkpt><trkpt lat="42.16450634655068" lon="13.277457453448898"><ele>765.0</ele><time>2026-05-02T15:22:21Z</time></trkpt><trkpt lat="42.164624489928414" lon="13.277484966027156"><ele>765.0</ele><time>2026-05-02T15:22:22Z</time></trkpt><trkpt lat="42.16475251667165" lon="13.277478056846283"><ele>765.0</ele><time>2026-05-02T15:22:23Z</time></trkpt><trkpt lat="42.164884383489294" lon="13.277484024952287"><ele>765.0</ele><time>2026-05-02T15:22:24Z</time></trkpt><trkpt lat="42.165015641198224" lon="13.27748862840612"><ele>765.0</ele><time>2026-05-02T15:22:25Z</time></trkpt><trkpt lat="42.16513236289904" lon="13.277475912087205"><ele>764.5</ele><time>2026-05-02T15:22:26Z</time></trkpt><trkpt lat="42.16525385348899" lon="13.277463484906443"><ele>764.0</ele><time>2026-05-02T15:22:27Z</time></trkpt><trkpt lat="42.16537450446381" lon="13.277452674107389"><ele>763.5</ele><time>2026-05-02T15:22:28Z</time></trkpt><trkpt lat="42.1654927449749" lon="13.277448878858683"><ele>763.0</ele><time>2026-05-02T15:22:29Z</time></trkpt><trkpt lat="42.16561745370733" lon="13.27744710606725"><ele>762.5</ele><time>2026-05-02T15:22:30Z</time></trkpt><trkpt lat="42.16574865979929" lon="13.277464595864341"><ele>762.0</ele><time>2026-05-02T15:22:31Z</time></trkpt><trkpt lat="42.16588997110529" lon="13.27742453624022"><ele>761.5</ele><time>2026-05-02T15:22:32Z</time></trkpt><trkpt lat="42.16604641363526" lon="13.277372322850818"><ele>761.0</ele><time>2026-05-02T15:22:33Z</time></trkpt><trkpt lat="42.16619709797645" lon="13.27732428818148"><ele>760.6666666666666</ele><time>2026-05-02T15:22:34Z</time></trkpt><trkpt lat="42.166358130380374" lon="13.27726394451617"><ele>760.3333333333334</ele><time>2026-05-02T15:22:35Z</time></trkpt><trkpt lat="42.16649473834219" lon="13.27717761233714"><ele>760.0</ele><time>2026-05-02T15:22:36Z</time></trkpt><trkpt lat="42.16661692121655" lon="13.277109169291082"><ele>761.5</ele><time>2026-05-02T15:22:37.001Z</time></trkpt><trkpt lat="42.166730155563236" lon="13.277040092833689"><ele>763.0</ele><time>2026-05-02T15:22:38.001Z</time></trkpt><trkpt lat="42.16684800156487" lon="13.276972935561124"><ele>764.5</ele><time>2026-05-02T15:22:39.001Z</time></trkpt><trkpt lat="42.166955124280214" lon="13.276959328920888"><ele>766.0</ele><time>2026-05-02T15:22:40.001Z</time></trkpt><trkpt lat="42.16706358242271" lon="13.276963084725839"><ele>766.0</ele><time>2026-05-02T15:22:41.001Z</time></trkpt><trkpt lat="42.16716952024125" lon="13.276972481672514"><ele>766.0</ele><time>2026-05-02T15:22:42.001Z</time></trkpt><trkpt lat="42.16728043806371" lon="13.276980171149537"><ele>766.0</ele><time>2026-05-02T15:22:43.001Z</time></trkpt><trkpt lat="42.16735742849781" lon="13.276978395435712"><ele>766.0</ele><time>2026-05-02T15:22:44.001Z</time></trkpt><trkpt lat="42.167460342225404" lon="13.2769192310959"><ele>766.0</ele><time>2026-05-02T15:22:46.001Z</time></trkpt><trkpt lat="42.16750422485327" lon="13.276765859841522"><ele>771.5</ele><time>2026-05-02T15:22:48.001Z</time></trkpt><trkpt lat="42.16752998952662" lon="13.27668779557806"><ele>777.0</ele><time>2026-05-02T15:22:50.001Z</time></trkpt><trkpt lat="42.16774661624417" lon="13.276225488910029"><ele>777.8333333333334</ele><time>2026-05-02T15:22:54.001Z</time></trkpt><trkpt lat="42.16785265037146" lon="13.276209201274467"><ele>778.6666666666667</ele><time>2026-05-02T15:22:56.001Z</time></trkpt><trkpt lat="42.16791023291487" lon="13.27624871019028"><ele>779.5</ele><time>2026-05-02T15:22:57.001Z</time></trkpt><trkpt lat="42.167985531849524" lon="13.276265355207716"><ele>780.3333333333334</ele><time>2026-05-02T15:22:58.001Z</time></trkpt><trkpt lat="42.16806518214624" lon="13.27628474680804"><ele>781.1666666666667</ele><time>2026-05-02T15:22:59.001Z</time></trkpt><trkpt lat="42.16815024767921" lon="13.276284823470887"><ele>782.0</ele><time>2026-05-02T15:23:00.001Z</time></trkpt><trkpt lat="42.16823967098191" lon="13.276294737678803"><ele>782.0</ele><time>2026-05-02T15:23:01.001Z</time></trkpt><trkpt lat="42.16832937360415" lon="13.276291548678204"><ele>782.0</ele><time>2026-05-02T15:23:02.001Z</time></trkpt><trkpt lat="42.16843065060847" lon="13.276269697938726"><ele>782.0</ele><time>2026-05-02T15:23:03.001Z</time></trkpt><trkpt lat="42.168540942242956" lon="13.276248116765387"><ele>782.0</ele><time>2026-05-02T15:23:04.001Z</time></trkpt><trkpt lat="42.16867052921233" lon="13.276220481052771"><ele>782.0</ele><time>2026-05-02T15:23:05.001Z</time></trkpt><trkpt lat="42.16880982500081" lon="13.276184206011518"><ele>782.0</ele><time>2026-05-02T15:23:06.001Z</time></trkpt><trkpt lat="42.16895418543345" lon="13.276140941428963"><ele>782.0</ele><time>2026-05-02T15:23:07.001Z</time></trkpt><trkpt lat="42.169106570878405" lon="13.276092088985552"><ele>782.0</ele><time>2026-05-02T15:23:08.001Z</time></trkpt><trkpt lat="42.16926992443349" lon="13.276032979282606"><ele>784.3333333333334</ele><time>2026-05-02T15:23:09.001Z</time></trkpt><trkpt lat="42.169440392823944" lon="13.275983929638391"><ele>786.6666666666667</ele><time>2026-05-02T15:23:10.001Z</time></trkpt><trkpt lat="42.169586605135436" lon="13.275938127599177"><ele>789.0</ele><time>2026-05-02T15:23:11.001Z</time></trkpt><trkpt lat="42.16973236381458" lon="13.275890443084045"><ele>790.25</ele><time>2026-05-02T15:23:12.001Z</time></trkpt><trkpt lat="42.16986420606876" lon="13.275845471146589"><ele>791.5</ele><time>2026-05-02T15:23:13.001Z</time></trkpt><trkpt lat="42.169987798883895" lon="13.275809777441038"><ele>792.75</ele><time>2026-05-02T15:23:14.001Z</time></trkpt><trkpt lat="42.170131444623806" lon="13.275766077381563"><ele>794.0</ele><time>2026-05-02T15:23:15.001Z</time></trkpt><trkpt lat="42.17027341795916" lon="13.275726312302867"><ele>794.0</ele><time>2026-05-02T15:23:16.001Z</time></trkpt><trkpt lat="42.17039097744057" lon="13.27570589810492"><ele>794.0</ele><time>2026-05-02T15:23:17.001Z</time></trkpt><trkpt lat="42.170509810491076" lon="13.275694440959562"><ele>794.0</ele><time>2026-05-02T15:23:18.001Z</time></trkpt><trkpt lat="42.17061343963605" lon="13.275690221908121"><ele>794.0</ele><time>2026-05-02T15:23:19.001Z</time></trkpt><trkpt lat="42.17069619032087" lon="13.275698328579066"><ele>794.0</ele><time>2026-05-02T15:23:20.001Z</time></trkpt><trkpt lat="42.17077836751028" lon="13.27565821304649"><ele>795.2</ele><time>2026-05-02T15:23:22Z</time></trkpt><trkpt lat="42.17085295003233" lon="13.275660105009962"><ele>796.4000000000001</ele><time>2026-05-02T15:24:05Z</time></trkpt><trkpt lat="42.17097191197619" lon="13.275609317435432"><ele>797.6</ele><time>2026-05-02T15:24:07Z</time></trkpt><trkpt lat="42.171035696114025" lon="13.275645461709022"><ele>798.8</ele><time>2026-05-02T15:24:08Z</time></trkpt><trkpt lat="42.17116197142556" lon="13.27566153703629"><ele>800.0</ele><time>2026-05-02T15:24:10Z</time></trkpt><trkpt lat="42.171252989335805" lon="13.275651732629388"><ele>800.0</ele><time>2026-05-02T15:24:11Z</time></trkpt><trkpt lat="42.17135999709391" lon="13.275672580727587"><ele>800.0</ele><time>2026-05-02T15:24:12Z</time></trkpt><trkpt lat="42.17147568141892" lon="13.275697539543469"><ele>800.0</ele><time>2026-05-02T15:24:13Z</time></trkpt><trkpt lat="42.17158826753921" lon="13.275741094743566"><ele>800.0</ele><time>2026-05-02T15:24:14Z</time></trkpt><trkpt lat="42.17169225326213" lon="13.2758105885132"><ele>800.25</ele><time>2026-05-02T15:24:15Z</time></trkpt><trkpt lat="42.171799473895945" lon="13.275892105869529"><ele>800.5</ele><time>2026-05-02T15:24:16Z</time></trkpt><trkpt lat="42.1719049915201" lon="13.275969443509963"><ele>800.75</ele><time>2026-05-02T15:24:17Z</time></trkpt><trkpt lat="42.17201619961809" lon="13.27601483131216"><ele>801.0</ele><time>2026-05-02T15:24:18Z</time></trkpt><trkpt lat="42.172117272053804" lon="13.276032932222083"><ele>801.0</ele><time>2026-05-02T15:24:19Z</time></trkpt><trkpt lat="42.17219418909296" lon="13.276066190587084"><ele>801.0</ele><time>2026-05-02T15:24:20Z</time></trkpt><trkpt lat="42.172262678428886" lon="13.276094101519462"><ele>801.0</ele><time>2026-05-02T15:24:21Z</time></trkpt><trkpt lat="42.1723552030161" lon="13.276127240517637"><ele>801.0</ele><time>2026-05-02T15:24:23Z</time></trkpt><trkpt lat="42.172412602021375" lon="13.276176358978061"><ele>801.0</ele><time>2026-05-02T15:24:26Z</time></trkpt><trkpt lat="42.17248709256619" lon="13.276194320652975"><ele>801.0</ele><time>2026-05-02T15:25:05.001Z</time></trkpt><trkpt lat="42.17256156645718" lon="13.276225146121865"><ele>801.1999999999999</ele><time>2026-05-02T15:25:06.001Z</time></trkpt><trkpt lat="42.17265508403352" lon="13.276261652582244"><ele>801.4</ele><time>2026-05-02T15:25:07.001Z</time></trkpt><trkpt lat="42.17276222215288" lon="13.27629762923015"><ele>801.6</ele><time>2026-05-02T15:25:08.001Z</time></trkpt><trkpt lat="42.17285620236389" lon="13.276335867016336"><ele>801.8</ele><time>2026-05-02T15:25:09.001Z</time></trkpt><trkpt lat="42.17296328708079" lon="13.27636385145054"><ele>802.0</ele><time>2026-05-02T15:25:10.001Z</time></trkpt><trkpt lat="42.17307212329899" lon="13.276376470728268"><ele>801.9999999999999</ele><time>2026-05-02T15:25:11.001Z</time></trkpt><trkpt lat="42.17317635942125" lon="13.276396528543156"><ele>802.0</ele><time>2026-05-02T15:25:12.001Z</time></trkpt><trkpt lat="42.17326495343975" lon="13.276382164075537"><ele>802.0</ele><time>2026-05-02T15:25:13.001Z</time></trkpt><trkpt lat="42.173336437687325" lon="13.276320899125475"><ele>802.0</ele><time>2026-05-02T15:25:14.001Z</time></trkpt><trkpt lat="42.17340517842632" lon="13.276276552904251"><ele>801.9999999999999</ele><time>2026-05-02T15:25:15.001Z</time></trkpt><trkpt lat="42.173479750228594" lon="13.276252391685752"><ele>802.0</ele><time>2026-05-02T15:25:16.001Z</time></trkpt><trkpt lat="42.17357228960533" lon="13.276223705858666"><ele>804.0</ele><time>2026-05-02T15:25:17.001Z</time></trkpt><trkpt lat="42.17368024152289" lon="13.276174880114503"><ele>806.0</ele><time>2026-05-02T15:25:18.001Z</time></trkpt><trkpt lat="42.17379660821634" lon="13.276136726061218"><ele>808.0</ele><time>2026-05-02T15:25:19.001Z</time></trkpt><trkpt lat="42.173895537294264" lon="13.276112531140537"><ele>810.0</ele><time>2026-05-02T15:25:20.001Z</time></trkpt><trkpt lat="42.17397546723584" lon="13.276091543459444"><ele>812.0</ele><time>2026-05-02T15:25:21Z</time></trkpt><trkpt lat="42.17404990586324" lon="13.276085839579723"><ele>814.2</ele><time>2026-05-02T15:25:22Z</time></trkpt><trkpt lat="42.17413294985349" lon="13.276144193351547"><ele>816.4000000000001</ele><time>2026-05-02T15:25:24Z</time></trkpt><trkpt lat="42.174230764615736" lon="13.27625265362472"><ele>818.5999999999999</ele><time>2026-05-02T15:25:26Z</time></trkpt><trkpt lat="42.17431902958156" lon="13.276300895053616"><ele>820.8</ele><time>2026-05-02T15:25:27Z</time></trkpt><trkpt lat="42.174403073471424" lon="13.276400003267886"><ele>823.0</ele><time>2026-05-02T15:25:28Z</time></trkpt><trkpt lat="42.17451672189275" lon="13.276470174049992"><ele>823.5</ele><time>2026-05-02T15:25:29Z</time></trkpt><trkpt lat="42.17463056145487" lon="13.27656762981411"><ele>824.0</ele><time>2026-05-02T15:25:30Z</time></trkpt><trkpt lat="42.174763976831805" lon="13.276633344535247"><ele>824.5</ele><time>2026-05-02T15:25:31Z</time></trkpt><trkpt lat="42.17490569017958" lon="13.276638061694293"><ele>825.0</ele><time>2026-05-02T15:25:32Z</time></trkpt><trkpt lat="42.17504338644234" lon="13.276574314207497"><ele>826.6666666666667</ele><time>2026-05-02T15:25:33Z</time></trkpt><trkpt lat="42.17515454728586" lon="13.276430477531644"><ele>828.3333333333334</ele><time>2026-05-02T15:25:34Z</time></trkpt><trkpt lat="42.17524907309346" lon="13.276283346616404"><ele>830.0</ele><time>2026-05-02T15:25:35Z</time></trkpt><trkpt lat="42.17533128306811" lon="13.276106150220777"><ele>830.0</ele><time>2026-05-02T15:25:36Z</time></trkpt><trkpt lat="42.175412191298484" lon="13.275919758938961"><ele>830.0</ele><time>2026-05-02T15:25:37Z</time></trkpt><trkpt lat="42.17549750253613" lon="13.27573536851798"><ele>830.0</ele><time>2026-05-02T15:25:38Z</time></trkpt><trkpt lat="42.17557140550641" lon="13.275570001790031"><ele>830.0</ele><time>2026-05-02T15:25:39Z</time></trkpt><trkpt lat="42.17564026423301" lon="13.275444724268736"><ele>830.0</ele><time>2026-05-02T15:25:40Z</time></trkpt><trkpt lat="42.17571175439466" lon="13.275378050706381"><ele>830.0</ele><time>2026-05-02T15:25:41Z</time></trkpt><trkpt lat="42.175814234497324" lon="13.275347471891303"><ele>830.0</ele><time>2026-05-02T15:25:42Z</time></trkpt><trkpt lat="42.175935410634125" lon="13.275336804804226"><ele>830.0</ele><time>2026-05-02T15:25:43Z</time></trkpt><trkpt lat="42.17606592800187" lon="13.27531336516142"><ele>830.0</ele><time>2026-05-02T15:25:44Z</time></trkpt><trkpt lat="42.176208362238285" lon="13.275270708035256"><ele>830.0</ele><time>2026-05-02T15:25:45Z</time></trkpt><trkpt lat="42.1763486243644" lon="13.275234036485603"><ele>830.0</ele><time>2026-05-02T15:25:46Z</time></trkpt><trkpt lat="42.176488087333134" lon="13.275185348610412"><ele>830.0</ele><time>2026-05-02T15:25:47Z</time></trkpt><trkpt lat="42.17663856748411" lon="13.275164056044492"><ele>828.0</ele><time>2026-05-02T15:25:48Z</time></trkpt><trkpt lat="42.17677916678474" lon="13.275120235233725"><ele>826.0</ele><time>2026-05-02T15:25:49Z</time></trkpt><trkpt lat="42.17690590006604" lon="13.27505584205916"><ele>824.0</ele><time>2026-05-02T15:25:50Z</time></trkpt><trkpt lat="42.17702442406344" lon="13.275011683860434"><ele>822.0</ele><time>2026-05-02T15:25:51Z</time></trkpt><trkpt lat="42.177127313414864" lon="13.274981018414653"><ele>822.0</ele><time>2026-05-02T15:25:52Z</time></trkpt><trkpt lat="42.177220278365404" lon="13.274971477523266"><ele>822.0</ele><time>2026-05-02T15:25:53Z</time></trkpt><trkpt lat="42.17729940821787" lon="13.275017971912774"><ele>822.0</ele><time>2026-05-02T15:25:54Z</time></trkpt><trkpt lat="42.17735606003614" lon="13.27513124025583"><ele>822.0</ele><time>2026-05-02T15:25:55Z</time></trkpt><trkpt lat="42.17738712512822" lon="13.275282168818192"><ele>822.0</ele><time>2026-05-02T15:25:56Z</time></trkpt><trkpt lat="42.17738519077303" lon="13.275421015307193"><ele>822.0</ele><time>2026-05-02T15:25:57Z</time></trkpt><trkpt lat="42.1773295699859" lon="13.27553894103549"><ele>822.0</ele><time>2026-05-02T15:25:59Z</time></trkpt><trkpt lat="42.17740331005555" lon="13.275405937671687"><ele>822.0</ele><time>2026-05-02T15:26:17Z</time></trkpt><trkpt lat="42.17740420120222" lon="13.275278329801942"><ele>822.0</ele><time>2026-05-02T15:26:18Z</time></trkpt><trkpt lat="42.17741525291177" lon="13.275166357497634"><ele>822.0</ele><time>2026-05-02T15:26:19Z</time></trkpt><trkpt lat="42.177446421000454" lon="13.275091388509443"><ele>821.4000000000001</ele><time>2026-05-02T15:26:20Z</time></trkpt><trkpt lat="42.17753289401401" lon="13.275090310551631"><ele>820.8000000000001</ele><time>2026-05-02T15:26:22Z</time></trkpt><trkpt lat="42.17755779719906" lon="13.275224445033116"><ele>820.2</ele><time>2026-05-02T15:26:24Z</time></trkpt><trkpt lat="42.17754233062449" lon="13.2753370457047"><ele>819.6</ele><time>2026-05-02T15:26:25Z</time></trkpt><trkpt lat="42.17752966319025" lon="13.275457712361868"><ele>819.0</ele><time>2026-05-02T15:26:26Z</time></trkpt><trkpt lat="42.177532781417426" lon="13.2756008480388"><ele>819.25</ele><time>2026-05-02T15:26:27Z</time></trkpt><trkpt lat="42.177560692875396" lon="13.275744215869738"><ele>819.5</ele><time>2026-05-02T15:26:28Z</time></trkpt><trkpt lat="42.17760179598922" lon="13.275890565779914"><ele>819.75</ele><time>2026-05-02T15:26:29Z</time></trkpt><trkpt lat="42.17764839931858" lon="13.276039205010676"><ele>820.0</ele><time>2026-05-02T15:26:30Z</time></trkpt><trkpt lat="42.17767453703086" lon="13.276181917592702"><ele>820.0</ele><time>2026-05-02T15:26:31Z</time></trkpt><trkpt lat="42.17767957821821" lon="13.276329070649286"><ele>820.0</ele><time>2026-05-02T15:26:32Z</time></trkpt><trkpt lat="42.17766740637631" lon="13.276480044420332"><ele>820.0</ele><time>2026-05-02T15:26:33Z</time></trkpt><trkpt lat="42.17737148766449" lon="13.276641178054135"><ele>820.5</ele><time>2026-05-02T15:26:34Z</time></trkpt><trkpt lat="42.177372707267544" lon="13.27680197962085"><ele>821.0</ele><time>2026-05-02T15:26:35Z</time></trkpt><trkpt lat="42.17737397966789" lon="13.276956448853479"><ele>821.5</ele><time>2026-05-02T15:26:36Z</time></trkpt><trkpt lat="42.17737666621886" lon="13.277132992403303"><ele>822.0</ele><time>2026-05-02T15:26:37Z</time></trkpt><trkpt lat="42.177379738452096" lon="13.277288830840671"><ele>822.5</ele><time>2026-05-02T15:26:38Z</time></trkpt><trkpt lat="42.17738401747792" lon="13.277479035062687"><ele>823.0</ele><time>2026-05-02T15:26:39Z</time></trkpt><trkpt lat="42.17738715331064" lon="13.277631772790576"><ele>823.5</ele><time>2026-05-02T15:26:40Z</time></trkpt><trkpt lat="42.17737664569906" lon="13.277791688077992"><ele>824.0</ele><time>2026-05-02T15:26:41Z</time></trkpt><trkpt lat="42.17735913525285" lon="13.277922016246812"><ele>824.6666666666667</ele><time>2026-05-02T15:26:42Z</time></trkpt><trkpt lat="42.1773330706243" lon="13.278009855156464"><ele>825.3333333333334</ele><time>2026-05-02T15:26:43Z</time></trkpt><trkpt lat="42.177295122662386" lon="13.278106170419083"><ele>826.0</ele><time>2026-05-02T15:26:44Z</time></trkpt><trkpt lat="42.17724734425566" lon="13.278178348768105"><ele>826.6666666666667</ele><time>2026-05-02T15:26:45Z</time></trkpt><trkpt lat="42.17717591286554" lon="13.278244511531556"><ele>827.3333333333334</ele><time>2026-05-02T15:26:46Z</time></trkpt><trkpt lat="42.17708760516702" lon="13.278276995366726"><ele>828.0</ele><time>2026-05-02T15:26:47Z</time></trkpt><trkpt lat="42.17701619695823" lon="13.278302370744717"><ele>829.6666666666667</ele><time>2026-05-02T15:26:48Z</time></trkpt><trkpt lat="42.17691611278438" lon="13.278354945000357"><ele>831.3333333333334</ele><time>2026-05-02T15:26:50Z</time></trkpt><trkpt lat="42.17684962892593" lon="13.2783732290005"><ele>833.0</ele><time>2026-05-02T15:26:52Z</time></trkpt><trkpt lat="42.17690483511807" lon="13.279052896279735"><ele>833.4</ele><time>2026-05-02T15:26:53Z</time></trkpt><trkpt lat="42.17702125370801" lon="13.279191633557359"><ele>833.8</ele><time>2026-05-02T15:26:55Z</time></trkpt><trkpt lat="42.17707125658576" lon="13.27928841170071"><ele>834.2</ele><time>2026-05-02T15:26:56Z</time></trkpt><trkpt lat="42.177117278855555" lon="13.279404728047435"><ele>834.6</ele><time>2026-05-02T15:26:57Z</time></trkpt><trkpt lat="42.177153457703234" lon="13.279526110709542"><ele>835.0</ele><time>2026-05-02T15:26:58Z</time></trkpt><trkpt lat="42.177180213701966" lon="13.27964970928186"><ele>835.0</ele><time>2026-05-02T15:26:59Z</time></trkpt><trkpt lat="42.177216343515276" lon="13.279762670657862"><ele>835.0</ele><time>2026-05-02T15:27:00Z</time></trkpt><trkpt lat="42.1772747131736" lon="13.279862927499508"><ele>835.0</ele><time>2026-05-02T15:27:01Z</time></trkpt><trkpt lat="42.17734965552513" lon="13.279972660107237"><ele>835.0</ele><time>2026-05-02T15:27:02Z</time></trkpt><trkpt lat="42.17742739095436" lon="13.28011538491237"><ele>835.0</ele><time>2026-05-02T15:27:03Z</time></trkpt><trkpt lat="42.17750790404524" lon="13.280280905822467"><ele>835.25</ele><time>2026-05-02T15:27:04Z</time></trkpt><trkpt lat="42.17758278028625" lon="13.280438304317345"><ele>835.5</ele><time>2026-05-02T15:27:05Z</time></trkpt><trkpt lat="42.17766007299201" lon="13.280585764760616"><ele>835.75</ele><time>2026-05-02T15:27:06Z</time></trkpt><trkpt lat="42.177739100764036" lon="13.280742091834183"><ele>836.0</ele><time>2026-05-02T15:27:07Z</time></trkpt><trkpt lat="42.17782751335536" lon="13.280875428754108"><ele>836.75</ele><time>2026-05-02T15:27:08Z</time></trkpt><trkpt lat="42.17789007288806" lon="13.281032696690412"><ele>837.5</ele><time>2026-05-02T15:27:09Z</time></trkpt><trkpt lat="42.17795874719088" lon="13.281163138287784"><ele>838.25</ele><time>2026-05-02T15:27:10Z</time></trkpt><trkpt lat="42.177992554818495" lon="13.281300212828734"><ele>839.0</ele><time>2026-05-02T15:27:11Z</time></trkpt><trkpt lat="42.178033416561625" lon="13.281432771643464"><ele>839.25</ele><time>2026-05-02T15:27:12Z</time></trkpt><trkpt lat="42.178065757406316" lon="13.281559243536313"><ele>839.5</ele><time>2026-05-02T15:27:13Z</time></trkpt><trkpt lat="42.17809619865274" lon="13.281678012413987"><ele>839.75</ele><time>2026-05-02T15:27:14Z</time></trkpt><trkpt lat="42.178125383280296" lon="13.28179420681704"><ele>840.0</ele><time>2026-05-02T15:27:15Z</time></trkpt><trkpt lat="42.178146390360965" lon="13.282113168393339"><ele>840.25</ele><time>2026-05-02T15:27:16Z</time></trkpt><trkpt lat="42.17820229137171" lon="13.282201919656279"><ele>840.5</ele><time>2026-05-02T15:27:17Z</time></trkpt><trkpt lat="42.17826730530347" lon="13.282285632987117"><ele>840.75</ele><time>2026-05-02T15:27:18Z</time></trkpt><trkpt lat="42.17838078885128" lon="13.282427713068106"><ele>841.0</ele><time>2026-05-02T15:27:19Z</time></trkpt><trkpt lat="42.17879631549695" lon="13.28177855796728"><ele>840.9999999999999</ele><time>2026-05-02T15:27:20Z</time></trkpt><trkpt lat="42.17887481991671" lon="13.281706948677405"><ele>841.0</ele><time>2026-05-02T15:27:21Z</time></trkpt><trkpt lat="42.17895167536971" lon="13.28161817085631"><ele>841.0</ele><time>2026-05-02T15:27:22Z</time></trkpt><trkpt lat="42.179026108119146" lon="13.281557851577247"><ele>841.0</ele><time>2026-05-02T15:27:23Z</time></trkpt><trkpt lat="42.179091374301464" lon="13.281551560364555"><ele>840.9999999999999</ele><time>2026-05-02T15:27:24Z</time></trkpt><trkpt lat="42.17917517412964" lon="13.281615766328247"><ele>841.0</ele><time>2026-05-02T15:27:26Z</time></trkpt><trkpt lat="42.17922093912848" lon="13.281756597338845"><ele>839.5999999999999</ele><time>2026-05-02T15:27:28Z</time></trkpt><trkpt lat="42.17930220885978" lon="13.281833606207316"><ele>838.2</ele><time>2026-05-02T15:27:30Z</time></trkpt><trkpt lat="42.179385290170806" lon="13.281802022456437"><ele>836.8</ele><time>2026-05-02T15:27:32Z</time></trkpt><trkpt lat="42.17943480609405" lon="13.28164845500892"><ele>835.4000000000001</ele><time>2026-05-02T15:27:34Z</time></trkpt><trkpt lat="42.17946469910412" lon="13.281539657124558"><ele>834.0</ele><time>2026-05-02T15:27:35Z</time></trkpt><trkpt lat="42.17952705229499" lon="13.281412126858509"><ele>833.0</ele><time>2026-05-02T15:27:36Z</time></trkpt><trkpt lat="42.17962653258745" lon="13.281310922225522"><ele>832.0</ele><time>2026-05-02T15:27:37Z</time></trkpt><trkpt lat="42.17967839829964" lon="13.281136090612534"><ele>831.0</ele><time>2026-05-02T15:27:38Z</time></trkpt><trkpt lat="42.17976080287956" lon="13.280948103382594"><ele>830.0</ele><time>2026-05-02T15:27:39Z</time></trkpt><trkpt lat="42.17984907540543" lon="13.280751694479793"><ele>828.3333333333334</ele><time>2026-05-02T15:27:40Z</time></trkpt><trkpt lat="42.179953711849045" lon="13.28053489353658"><ele>826.6666666666667</ele><time>2026-05-02T15:27:41Z</time></trkpt><trkpt lat="42.18007640187469" lon="13.280315721467286"><ele>825.0</ele><time>2026-05-02T15:27:42Z</time></trkpt><trkpt lat="42.18021068816637" lon="13.28011929703493"><ele>825.0</ele><time>2026-05-02T15:27:43Z</time></trkpt><trkpt lat="42.180350363850685" lon="13.279959629825116"><ele>825.0</ele><time>2026-05-02T15:27:44Z</time></trkpt><trkpt lat="42.180500337671404" lon="13.279844980622133"><ele>825.0</ele><time>2026-05-02T15:27:45Z</time></trkpt><trkpt lat="42.180611458601106" lon="13.279707629370026"><ele>824.2</ele><time>2026-05-02T15:27:46Z</time></trkpt><trkpt lat="42.18068545747165" lon="13.279592435320847"><ele>823.4</ele><time>2026-05-02T15:27:47Z</time></trkpt><trkpt lat="42.180711079643764" lon="13.27945910400485"><ele>822.5999999999999</ele><time>2026-05-02T15:27:48Z</time></trkpt><trkpt lat="42.1806920619191" lon="13.279324190880576"><ele>821.8</ele><time>2026-05-02T15:27:49Z</time></trkpt><trkpt lat="42.180644985996274" lon="13.279173243900072"><ele>821.0</ele><time>2026-05-02T15:27:50Z</time></trkpt><trkpt lat="42.180591826065786" lon="13.279011026077415"><ele>820.3333333333334</ele><time>2026-05-02T15:27:51Z</time></trkpt><trkpt lat="42.180559758267655" lon="13.278829346747708"><ele>819.6666666666667</ele><time>2026-05-02T15:27:52Z</time></trkpt><trkpt lat="42.180587566846334" lon="13.278626589368558"><ele>819.0</ele><time>2026-05-02T15:27:53Z</time></trkpt><trkpt lat="42.180617068840796" lon="13.278409156472588"><ele>819.0</ele><time>2026-05-02T15:27:54Z</time></trkpt><trkpt lat="42.18063388214023" lon="13.278181037892237"><ele>819.0</ele><time>2026-05-02T15:27:55Z</time></trkpt><trkpt lat="42.180666648977194" lon="13.277973135571704"><ele>819.0</ele><time>2026-05-02T15:27:56Z</time></trkpt><trkpt lat="42.18069502863949" lon="13.277773163856459"><ele>817.6666666666667</ele><time>2026-05-02T15:27:57Z</time></trkpt><trkpt lat="42.1807196043728" lon="13.277576949725141"><ele>816.3333333333334</ele><time>2026-05-02T15:27:58Z</time></trkpt><trkpt lat="42.18074507230007" lon="13.277370053405985"><ele>815.0</ele><time>2026-05-02T15:27:59Z</time></trkpt><trkpt lat="42.18077655601173" lon="13.277145544240895"><ele>814.3333333333334</ele><time>2026-05-02T15:28:00Z</time></trkpt><trkpt lat="42.18081357423857" lon="13.276911791593383"><ele>813.6666666666667</ele><time>2026-05-02T15:28:01Z</time></trkpt><trkpt lat="42.18085225723462" lon="13.2766831423338"><ele>813.0</ele><time>2026-05-02T15:28:02Z</time></trkpt><trkpt lat="42.18088582665722" lon="13.276470244293716"><ele>812.3333333333333</ele><time>2026-05-02T15:28:03Z</time></trkpt><trkpt lat="42.18091660108157" lon="13.27626707868699"><ele>811.6666666666666</ele><time>2026-05-02T15:28:04Z</time></trkpt><trkpt lat="42.18094954461665" lon="13.276062424701784"><ele>811.0</ele><time>2026-05-02T15:28:05Z</time></trkpt><trkpt lat="42.18098626046791" lon="13.275861235422676"><ele>811.0</ele><time>2026-05-02T15:28:06Z</time></trkpt><trkpt lat="42.181024970188844" lon="13.275659739239062"><ele>811.0</ele><time>2026-05-02T15:28:07Z</time></trkpt><trkpt lat="42.181062677342574" lon="13.275472038372564"><ele>811.0</ele><time>2026-05-02T15:28:08Z</time></trkpt><trkpt lat="42.1811048908965" lon="13.275285834044706"><ele>811.0</ele><time>2026-05-02T15:28:09Z</time></trkpt><trkpt lat="42.18114178290474" lon="13.275107654750204"><ele>810.5</ele><time>2026-05-02T15:28:10Z</time></trkpt><trkpt lat="42.18117406191892" lon="13.274934284928321"><ele>810.0</ele><time>2026-05-02T15:28:11Z</time></trkpt><trkpt lat="42.18120821680575" lon="13.274761316569665"><ele>809.5</ele><time>2026-05-02T15:28:12Z</time></trkpt><trkpt lat="42.18124736483597" lon="13.274596843998287"><ele>809.0</ele><time>2026-05-02T15:28:13Z</time></trkpt><trkpt lat="42.18128629144998" lon="13.274441188026746"><ele>808.3333333333334</ele><time>2026-05-02T15:28:14Z</time></trkpt><trkpt lat="42.181322267164944" lon="13.27429242875162"><ele>807.6666666666667</ele><time>2026-05-02T15:28:15Z</time></trkpt><trkpt lat="42.181351397121055" lon="13.27417432467614"><ele>807.0</ele><time>2026-05-02T15:28:16Z</time></trkpt><trkpt lat="42.18137569956926" lon="13.274082799433794"><ele>806.3333333333333</ele><time>2026-05-02T15:28:17Z</time></trkpt><trkpt lat="42.18140635367085" lon="13.273981203821547"><ele>805.6666666666666</ele><time>2026-05-02T15:28:19Z</time></trkpt><trkpt lat="42.181411254586024" lon="13.273887259093788"><ele>805.0</ele><time>2026-05-02T15:28:22Z</time></trkpt><trkpt lat="42.18142416317552" lon="13.273794422116037"><ele>804.5</ele><time>2026-05-02T15:28:24Z</time></trkpt><trkpt lat="42.18153939578751" lon="13.273846133015454"><ele>804.0</ele><time>2026-05-02T15:28:31Z</time></trkpt><trkpt lat="42.18154370981858" lon="13.273680902515013"><ele>803.5</ele><time>2026-05-02T15:28:32Z</time></trkpt><trkpt lat="42.18165170972525" lon="13.273595648766433"><ele>803.0</ele><time>2026-05-02T15:28:36Z</time></trkpt><trkpt lat="42.181651121336074" lon="13.27337399759128"><ele>803.0</ele><time>2026-05-02T15:28:37Z</time></trkpt><trkpt lat="42.18171190875108" lon="13.27330265876879"><ele>803.0</ele><time>2026-05-02T15:28:38Z</time></trkpt><trkpt lat="42.18176655354122" lon="13.27319575906591"><ele>803.0</ele><time>2026-05-02T15:28:39Z</time></trkpt><trkpt lat="42.18181333129116" lon="13.273079168966337"><ele>803.0</ele><time>2026-05-02T15:28:40Z</time></trkpt><trkpt lat="42.18186064809651" lon="13.27296742019718"><ele>803.0</ele><time>2026-05-02T15:28:41Z</time></trkpt><trkpt lat="42.181911280640826" lon="13.272847840598768"><ele>802.6666666666667</ele><time>2026-05-02T15:28:42Z</time></trkpt><trkpt lat="42.181960712304516" lon="13.272731097134098"><ele>802.3333333333333</ele><time>2026-05-02T15:28:43Z</time></trkpt><trkpt lat="42.18220763279382" lon="13.272756960317276"><ele>802.0</ele><time>2026-05-02T15:28:44Z</time></trkpt><trkpt lat="42.182302541882514" lon="13.272666323675983"><ele>802.0</ele><time>2026-05-02T15:28:45Z</time></trkpt><trkpt lat="42.182412551132145" lon="13.27258819212187"><ele>802.0</ele><time>2026-05-02T15:28:46Z</time></trkpt><trkpt lat="42.18251476935795" lon="13.272496918079966"><ele>802.0</ele><time>2026-05-02T15:28:47Z</time></trkpt><trkpt lat="42.18260424223331" lon="13.272369364494299"><ele>802.0</ele><time>2026-05-02T15:28:48Z</time></trkpt><trkpt lat="42.1826795263557" lon="13.272221297329843"><ele>802.0</ele><time>2026-05-02T15:28:49Z</time></trkpt><trkpt lat="42.18277802628245" lon="13.27207399707338"><ele>802.0</ele><time>2026-05-02T15:28:50Z</time></trkpt><trkpt lat="42.182881824479814" lon="13.271930212452343"><ele>802.0</ele><time>2026-05-02T15:28:51Z</time></trkpt><trkpt lat="42.182963117645166" lon="13.271789188923822"><ele>802.0</ele><time>2026-05-02T15:28:52Z</time></trkpt><trkpt lat="42.183038230585666" lon="13.271648906848142"><ele>802.0</ele><time>2026-05-02T15:28:53Z</time></trkpt><trkpt lat="42.1830910742186" lon="13.271508276173925"><ele>802.0</ele><time>2026-05-02T15:28:54Z</time></trkpt><trkpt lat="42.18313506713754" lon="13.271374062650933"><ele>802.0</ele><time>2026-05-02T15:28:55Z</time></trkpt><trkpt lat="42.18319376281808" lon="13.271213587140368"><ele>802.0</ele><time>2026-05-02T15:28:56Z</time></trkpt><trkpt lat="42.1832829101785" lon="13.271078019005053"><ele>801.6</ele><time>2026-05-02T15:28:57Z</time></trkpt><trkpt lat="42.18336061578859" lon="13.27098148637186"><ele>801.2</ele><time>2026-05-02T15:28:58Z</time></trkpt><trkpt lat="42.183431627338834" lon="13.270943487511142"><ele>800.8</ele><time>2026-05-02T15:28:59Z</time></trkpt><trkpt lat="42.183523953546874" lon="13.270922720159597"><ele>800.4</ele><time>2026-05-02T15:29:00Z</time></trkpt><trkpt lat="42.1836343195686" lon="13.27093023744446"><ele>800.0</ele><time>2026-05-02T15:29:01Z</time></trkpt><trkpt lat="42.18376169760259" lon="13.270937039474456"><ele>800.0</ele><time>2026-05-02T15:29:02Z</time></trkpt><trkpt lat="42.18388762364308" lon="13.270942793312514"><ele>800.0</ele><time>2026-05-02T15:29:03Z</time></trkpt><trkpt lat="42.18400995737836" lon="13.270926026817532"><ele>800.0</ele><time>2026-05-02T15:29:04Z</time></trkpt><trkpt lat="42.18414143919956" lon="13.270907329387452"><ele>800.0</ele><time>2026-05-02T15:29:05Z</time></trkpt><trkpt lat="42.18426628792292" lon="13.270886451697345"><ele>800.0</ele><time>2026-05-02T15:29:06Z</time></trkpt><trkpt lat="42.184375668008066" lon="13.27084604574572"><ele>800.0</ele><time>2026-05-02T15:29:07Z</time></trkpt><trkpt lat="42.18448624457692" lon="13.270768269232748"><ele>800.0</ele><time>2026-05-02T15:29:08Z</time></trkpt><trkpt lat="42.18460186152718" lon="13.270670956984075"><ele>800.0</ele><time>2026-05-02T15:29:09Z</time></trkpt><trkpt lat="42.18471946894067" lon="13.270561804948692"><ele>799.3333333333334</ele><time>2026-05-02T15:29:10Z</time></trkpt><trkpt lat="42.184841362188024" lon="13.270441679711041"><ele>798.6666666666667</ele><time>2026-05-02T15:29:11Z</time></trkpt><trkpt lat="42.18496238370121" lon="13.270315686169038"><ele>798.0</ele><time>2026-05-02T15:29:12Z</time></trkpt><trkpt lat="42.18508358998684" lon="13.270192329723605"><ele>799.3333333333333</ele><time>2026-05-02T15:29:13Z</time></trkpt><trkpt lat="42.185229738312714" lon="13.270056716790036"><ele>800.6666666666666</ele><time>2026-05-02T15:29:14Z</time></trkpt><trkpt lat="42.18536257395173" lon="13.269958317654323"><ele>802.0</ele><time>2026-05-02T15:29:15Z</time></trkpt><trkpt lat="42.18550328984232" lon="13.269862467385693"><ele>801.6666666666666</ele><time>2026-05-02T15:29:16Z</time></trkpt><trkpt lat="42.18564229756736" lon="13.269767003070998"><ele>801.3333333333333</ele><time>2026-05-02T15:29:17Z</time></trkpt><trkpt lat="42.18577364138753" lon="13.269672008306529"><ele>801.0</ele><time>2026-05-02T15:29:18Z</time></trkpt><trkpt lat="42.18591212776936" lon="13.269587733596854"><ele>801.6666666666667</ele><time>2026-05-02T15:29:19Z</time></trkpt><trkpt lat="42.18605488453321" lon="13.269497521618149"><ele>802.3333333333334</ele><time>2026-05-02T15:29:20Z</time></trkpt><trkpt lat="42.186202620543824" lon="13.269400991368757"><ele>803.0</ele><time>2026-05-02T15:29:21Z</time></trkpt><trkpt lat="42.18633077856919" lon="13.26931099039591"><ele>803.0</ele><time>2026-05-02T15:29:22Z</time></trkpt><trkpt lat="42.18645908302891" lon="13.26924328945027"><ele>803.0</ele><time>2026-05-02T15:29:23Z</time></trkpt><trkpt lat="42.18658855291495" lon="13.269179166495"><ele>803.0</ele><time>2026-05-02T15:29:24Z</time></trkpt><trkpt lat="42.18673122946406" lon="13.269102561609303"><ele>803.0</ele><time>2026-05-02T15:29:25Z</time></trkpt><trkpt lat="42.1868409948827" lon="13.269020591714764"><ele>802.75</ele><time>2026-05-02T15:29:26Z</time></trkpt><trkpt lat="42.186951535011495" lon="13.268917285437483"><ele>802.5</ele><time>2026-05-02T15:29:27Z</time></trkpt><trkpt lat="42.18706012734949" lon="13.268802335387347"><ele>802.25</ele><time>2026-05-02T15:29:28Z</time></trkpt><trkpt lat="42.18717895891051" lon="13.268687808670235"><ele>802.0</ele><time>2026-05-02T15:29:29Z</time></trkpt><trkpt lat="42.18728166254042" lon="13.26859968891646"><ele>802.0</ele><time>2026-05-02T15:29:30Z</time></trkpt><trkpt lat="42.18739793914856" lon="13.268504481514826"><ele>802.0</ele><time>2026-05-02T15:29:31Z</time></trkpt><trkpt lat="42.187528362314175" lon="13.268413546703744"><ele>802.0</ele><time>2026-05-02T15:29:32Z</time></trkpt><trkpt lat="42.187651679848194" lon="13.268316743086647"><ele>802.0</ele><time>2026-05-02T15:29:33Z</time></trkpt><trkpt lat="42.18776277538983" lon="13.268224122336358"><ele>802.0</ele><time>2026-05-02T15:29:34Z</time></trkpt><trkpt lat="42.187862819644316" lon="13.268146393201325"><ele>802.0</ele><time>2026-05-02T15:29:35Z</time></trkpt><trkpt lat="42.18795215571599" lon="13.268064375795227"><ele>802.0</ele><time>2026-05-02T15:29:36Z</time></trkpt><trkpt lat="42.18802699533262" lon="13.267990284184801"><ele>802.0</ele><time>2026-05-02T15:29:37Z</time></trkpt><trkpt lat="42.188101851786335" lon="13.267935537372479"><ele>802.0</ele><time>2026-05-02T15:29:38Z</time></trkpt><trkpt lat="42.18818614483767" lon="13.267892174576108"><ele>802.75</ele><time>2026-05-02T15:29:39Z</time></trkpt><trkpt lat="42.188291136652914" lon="13.267858793021377"><ele>803.5</ele><time>2026-05-02T15:29:40Z</time></trkpt><trkpt lat="42.18841708701389" lon="13.267832531331692"><ele>804.25</ele><time>2026-05-02T15:29:41Z</time></trkpt><trkpt lat="42.18854214546886" lon="13.267786015121382"><ele>805.0</ele><time>2026-05-02T15:29:42Z</time></trkpt><trkpt lat="42.18867005174715" lon="13.267732168683736"><ele>805.0</ele><time>2026-05-02T15:29:43Z</time></trkpt><trkpt lat="42.188783130252055" lon="13.267680423889455"><ele>805.0</ele><time>2026-05-02T15:29:44Z</time></trkpt><trkpt lat="42.1888817983546" lon="13.267622053640276"><ele>805.0</ele><time>2026-05-02T15:29:45Z</time></trkpt><trkpt lat="42.188976599876966" lon="13.267532785363903"><ele>805.0</ele><time>2026-05-02T15:29:46Z</time></trkpt><trkpt lat="42.18908242418795" lon="13.267440200674066"><ele>805.25</ele><time>2026-05-02T15:29:47Z</time></trkpt><trkpt lat="42.189201911238456" lon="13.267364056783313"><ele>805.5</ele><time>2026-05-02T15:29:48Z</time></trkpt><trkpt lat="42.189324353435566" lon="13.267278069078985"><ele>805.75</ele><time>2026-05-02T15:29:49Z</time></trkpt><trkpt lat="42.189443851824315" lon="13.267170115974336"><ele>806.0</ele><time>2026-05-02T15:29:50Z</time></trkpt><trkpt lat="42.189562374652674" lon="13.267050808336387"><ele>805.5</ele><time>2026-05-02T15:29:51Z</time></trkpt><trkpt lat="42.18967538066262" lon="13.2669213645483"><ele>805.0</ele><time>2026-05-02T15:29:52Z</time></trkpt><trkpt lat="42.189791771794845" lon="13.266803151590587"><ele>804.5</ele><time>2026-05-02T15:29:53Z</time></trkpt><trkpt lat="42.1899128582094" lon="13.266694732968489"><ele>804.0</ele><time>2026-05-02T15:29:54Z</time></trkpt><trkpt lat="42.19003768494275" lon="13.266614242396862"><ele>804.5</ele><time>2026-05-02T15:29:55Z</time></trkpt><trkpt lat="42.190159542341256" lon="13.266549204551708"><ele>805.0</ele><time>2026-05-02T15:29:56Z</time></trkpt><trkpt lat="42.190274218875686" lon="13.266503896958453"><ele>805.5</ele><time>2026-05-02T15:29:57Z</time></trkpt><trkpt lat="42.190373532308904" lon="13.266439288579795"><ele>806.0</ele><time>2026-05-02T15:29:58Z</time></trkpt><trkpt lat="42.19044629910335" lon="13.266331083001582"><ele>806.0</ele><time>2026-05-02T15:29:59Z</time></trkpt><trkpt lat="42.190529926319286" lon="13.26620839598119"><ele>806.0</ele><time>2026-05-02T15:30:00Z</time></trkpt><trkpt lat="42.19064027915745" lon="13.266106250031875"><ele>806.0</ele><time>2026-05-02T15:30:01Z</time></trkpt><trkpt lat="42.19075941541015" lon="13.265991390105341"><ele>806.0</ele><time>2026-05-02T15:30:02Z</time></trkpt><trkpt lat="42.19087257381175" lon="13.265856207742038"><ele>806.25</ele><time>2026-05-02T15:30:03Z</time></trkpt><trkpt lat="42.190970985909644" lon="13.265716391936518"><ele>806.5</ele><time>2026-05-02T15:30:04Z</time></trkpt><trkpt lat="42.19107109491654" lon="13.265574818922063"><ele>806.75</ele><time>2026-05-02T15:30:05Z</time></trkpt><trkpt lat="42.19117811022391" lon="13.265434129941017"><ele>807.0</ele><time>2026-05-02T15:30:06Z</time></trkpt><trkpt lat="42.191291191809185" lon="13.265317889222251"><ele>807.0</ele><time>2026-05-02T15:30:07Z</time></trkpt><trkpt lat="42.19140139220853" lon="13.265194765196552"><ele>807.0</ele><time>2026-05-02T15:30:08Z</time></trkpt><trkpt lat="42.191485809746574" lon="13.26504222898641"><ele>807.0</ele><time>2026-05-02T15:30:09Z</time></trkpt><trkpt lat="42.191577065991645" lon="13.264872048169735"><ele>807.0</ele><time>2026-05-02T15:30:10Z</time></trkpt><trkpt lat="42.19166806009201" lon="13.2647329253806"><ele>807.5</ele><time>2026-05-02T15:30:11Z</time></trkpt><trkpt lat="42.191774668353716" lon="13.264659863388877"><ele>808.0</ele><time>2026-05-02T15:30:12Z</time></trkpt><trkpt lat="42.19187814685694" lon="13.26455907579213"><ele>808.5</ele><time>2026-05-02T15:30:13Z</time></trkpt><trkpt lat="42.19201796846344" lon="13.26446909658566"><ele>809.0</ele><time>2026-05-02T15:30:14Z</time></trkpt><trkpt lat="42.1921543871825" lon="13.264405922842581"><ele>809.0</ele><time>2026-05-02T15:30:15Z</time></trkpt><trkpt lat="42.19228144570961" lon="13.264324230067745"><ele>809.0</ele><time>2026-05-02T15:30:16Z</time></trkpt><trkpt lat="42.192414410335886" lon="13.264270146661415"><ele>809.0</ele><time>2026-05-02T15:30:17Z</time></trkpt><trkpt lat="42.19256677649123" lon="13.264199486682477"><ele>809.0</ele><time>2026-05-02T15:30:18Z</time></trkpt><trkpt lat="42.192704734398355" lon="13.264112464982428"><ele>810.3333333333334</ele><time>2026-05-02T15:30:19Z</time></trkpt><trkpt lat="42.192842331111606" lon="13.264020186285038"><ele>811.6666666666667</ele><time>2026-05-02T15:30:20Z</time></trkpt><trkpt lat="42.19298548880188" lon="13.26394648721469"><ele>813.0</ele><time>2026-05-02T15:30:21Z</time></trkpt><trkpt lat="42.193122271064176" lon="13.263873221681111"><ele>813.3333333333333</ele><time>2026-05-02T15:30:22Z</time></trkpt><trkpt lat="42.193265938183806" lon="13.263783161637326"><ele>813.6666666666666</ele><time>2026-05-02T15:30:23Z</time></trkpt><trkpt lat="42.19339584924927" lon="13.26368368157584"><ele>814.0</ele><time>2026-05-02T15:30:24Z</time></trkpt><trkpt lat="42.19353362625892" lon="13.263560766860655"><ele>814.0</ele><time>2026-05-02T15:30:25Z</time></trkpt><trkpt lat="42.1936727250204" lon="13.263444910877832"><ele>814.0</ele><time>2026-05-02T15:30:26Z</time></trkpt><trkpt lat="42.19379940835133" lon="13.263322544183819"><ele>814.0</ele><time>2026-05-02T15:30:27Z</time></trkpt><trkpt lat="42.19392953344998" lon="13.263223940854818"><ele>814.25</ele><time>2026-05-02T15:30:28Z</time></trkpt><trkpt lat="42.194048106438075" lon="13.263142423926269"><ele>814.5</ele><time>2026-05-02T15:30:29Z</time></trkpt><trkpt lat="42.19415261657219" lon="13.263069701816354"><ele>814.75</ele><time>2026-05-02T15:30:30Z</time></trkpt><trkpt lat="42.19423610585518" lon="13.263010242012879"><ele>815.0</ele><time>2026-05-02T15:30:31Z</time></trkpt><trkpt lat="42.194341048107944" lon="13.262988504850075"><ele>815.0</ele><time>2026-05-02T15:30:32Z</time></trkpt><trkpt lat="42.194441565728255" lon="13.262965795343739"><ele>815.0</ele><time>2026-05-02T15:30:33Z</time></trkpt><trkpt lat="42.19457070352576" lon="13.262953111218023"><ele>815.0</ele><time>2026-05-02T15:30:34Z</time></trkpt><trkpt lat="42.19469371207294" lon="13.262907737245932"><ele>815.0</ele><time>2026-05-02T15:30:35Z</time></trkpt><trkpt lat="42.19481424532657" lon="13.262849720655229"><ele>815.0</ele><time>2026-05-02T15:30:36Z</time></trkpt><trkpt lat="42.194920805368575" lon="13.262827242679421"><ele>815.0</ele><time>2026-05-02T15:30:37Z</time></trkpt><trkpt lat="42.19501852935651" lon="13.262835237690139"><ele>815.0</ele><time>2026-05-02T15:30:38Z</time></trkpt><trkpt lat="42.195115860161536" lon="13.262868580942396"><ele>815.0</ele><time>2026-05-02T15:30:39Z</time></trkpt><trkpt lat="42.19521816075487" lon="13.262923941898734"><ele>815.0</ele><time>2026-05-02T15:30:40Z</time></trkpt><trkpt lat="42.195310723541596" lon="13.262969005536156"><ele>815.0</ele><time>2026-05-02T15:30:41Z</time></trkpt><trkpt lat="42.19537688921122" lon="13.263001243816065"><ele>815.0</ele><time>2026-05-02T15:30:42Z</time></trkpt><trkpt lat="42.19547749103581" lon="13.262946304608397"><ele>815.0</ele><time>2026-05-02T15:30:44Z</time></trkpt><trkpt lat="42.195530529713196" lon="13.262860927382107"><ele>815.0</ele><time>2026-05-02T15:30:45Z</time></trkpt><trkpt lat="42.19558466700874" lon="13.262747606888123"><ele>815.0</ele><time>2026-05-02T15:30:46Z</time></trkpt><trkpt lat="42.195632083305114" lon="13.26260909555487"><ele>815.0</ele><time>2026-05-02T15:30:47Z</time></trkpt><trkpt lat="42.19568983808122" lon="13.262438379512108"><ele>815.0</ele><time>2026-05-02T15:30:48Z</time></trkpt><trkpt lat="42.19574654434133" lon="13.262268303242257"><ele>815.0</ele><time>2026-05-02T15:30:49Z</time></trkpt><trkpt lat="42.19581139855368" lon="13.262097892017463"><ele>815.0</ele><time>2026-05-02T15:30:50Z</time></trkpt><trkpt lat="42.19588385952632" lon="13.261945234167994"><ele>815.0</ele><time>2026-05-02T15:30:51Z</time></trkpt><trkpt lat="42.195955012779415" lon="13.261774594267331"><ele>815.0</ele><time>2026-05-02T15:30:52Z</time></trkpt><trkpt lat="42.196008712961856" lon="13.261582940405695"><ele>815.0</ele><time>2026-05-02T15:30:53Z</time></trkpt><trkpt lat="42.196055053044546" lon="13.261409888415713"><ele>815.0</ele><time>2026-05-02T15:30:54Z</time></trkpt><trkpt lat="42.196109096465726" lon="13.261258923849288"><ele>814.75</ele><time>2026-05-02T15:30:55Z</time></trkpt><trkpt lat="42.19615707963806" lon="13.261095857771279"><ele>814.5</ele><time>2026-05-02T15:30:55.999Z</time></trkpt><trkpt lat="42.19618943160174" lon="13.26091295566358"><ele>814.25</ele><time>2026-05-02T15:30:56.999Z</time></trkpt><trkpt lat="42.19621378886741" lon="13.260735235008747"><ele>814.0</ele><time>2026-05-02T15:30:57.999Z</time></trkpt><trkpt lat="42.196241813011056" lon="13.260576940061295"><ele>813.4000000000001</ele><time>2026-05-02T15:30:58.999Z</time></trkpt><trkpt lat="42.196288124735894" lon="13.260449429308748"><ele>812.8</ele><time>2026-05-02T15:30:59.999Z</time></trkpt><trkpt lat="42.196342717725166" lon="13.260366683269574"><ele>812.2</ele><time>2026-05-02T15:31:01Z</time></trkpt><trkpt lat="42.19642193957211" lon="13.260386165605237"><ele>811.5999999999999</ele><time>2026-05-02T15:31:02Z</time></trkpt><trkpt lat="42.19656103516178" lon="13.260353584459637"><ele>811.0</ele><time>2026-05-02T15:31:05Z</time></trkpt><trkpt lat="42.19664868586169" lon="13.260340496694294"><ele>810.5</ele><time>2026-05-02T15:31:06Z</time></trkpt><trkpt lat="42.19675427711047" lon="13.260356097219397"><ele>810.0</ele><time>2026-05-02T15:31:07Z</time></trkpt><trkpt lat="42.19687667746034" lon="13.260346093781763"><ele>809.5</ele><time>2026-05-02T15:31:08Z</time></trkpt><trkpt lat="42.19700112630062" lon="13.260294191813923"><ele>809.0</ele><time>2026-05-02T15:31:09Z</time></trkpt><trkpt lat="42.197121898508776" lon="13.260249765904048"><ele>809.0</ele><time>2026-05-02T15:31:10Z</time></trkpt><trkpt lat="42.197225654404356" lon="13.260211298806722"><ele>809.0</ele><time>2026-05-02T15:31:11Z</time></trkpt><trkpt lat="42.19733290454579" lon="13.26017378437467"><ele>809.0</ele><time>2026-05-02T15:31:12Z</time></trkpt><trkpt lat="42.19744646846752" lon="13.260110015878736"><ele>809.0</ele><time>2026-05-02T15:31:13Z</time></trkpt><trkpt lat="42.19755050581181" lon="13.260030534924114"><ele>808.8000000000001</ele><time>2026-05-02T15:31:14Z</time></trkpt><trkpt lat="42.19763888789841" lon="13.259955869617206"><ele>808.6</ele><time>2026-05-02T15:31:15Z</time></trkpt><trkpt lat="42.19771584145805" lon="13.259884485737444"><ele>808.4</ele><time>2026-05-02T15:31:16Z</time></trkpt><trkpt lat="42.197791271093635" lon="13.259807189922247"><ele>808.2</ele><time>2026-05-02T15:31:17Z</time></trkpt><trkpt lat="42.19786672885478" lon="13.259724705268924"><ele>808.0</ele><time>2026-05-02T15:31:18Z</time></trkpt><trkpt lat="42.19794457321633" lon="13.259647138638234"><ele>808.0</ele><time>2026-05-02T15:31:19Z</time></trkpt><trkpt lat="42.19801680682364" lon="13.259578620611036"><ele>808.0</ele><time>2026-05-02T15:31:20Z</time></trkpt><trkpt lat="42.19807593638454" lon="13.25953052252069"><ele>808.0</ele><time>2026-05-02T15:31:21Z</time></trkpt><trkpt lat="42.19812703839844" lon="13.259478120383655"><ele>808.0</ele><time>2026-05-02T15:31:22Z</time></trkpt><trkpt lat="42.19821869192458" lon="13.259415387325049"><ele>808.0</ele><time>2026-05-02T15:31:24Z</time></trkpt><trkpt lat="42.198344570647954" lon="13.259428410545876"><ele>809.0</ele><time>2026-05-02T15:31:26Z</time></trkpt><trkpt lat="42.198440004498174" lon="13.259427938811033"><ele>810.0</ele><time>2026-05-02T15:31:27Z</time></trkpt><trkpt lat="42.19854278716653" lon="13.259429664716924"><ele>811.0</ele><time>2026-05-02T15:31:28Z</time></trkpt><trkpt lat="42.19863321099702" lon="13.259399621797215"><ele>812.0</ele><time>2026-05-02T15:31:29Z</time></trkpt><trkpt lat="42.19872679888227" lon="13.2593501471347"><ele>813.0</ele><time>2026-05-02T15:31:30Z</time></trkpt><trkpt lat="42.1988409290335" lon="13.259283588771378"><ele>813.0</ele><time>2026-05-02T15:31:31Z</time></trkpt><trkpt lat="42.19896249730809" lon="13.25920738337489"><ele>813.0</ele><time>2026-05-02T15:31:32Z</time></trkpt><trkpt lat="42.1990700927319" lon="13.25913360351568"><ele>813.0</ele><time>2026-05-02T15:31:33Z</time></trkpt><trkpt lat="42.19917545859065" lon="13.259059314351504"><ele>813.0</ele><time>2026-05-02T15:31:34Z</time></trkpt><trkpt lat="42.199276649162634" lon="13.259000646092332"><ele>813.5999999999999</ele><time>2026-05-02T15:31:35Z</time></trkpt><trkpt lat="42.19936846942201" lon="13.258996811957475"><ele>814.1999999999999</ele><time>2026-05-02T15:31:36Z</time></trkpt><trkpt lat="42.19947219949946" lon="13.259021207707185"><ele>814.8</ele><time>2026-05-02T15:31:37Z</time></trkpt><trkpt lat="42.19959058391813" lon="13.259050506632068"><ele>815.4</ele><time>2026-05-02T15:31:38Z</time></trkpt><trkpt lat="42.19968302964967" lon="13.259105274436795"><ele>816.0</ele><time>2026-05-02T15:31:39Z</time></trkpt><trkpt lat="42.19975600367635" lon="13.259164157322678"><ele>815.75</ele><time>2026-05-02T15:31:40Z</time></trkpt><trkpt lat="42.199838145507876" lon="13.259250041310708"><ele>815.5</ele><time>2026-05-02T15:31:42Z</time></trkpt><trkpt lat="42.1999004245738" lon="13.25901688087065"><ele>815.25</ele><time>2026-05-02T15:31:46Z</time></trkpt><trkpt lat="42.19985466206953" lon="13.258880984704893"><ele>815.0</ele><time>2026-05-02T15:31:48Z</time></trkpt><trkpt lat="42.199824490689544" lon="13.25879003043134"><ele>815.0000000000001</ele><time>2026-05-02T15:31:49Z</time></trkpt><trkpt lat="42.199792211392904" lon="13.258676014417432"><ele>815.0</ele><time>2026-05-02T15:31:50Z</time></trkpt><trkpt lat="42.19975326425978" lon="13.258557729812626"><ele>815.0</ele><time>2026-05-02T15:31:51Z</time></trkpt><trkpt lat="42.19971700886495" lon="13.258454823229334"><ele>815.0</ele><time>2026-05-02T15:31:52Z</time></trkpt><trkpt lat="42.19970042591765" lon="13.258349930142463"><ele>815.0000000000001</ele><time>2026-05-02T15:31:53Z</time></trkpt><trkpt lat="42.199672366703325" lon="13.258256801178678"><ele>815.0</ele><time>2026-05-02T15:31:54Z</time></trkpt><trkpt lat="42.1996416234439" lon="13.258172373103214"><ele>815.4</ele><time>2026-05-02T15:31:55Z</time></trkpt><trkpt lat="42.199603333231366" lon="13.258051667865328"><ele>815.8</ele><time>2026-05-02T15:31:57Z</time></trkpt><trkpt lat="42.199565742465865" lon="13.257943757640483"><ele>816.2</ele><time>2026-05-02T15:32:12Z</time></trkpt><trkpt lat="42.199601482621155" lon="13.257743273928922"><ele>816.6</ele><time>2026-05-02T15:32:14Z</time></trkpt><trkpt lat="42.199629451397556" lon="13.257615433189887"><ele>817.0</ele><time>2026-05-02T15:32:15Z</time></trkpt><trkpt lat="42.19965509191313" lon="13.257457023868062"><ele>816.9999999999999</ele><time>2026-05-02T15:32:16Z</time></trkpt><trkpt lat="42.19971350717145" lon="13.257327524248495"><ele>817.0</ele><time>2026-05-02T15:32:17Z</time></trkpt><trkpt lat="42.19974610899147" lon="13.2572229306239"><ele>817.0</ele><time>2026-05-02T15:32:18Z</time></trkpt><trkpt lat="42.1998444966513" lon="13.257221517926716"><ele>817.0</ele><time>2026-05-02T15:32:19Z</time></trkpt><trkpt lat="42.19990521961052" lon="13.257154281265812"><ele>816.9999999999999</ele><time>2026-05-02T15:32:20Z</time></trkpt><trkpt lat="42.19997234405966" lon="13.257158412965207"><ele>817.0</ele><time>2026-05-02T15:32:21Z</time></trkpt><trkpt lat="42.199997352736396" lon="13.257327742852898"><ele>818.6</ele><time>2026-05-02T15:32:22Z</time></trkpt><trkpt lat="42.200067957618096" lon="13.257367831606228"><ele>820.2</ele><time>2026-05-02T15:32:23Z</time></trkpt><trkpt lat="42.20014473909211" lon="13.257413545623008"><ele>821.8</ele><time>2026-05-02T15:32:24Z</time></trkpt><trkpt lat="42.20022218312532" lon="13.25745959814243"><ele>823.4</ele><time>2026-05-02T15:32:26Z</time></trkpt><trkpt lat="42.20024367052185" lon="13.257252520658513"><ele>825.0</ele><time>2026-05-02T15:32:33Z</time></trkpt><trkpt lat="42.20016305315481" lon="13.257246684997625"><ele>824.5</ele><time>2026-05-02T15:32:35Z</time></trkpt><trkpt lat="42.20010042845392" lon="13.257228455362934"><ele>824.0</ele><time>2026-05-02T15:32:38Z</time></trkpt><trkpt lat="42.20002478172257" lon="13.257208354868794"><ele>823.5</ele><time>2026-05-02T15:32:41Z</time></trkpt><trkpt lat="42.199948114111535" lon="13.257178920236107"><ele>823.0</ele><time>2026-05-02T15:32:43Z</time></trkpt><trkpt lat="42.19987008650668" lon="13.257146372872242"><ele>822.5</ele><time>2026-05-02T15:32:45Z</time></trkpt><trkpt lat="42.199819388254966" lon="13.257035580785574"><ele>822.0</ele><time>2026-05-02T15:32:47Z</time></trkpt><trkpt lat="42.19973685922944" lon="13.256937287483144"><ele>822.0</ele><time>2026-05-02T15:32:49Z</time></trkpt><trkpt lat="42.19968429881966" lon="13.256826923884176"><ele>822.0</ele><time>2026-05-02T15:32:51Z</time></trkpt><trkpt lat="42.1996401217269" lon="13.256729066153065"><ele>822.0</ele><time>2026-05-02T15:32:54Z</time></trkpt><trkpt lat="42.199700572885575" lon="13.25665450719658"><ele>822.0</ele><time>2026-05-02T15:32:57Z</time></trkpt><trkpt lat="42.19975201485662" lon="13.256707811359723"><ele>822.0</ele><time>2026-05-02T15:32:58Z</time></trkpt><trkpt lat="42.19979873975302" lon="13.256770934789406"><ele>822.0</ele><time>2026-05-02T15:32:58.999Z</time></trkpt><trkpt lat="42.19989964258278" lon="13.256837730143637"><ele>825.0</ele><time>2026-05-02T15:33:00.999Z</time></trkpt><trkpt lat="42.200012887834674" lon="13.256906590513145"><ele>828.0</ele><time>2026-05-02T15:33:02.999Z</time></trkpt><trkpt lat="42.20009458988106" lon="13.256926165177786"><ele>831.0</ele><time>2026-05-02T15:33:03.999Z</time></trkpt><trkpt lat="42.200192486303116" lon="13.256953529291868"><ele>834.0</ele><time>2026-05-02T15:33:04.999Z</time></trkpt><trkpt lat="42.20030620335972" lon="13.25696788026753"><ele>837.0</ele><time>2026-05-02T15:33:05.999Z</time></trkpt><trkpt lat="42.20042304890475" lon="13.256987454284026"><ele>837.0</ele><time>2026-05-02T15:33:07Z</time></trkpt><trkpt lat="42.20053502821582" lon="13.257004001966212"><ele>837.0</ele><time>2026-05-02T15:33:08Z</time></trkpt><trkpt lat="42.20064518434218" lon="13.25702098404085"><ele>837.0</ele><time>2026-05-02T15:33:09Z</time></trkpt><trkpt lat="42.20074899519547" lon="13.257031811447042"><ele>837.0</ele><time>2026-05-02T15:33:10Z</time></trkpt><trkpt lat="42.200837307509666" lon="13.257073160576068"><ele>837.0</ele><time>2026-05-02T15:33:11Z</time></trkpt><trkpt lat="42.20091189613743" lon="13.257071275800383"><ele>837.0</ele><time>2026-05-02T15:33:12Z</time></trkpt><trkpt lat="42.20097891879039" lon="13.257104781232378"><ele>837.0</ele><time>2026-05-02T15:33:13Z</time></trkpt><trkpt lat="42.20103693162184" lon="13.257155305849603"><ele>837.0</ele><time>2026-05-02T15:33:14Z</time></trkpt><trkpt lat="42.20106517924852" lon="13.257237539244917"><ele>837.0</ele><time>2026-05-02T15:33:15Z</time></trkpt><trkpt lat="42.20112034546959" lon="13.257293261249464"><ele>837.0</ele><time>2026-05-02T15:33:16Z</time></trkpt><trkpt lat="42.20123969853958" lon="13.257248682777758"><ele>837.0</ele><time>2026-05-02T15:33:17Z</time></trkpt><trkpt lat="42.20132797172919" lon="13.25726923634964"><ele>837.0</ele><time>2026-05-02T15:33:18Z</time></trkpt><trkpt lat="42.20142594594466" lon="13.257319422428077"><ele>837.0</ele><time>2026-05-02T15:33:19Z</time></trkpt><trkpt lat="42.20152641209739" lon="13.25732273518305"><ele>837.0</ele><time>2026-05-02T15:33:20Z</time></trkpt><trkpt lat="42.20161450258785" lon="13.257342384489458"><ele>837.0</ele><time>2026-05-02T15:33:21Z</time></trkpt><trkpt lat="42.20170383486189" lon="13.25734151419236"><ele>837.0</ele><time>2026-05-02T15:33:22Z</time></trkpt><trkpt lat="42.20180586907361" lon="13.25735114155702"><ele>838.8333333333334</ele><time>2026-05-02T15:33:23Z</time></trkpt><trkpt lat="42.20189066435234" lon="13.25740291309885"><ele>840.6666666666667</ele><time>2026-05-02T15:33:24Z</time></trkpt><trkpt lat="42.20198236416988" lon="13.257422082875136"><ele>842.5</ele><time>2026-05-02T15:33:25Z</time></trkpt><trkpt lat="42.20205438194828" lon="13.257436066430554"><ele>844.3333333333334</ele><time>2026-05-02T15:33:26Z</time></trkpt><trkpt lat="42.202131341846695" lon="13.257445327327675"><ele>846.1666666666667</ele><time>2026-05-02T15:33:36Z</time></trkpt><trkpt lat="42.202027081651266" lon="13.257478879625362"><ele>848.0</ele><time>2026-05-02T15:33:54Z</time></trkpt><trkpt lat="42.201930727146284" lon="13.257350275077714"><ele>848.0000000000001</ele><time>2026-05-02T15:33:55Z</time></trkpt><trkpt lat="42.20184883231858" lon="13.257351291316875"><ele>848.0</ele><time>2026-05-02T15:33:56Z</time></trkpt><trkpt lat="42.201763254551196" lon="13.257338700439862"><ele>848.0</ele><time>2026-05-02T15:33:57Z</time></trkpt><trkpt lat="42.201678989685554" lon="13.257301347775298"><ele>848.0</ele><time>2026-05-02T15:33:58Z</time></trkpt><trkpt lat="42.201595093621854" lon="13.257322269147277"><ele>848.0000000000001</ele><time>2026-05-02T15:33:59Z</time></trkpt><trkpt lat="42.20151241144919" lon="13.257320223782544"><ele>848.0</ele><time>2026-05-02T15:34:00Z</time></trkpt><trkpt lat="42.20144313884729" lon="13.257283322772874"><ele>848.8333333333334</ele><time>2026-05-02T15:34:01Z</time></trkpt><trkpt lat="42.20137617489944" lon="13.257253964761707"><ele>849.6666666666667</ele><time>2026-05-02T15:34:02Z</time></trkpt><trkpt lat="42.20129639289997" lon="13.257249089377174"><ele>850.5</ele><time>2026-05-02T15:34:03Z</time></trkpt><trkpt lat="42.201230315100716" lon="13.257222885354693"><ele>851.3333333333333</ele><time>2026-05-02T15:34:04Z</time></trkpt><trkpt lat="42.20113268699222" lon="13.257202260555756"><ele>852.1666666666666</ele><time>2026-05-02T15:34:06Z</time></trkpt><trkpt lat="42.20107535699703" lon="13.257163917513731"><ele>853.0</ele><time>2026-05-02T15:34:34Z</time></trkpt><trkpt lat="42.20099578851341" lon="13.257138511649028"><ele>852.9999999999999</ele><time>2026-05-02T15:34:36Z</time></trkpt><trkpt lat="42.200925161038036" lon="13.25703934791312"><ele>853.0</ele><time>2026-05-02T15:34:38Z</time></trkpt><trkpt lat="42.20084245503652" lon="13.257028533664238"><ele>853.0</ele><time>2026-05-02T15:34:39Z</time></trkpt><trkpt lat="42.20077536875716" lon="13.257014034171373"><ele>853.0</ele><time>2026-05-02T15:34:40Z</time></trkpt><trkpt lat="42.200677134918585" lon="13.256996244869761"><ele>852.9999999999999</ele><time>2026-05-02T15:34:42Z</time></trkpt><trkpt lat="42.20058746006659" lon="13.256980900216076"><ele>853.0</ele><time>2026-05-02T15:34:44Z</time></trkpt><trkpt lat="42.200522138623604" lon="13.256990435423232"><ele>850.7142857142857</ele><time>2026-05-02T15:34:49Z</time></trkpt><trkpt lat="42.200449821961804" lon="13.256979955357027"><ele>848.4285714285714</ele><time>2026-05-02T15:34:51Z</time></trkpt><trkpt lat="42.20038398656447" lon="13.2569463435947"><ele>846.1428571428571</ele><time>2026-05-02T15:34:52Z</time></trkpt><trkpt lat="42.200318484675144" lon="13.256935219192565"><ele>843.8571428571429</ele><time>2026-05-02T15:34:53Z</time></trkpt><trkpt lat="42.20025291556637" lon="13.256936125398813"><ele>841.5714285714287</ele><time>2026-05-02T15:34:55Z</time></trkpt><trkpt lat="42.20032474292229" lon="13.256936282045718"><ele>839.2857142857143</ele><time>2026-05-02T15:35:03.999Z</time></trkpt><trkpt lat="42.20039396891594" lon="13.256948038846444"><ele>837.0</ele><time>2026-05-02T15:35:04.999Z</time></trkpt><trkpt lat="42.20047360205359" lon="13.256961563393153"><ele>837.0</ele><time>2026-05-02T15:35:05.999Z</time></trkpt><trkpt lat="42.200546107921504" lon="13.256973877310738"><ele>837.0</ele><time>2026-05-02T15:35:06.999Z</time></trkpt><trkpt lat="42.200670204757564" lon="13.256994953207588"><ele>837.0</ele><time>2026-05-02T15:35:08.999Z</time></trkpt><trkpt lat="42.200774610973326" lon="13.257013648271718"><ele>837.0</ele><time>2026-05-02T15:35:10.999Z</time></trkpt><trkpt lat="42.2008443727773" lon="13.257029329322963"><ele>837.0</ele><time>2026-05-02T15:35:14Z</time></trkpt><trkpt lat="42.20075692948614" lon="13.257019440002423"><ele>837.0</ele><time>2026-05-02T15:36:33Z</time></trkpt><trkpt lat="42.20063926360803" lon="13.257010933641846"><ele>837.0</ele><time>2026-05-02T15:36:35Z</time></trkpt><trkpt lat="42.20056216206953" lon="13.256976603768175"><ele>837.0</ele><time>2026-05-02T15:36:36Z</time></trkpt><trkpt lat="42.200482898847135" lon="13.256963142224674"><ele>837.0</ele><time>2026-05-02T15:36:37Z</time></trkpt><trkpt lat="42.20039288807172" lon="13.256947855382776"><ele>837.0</ele><time>2026-05-02T15:36:38Z</time></trkpt><trkpt lat="42.20030274529591" lon="13.256932546118295"><ele>837.0</ele><time>2026-05-02T15:36:39Z</time></trkpt><trkpt lat="42.200209901938976" lon="13.256916019839661"><ele>837.0</ele><time>2026-05-02T15:36:40Z</time></trkpt><trkpt lat="42.20012334562336" lon="13.256898192802218"><ele>837.0</ele><time>2026-05-02T15:36:41Z</time></trkpt><trkpt lat="42.20004989561442" lon="13.256879545512238"><ele>837.0</ele><time>2026-05-02T15:36:42Z</time></trkpt><trkpt lat="42.19998447737781" lon="13.256857011355676"><ele>837.0</ele><time>2026-05-02T15:36:43Z</time></trkpt><trkpt lat="42.199919456068564" lon="13.256823789271763"><ele>837.0</ele><time>2026-05-02T15:36:44Z</time></trkpt><trkpt lat="42.199847846785126" lon="13.256778938050136"><ele>834.5</ele><time>2026-05-02T15:36:45Z</time></trkpt><trkpt lat="42.19977644405255" lon="13.256708078561308"><ele>832.0</ele><time>2026-05-02T15:36:46Z</time></trkpt><trkpt lat="42.199714913022554" lon="13.256655709293833"><ele>829.5</ele><time>2026-05-02T15:36:47Z</time></trkpt><trkpt lat="42.19965721112608" lon="13.256617985211777"><ele>827.0</ele><time>2026-05-02T15:36:49Z</time></trkpt><trkpt lat="42.19960050194706" lon="13.256723542884783"><ele>824.5</ele><time>2026-05-02T15:36:50Z</time></trkpt><trkpt lat="42.19966110351221" lon="13.256859279784873"><ele>822.0</ele><time>2026-05-02T15:36:52Z</time></trkpt><trkpt lat="42.199711872334525" lon="13.25693920440941"><ele>822.0</ele><time>2026-05-02T15:36:53Z</time></trkpt><trkpt lat="42.199772263984826" lon="13.257032510434296"><ele>822.0</ele><time>2026-05-02T15:36:54Z</time></trkpt><trkpt lat="42.19982465261109" lon="13.257107843083837"><ele>822.0</ele><time>2026-05-02T15:36:55Z</time></trkpt><trkpt lat="42.199878273817596" lon="13.25718447749732"><ele>822.0</ele><time>2026-05-02T15:36:57Z</time></trkpt><trkpt lat="42.19972462796487" lon="13.257282471422128"><ele>822.0</ele><time>2026-05-02T15:37:00Z</time></trkpt><trkpt lat="42.199655742315436" lon="13.257352645243536"><ele>821.1666666666666</ele><time>2026-05-02T15:37:01Z</time></trkpt><trkpt lat="42.19962899465679" lon="13.257482840299275"><ele>820.3333333333333</ele><time>2026-05-02T15:37:02Z</time></trkpt><trkpt lat="42.19959827410555" lon="13.257599686027126"><ele>819.5</ele><time>2026-05-02T15:37:03Z</time></trkpt><trkpt lat="42.19957552764203" lon="13.257703221104775"><ele>818.6666666666666</ele><time>2026-05-02T15:37:04Z</time></trkpt><trkpt lat="42.199547641258924" lon="13.257829791660766"><ele>817.8333333333333</ele><time>2026-05-02T15:37:06Z</time></trkpt><trkpt lat="42.19950715141671" lon="13.257904951002585"><ele>817.0</ele><time>2026-05-02T15:38:26Z</time></trkpt><trkpt lat="42.19942276813641" lon="13.25784516395454"><ele>817.0</ele><time>2026-05-02T15:38:27Z</time></trkpt><trkpt lat="42.19936737892939" lon="13.257761075858303"><ele>817.0</ele><time>2026-05-02T15:38:28Z</time></trkpt><trkpt lat="42.19929020411071" lon="13.257655316316383"><ele>817.0</ele><time>2026-05-02T15:38:29Z</time></trkpt><trkpt lat="42.199200945636825" lon="13.257547982332325"><ele>817.0</ele><time>2026-05-02T15:38:30Z</time></trkpt><trkpt lat="42.19908608975115" lon="13.257421792849435"><ele>817.3333333333333</ele><time>2026-05-02T15:38:31Z</time></trkpt><trkpt lat="42.19895756971252" lon="13.257282187640845"><ele>817.6666666666667</ele><time>2026-05-02T15:38:32Z</time></trkpt><trkpt lat="42.198830502380474" lon="13.25714503331983"><ele>818.0</ele><time>2026-05-02T15:38:33Z</time></trkpt><trkpt lat="42.19869482628427" lon="13.257003887216035"><ele>818.0</ele><time>2026-05-02T15:38:34Z</time></trkpt><trkpt lat="42.19854358102223" lon="13.256850221555505"><ele>818.0</ele><time>2026-05-02T15:38:35Z</time></trkpt><trkpt lat="42.19838998665806" lon="13.256699218108832"><ele>818.0</ele><time>2026-05-02T15:38:36Z</time></trkpt><trkpt lat="42.198238123229146" lon="13.256549012660864"><ele>817.3333333333334</ele><time>2026-05-02T15:38:37Z</time></trkpt><trkpt lat="42.19809219373463" lon="13.25640566721237"><ele>816.6666666666667</ele><time>2026-05-02T15:38:38Z</time></trkpt><trkpt lat="42.19795790463276" lon="13.25627817709875"><ele>816.0</ele><time>2026-05-02T15:38:39Z</time></trkpt><trkpt lat="42.19783935977703" lon="13.256162619028668"><ele>816.0</ele><time>2026-05-02T15:38:40Z</time></trkpt><trkpt lat="42.197735180120254" lon="13.256042890099556"><ele>816.0</ele><time>2026-05-02T15:38:41Z</time></trkpt><trkpt lat="42.197659042388516" lon="13.255910100649134"><ele>816.0</ele><time>2026-05-02T15:38:42Z</time></trkpt><trkpt lat="42.19761466402467" lon="13.255747775114436"><ele>816.0</ele><time>2026-05-02T15:38:43Z</time></trkpt><trkpt lat="42.197589202800415" lon="13.255555487862269"><ele>818.3333333333333</ele><time>2026-05-02T15:38:44Z</time></trkpt><trkpt lat="42.197563207657645" lon="13.255348571096546"><ele>820.6666666666666</ele><time>2026-05-02T15:38:45Z</time></trkpt><trkpt lat="42.19751266940542" lon="13.25513476584041"><ele>823.0</ele><time>2026-05-02T15:38:46Z</time></trkpt><trkpt lat="42.197441863141975" lon="13.254928580265789"><ele>821.0</ele><time>2026-05-02T15:38:47Z</time></trkpt><trkpt lat="42.19735657041851" lon="13.25473614570526"><ele>819.0</ele><time>2026-05-02T15:38:48Z</time></trkpt><trkpt lat="42.1972519958473" lon="13.25454584534544"><ele>817.0</ele><time>2026-05-02T15:38:49Z</time></trkpt><trkpt lat="42.19712806572034" lon="13.25437045168279"><ele>817.0</ele><time>2026-05-02T15:38:50Z</time></trkpt><trkpt lat="42.196986262904126" lon="13.25420507165232"><ele>817.0</ele><time>2026-05-02T15:38:51Z</time></trkpt><trkpt lat="42.196828213326505" lon="13.254048843835092"><ele>817.0</ele><time>2026-05-02T15:38:52Z</time></trkpt><trkpt lat="42.19666596973339" lon="13.253894158230446"><ele>815.6666666666666</ele><time>2026-05-02T15:38:53Z</time></trkpt><trkpt lat="42.196502228924594" lon="13.253740829760456"><ele>814.3333333333333</ele><time>2026-05-02T15:38:54Z</time></trkpt><trkpt lat="42.196336476579745" lon="13.253586861743742"><ele>813.0</ele><time>2026-05-02T15:38:55Z</time></trkpt><trkpt lat="42.19617681401673" lon="13.25343126231679"><ele>813.0</ele><time>2026-05-02T15:38:56Z</time></trkpt><trkpt lat="42.19602478993348" lon="13.253285955253507"><ele>813.0</ele><time>2026-05-02T15:38:57Z</time></trkpt><trkpt lat="42.19588583435781" lon="13.253151115479417"><ele>813.0</ele><time>2026-05-02T15:38:58Z</time></trkpt><trkpt lat="42.195744393813115" lon="13.253005031435777"><ele>811.3333333333333</ele><time>2026-05-02T15:38:59Z</time></trkpt><trkpt lat="42.19561098945177" lon="13.252866951849837"><ele>809.6666666666666</ele><time>2026-05-02T15:39:00Z</time></trkpt><trkpt lat="42.19548129520321" lon="13.252740962709186"><ele>808.0</ele><time>2026-05-02T15:39:01Z</time></trkpt><trkpt lat="42.19537192658746" lon="13.252620776978688"><ele>808.0</ele><time>2026-05-02T15:39:02Z</time></trkpt><trkpt lat="42.19527715300175" lon="13.252514299717738"><ele>808.0</ele><time>2026-05-02T15:39:03Z</time></trkpt><trkpt lat="42.195196558105835" lon="13.252423333846506"><ele>808.0</ele><time>2026-05-02T15:39:04Z</time></trkpt><trkpt lat="42.19513031691803" lon="13.252344877862766"><ele>808.0</ele><time>2026-05-02T15:39:05Z</time></trkpt><trkpt lat="42.19507911515031" lon="13.252277492846288"><ele>808.0</ele><time>2026-05-02T15:39:06Z</time></trkpt><trkpt lat="42.19500787460187" lon="13.252177825735181"><ele>809.3333333333333</ele><time>2026-05-02T15:39:08Z</time></trkpt><trkpt lat="42.194968229545964" lon="13.252088484795102"><ele>810.6666666666666</ele><time>2026-05-02T15:39:10Z</time></trkpt><trkpt lat="42.19491832569567" lon="13.251992234095523"><ele>812.0</ele><time>2026-05-02T15:41:06Z</time></trkpt><trkpt lat="42.194866890002125" lon="13.251941151400827"><ele>813.3333333333333</ele><time>2026-05-02T15:41:07Z</time></trkpt><trkpt lat="42.19480255485291" lon="13.25189508106708"><ele>814.6666666666666</ele><time>2026-05-02T15:41:08Z</time></trkpt><trkpt lat="42.19473078482626" lon="13.251852405200923"><ele>816.0</ele><time>2026-05-02T15:41:09Z</time></trkpt><trkpt lat="42.19464680891837" lon="13.251807724907389"><ele>812.8</ele><time>2026-05-02T15:41:10Z</time></trkpt><trkpt lat="42.19456758469091" lon="13.251767566610269"><ele>809.5999999999999</ele><time>2026-05-02T15:41:11Z</time></trkpt><trkpt lat="42.194488407093885" lon="13.251726279723574"><ele>806.4</ele><time>2026-05-02T15:41:12Z</time></trkpt><trkpt lat="42.19438920953475" lon="13.251673824493395"><ele>803.2</ele><time>2026-05-02T15:41:13Z</time></trkpt><trkpt lat="42.19428099626386" lon="13.251613124654076"><ele>800.0</ele><time>2026-05-02T15:41:14Z</time></trkpt><trkpt lat="42.194171017152016" lon="13.25155366775785"><ele>800.0</ele><time>2026-05-02T15:41:15Z</time></trkpt><trkpt lat="42.1940764524458" lon="13.25150433560443"><ele>800.0</ele><time>2026-05-02T15:41:16Z</time></trkpt><trkpt lat="42.193996892166865" lon="13.251458129554916"><ele>800.0</ele><time>2026-05-02T15:41:17Z</time></trkpt><trkpt lat="42.19392685736832" lon="13.251419736384326"><ele>800.0</ele><time>2026-05-02T15:41:18Z</time></trkpt><trkpt lat="42.193862533567426" lon="13.251368296619432"><ele>800.0</ele><time>2026-05-02T15:41:20Z</time></trkpt><trkpt lat="42.19379835510027" lon="13.251558769917622"><ele>799.8</ele><time>2026-05-02T15:41:21Z</time></trkpt><trkpt lat="42.19377824157244" lon="13.251685854434667"><ele>799.6</ele><time>2026-05-02T15:41:22Z</time></trkpt><trkpt lat="42.193758883669645" lon="13.251831031653595"><ele>799.4000000000001</ele><time>2026-05-02T15:41:23Z</time></trkpt><trkpt lat="42.193733500919336" lon="13.251990140605646"><ele>799.2</ele><time>2026-05-02T15:41:24Z</time></trkpt><trkpt lat="42.19370466337553" lon="13.25215176756541"><ele>799.0</ele><time>2026-05-02T15:41:25Z</time></trkpt><trkpt lat="42.193670575820896" lon="13.252339364792375"><ele>797.3333333333333</ele><time>2026-05-02T15:41:26Z</time></trkpt><trkpt lat="42.19362377938221" lon="13.252571860690873"><ele>795.6666666666667</ele><time>2026-05-02T15:41:27Z</time></trkpt><trkpt lat="42.19357630996072" lon="13.252798042684907"><ele>794.0</ele><time>2026-05-02T15:41:28Z</time></trkpt><trkpt lat="42.19351908742322" lon="13.253042620187506"><ele>794.3333333333334</ele><time>2026-05-02T15:41:29Z</time></trkpt><trkpt lat="42.193443848056134" lon="13.253297783584989"><ele>794.6666666666667</ele><time>2026-05-02T15:41:30Z</time></trkpt><trkpt lat="42.19338583211278" lon="13.253565727696772"><ele>795.0</ele><time>2026-05-02T15:41:31Z</time></trkpt><trkpt lat="42.19324478193765" lon="13.253802352247401"><ele>796.0</ele><time>2026-05-02T15:41:32Z</time></trkpt><trkpt lat="42.193137113437075" lon="13.254055802740844"><ele>797.0</ele><time>2026-05-02T15:41:33Z</time></trkpt><trkpt lat="42.19303038357515" lon="13.254315159334405"><ele>798.0</ele><time>2026-05-02T15:41:34Z</time></trkpt><trkpt lat="42.19292246922442" lon="13.254580120275687"><ele>798.0</ele><time>2026-05-02T15:41:35Z</time></trkpt><trkpt lat="42.19280860004097" lon="13.254852844968884"><ele>798.0</ele><time>2026-05-02T15:41:36Z</time></trkpt><trkpt lat="42.192690023517535" lon="13.25511845469233"><ele>798.0</ele><time>2026-05-02T15:41:37Z</time></trkpt><trkpt lat="42.19256598187499" lon="13.25537689742731"><ele>798.0</ele><time>2026-05-02T15:41:38Z</time></trkpt><trkpt lat="42.19244504668632" lon="13.255613351766165"><ele>798.0</ele><time>2026-05-02T15:41:39Z</time></trkpt><trkpt lat="42.192338194255704" lon="13.25581059507944"><ele>797.6666666666667</ele><time>2026-05-02T15:41:40Z</time></trkpt><trkpt lat="42.19224223547038" lon="13.255987619240493"><ele>797.3333333333334</ele><time>2026-05-02T15:41:41Z</time></trkpt><trkpt lat="42.19215176433858" lon="13.256161311756038"><ele>797.0</ele><time>2026-05-02T15:41:42Z</time></trkpt><trkpt lat="42.1920702345726" lon="13.256316301976707"><ele>797.0</ele><time>2026-05-02T15:41:43Z</time></trkpt><trkpt lat="42.19200247471026" lon="13.256445635761693"><ele>797.0</ele><time>2026-05-02T15:41:44Z</time></trkpt><trkpt lat="42.191941876429986" lon="13.256556580979948"><ele>797.0</ele><time>2026-05-02T15:41:45Z</time></trkpt><trkpt lat="42.19188588988425" lon="13.256659855837768"><ele>797.0</ele><time>2026-05-02T15:41:46Z</time></trkpt><trkpt lat="42.19183236552343" lon="13.256751795692685"><ele>797.0</ele><time>2026-05-02T15:41:47Z</time></trkpt><trkpt lat="42.19178661461592" lon="13.256832471944739"><ele>797.2</ele><time>2026-05-02T15:41:48Z</time></trkpt><trkpt lat="42.191723541116026" lon="13.256945238272927"><ele>797.4000000000001</ele><time>2026-05-02T15:41:50Z</time></trkpt><trkpt lat="42.19167274961409" lon="13.257001083248912"><ele>797.5999999999999</ele><time>2026-05-02T15:41:52Z</time></trkpt><trkpt lat="42.19173819403029" lon="13.257201730312904"><ele>797.8</ele><time>2026-05-02T15:41:54Z</time></trkpt><trkpt lat="42.19181920408133" lon="13.257269732221983"><ele>798.0</ele><time>2026-05-02T15:41:56Z</time></trkpt><trkpt lat="42.19184875288706" lon="13.25738178661085"><ele>798.0</ele><time>2026-05-02T15:41:58Z</time></trkpt><trkpt lat="42.19193484471392" lon="13.257335234041776"><ele>798.0</ele><time>2026-05-02T15:42:57Z</time></trkpt><trkpt lat="42.19205896915321" lon="13.25746062082727"><ele>798.0</ele><time>2026-05-02T15:44:10Z</time></trkpt><trkpt lat="42.19198855504631" lon="13.25738948978294"><ele>798.0</ele><time>2026-05-02T15:44:46Z</time></trkpt><trkpt lat="42.19204034723895" lon="13.257441809304154"><ele>798.0</ele><time>2026-05-02T15:44:49.058Z</time></trkpt><trkpt lat="42.19209152545543" lon="13.257493508598028"><ele>798.0</ele><time>2026-05-02T15:44:55.03Z</time></trkpt><trkpt lat="42.191933886624156" lon="13.25752929598826"><ele>798.0</ele><time>2026-05-02T15:45:10Z</time></trkpt><trkpt lat="42.191885073912196" lon="13.257473027308881"><ele>798.0</ele><time>2026-05-02T15:45:56Z</time></trkpt><trkpt lat="42.19183462793593" lon="13.257340747194016"><ele>798.0</ele><time>2026-05-02T16:05:06Z</time></trkpt><trkpt lat="42.19180723666365" lon="13.257260136269794"><ele>798.0</ele><time>2026-05-02T16:05:08Z</time></trkpt><trkpt lat="42.19176168754445" lon="13.257174344270496"><ele>798.0</ele><time>2026-05-02T16:05:11Z</time></trkpt><trkpt lat="42.19167010505406" lon="13.257140814614075"><ele>798.0</ele><time>2026-05-02T16:05:16Z</time></trkpt><trkpt lat="42.19156957840924" lon="13.257213482372789"><ele>798.0</ele><time>2026-05-02T16:05:17Z</time></trkpt><trkpt lat="42.191498506594726" lon="13.25732194592457"><ele>798.0</ele><time>2026-05-02T16:05:18Z</time></trkpt><trkpt lat="42.19142467310246" lon="13.257463361306275"><ele>798.0</ele><time>2026-05-02T16:05:19Z</time></trkpt><trkpt lat="42.191335171417265" lon="13.25762415232398"><ele>798.3333333333333</ele><time>2026-05-02T16:05:20Z</time></trkpt><trkpt lat="42.191234562107994" lon="13.257796774735523"><ele>798.6666666666666</ele><time>2026-05-02T16:05:21Z</time></trkpt><trkpt lat="42.191121025980664" lon="13.257990057873423"><ele>799.0</ele><time>2026-05-02T16:05:22Z</time></trkpt><trkpt lat="42.191016107126586" lon="13.258168941940193"><ele>799.6666666666666</ele><time>2026-05-02T16:05:23Z</time></trkpt><trkpt lat="42.190924795921696" lon="13.258331952225692"><ele>800.3333333333333</ele><time>2026-05-02T16:05:24Z</time></trkpt><trkpt lat="42.1908359613805" lon="13.258493770779562"><ele>801.0</ele><time>2026-05-02T16:05:25Z</time></trkpt><trkpt lat="42.19073992738262" lon="13.258661050311483"><ele>800.3333333333333</ele><time>2026-05-02T16:05:26Z</time></trkpt><trkpt lat="42.19063720849751" lon="13.258842274447547"><ele>799.6666666666666</ele><time>2026-05-02T16:05:27Z</time></trkpt><trkpt lat="42.19051912469762" lon="13.259013856071297"><ele>799.0</ele><time>2026-05-02T16:05:28Z</time></trkpt><trkpt lat="42.19041213793636" lon="13.259203175467585"><ele>798.0</ele><time>2026-05-02T16:05:29Z</time></trkpt><trkpt lat="42.19030401596281" lon="13.259394503655301"><ele>797.0</ele><time>2026-05-02T16:05:30Z</time></trkpt><trkpt lat="42.190194523669945" lon="13.259586329583458"><ele>796.0</ele><time>2026-05-02T16:05:31Z</time></trkpt><trkpt lat="42.19008287955534" lon="13.259781520881733"><ele>796.3333333333333</ele><time>2026-05-02T16:05:32Z</time></trkpt><trkpt lat="42.18996635487647" lon="13.259985244982612"><ele>796.6666666666667</ele><time>2026-05-02T16:05:33Z</time></trkpt><trkpt lat="42.189849278041635" lon="13.260186348149555"><ele>797.0</ele><time>2026-05-02T16:05:34Z</time></trkpt><trkpt lat="42.18973360053883" lon="13.260398269000111"><ele>797.0</ele><time>2026-05-02T16:05:35Z</time></trkpt><trkpt lat="42.1896089727645" lon="13.260602259348452"><ele>797.0</ele><time>2026-05-02T16:05:36Z</time></trkpt><trkpt lat="42.18948972248605" lon="13.26080918336349"><ele>797.0</ele><time>2026-05-02T16:05:37Z</time></trkpt><trkpt lat="42.18936077810124" lon="13.261021386753768"><ele>797.0</ele><time>2026-05-02T16:05:38Z</time></trkpt><trkpt lat="42.189217894601626" lon="13.261232835681783"><ele>797.0</ele><time>2026-05-02T16:05:39Z</time></trkpt><trkpt lat="42.189069066441554" lon="13.261450192112346"><ele>797.0</ele><time>2026-05-02T16:05:40Z</time></trkpt><trkpt lat="42.188918762543146" lon="13.261673297943917"><ele>797.3333333333334</ele><time>2026-05-02T16:05:41Z</time></trkpt><trkpt lat="42.18877169732608" lon="13.261896480869149"><ele>797.6666666666667</ele><time>2026-05-02T16:05:42Z</time></trkpt><trkpt lat="42.18862022188466" lon="13.262114980091054"><ele>798.0</ele><time>2026-05-02T16:05:43Z</time></trkpt><trkpt lat="42.18846902128613" lon="13.262322963010353"><ele>798.0</ele><time>2026-05-02T16:05:44Z</time></trkpt><trkpt lat="42.188314055414416" lon="13.262536701986399"><ele>798.0</ele><time>2026-05-02T16:05:45Z</time></trkpt><trkpt lat="42.188147252384745" lon="13.26275524111851"><ele>797.5</ele><time>2026-05-02T16:05:46Z</time></trkpt><trkpt lat="42.18797585745072" lon="13.262971782449817"><ele>797.0</ele><time>2026-05-02T16:05:47Z</time></trkpt><trkpt lat="42.18780776465934" lon="13.263176568129584"><ele>797.0</ele><time>2026-05-02T16:05:48Z</time></trkpt><trkpt lat="42.18763522006277" lon="13.26338139770464"><ele>797.0</ele><time>2026-05-02T16:05:49Z</time></trkpt><trkpt lat="42.187463783868864" lon="13.263585043859287"><ele>798.0</ele><time>2026-05-02T16:05:50Z</time></trkpt><trkpt lat="42.18730016649168" lon="13.26378353327087"><ele>799.0</ele><time>2026-05-02T16:05:51Z</time></trkpt><trkpt lat="42.18713344022378" lon="13.263970576792428"><ele>800.0</ele><time>2026-05-02T16:05:52Z</time></trkpt><trkpt lat="42.18695782120404" lon="13.26415934195193"><ele>800.0</ele><time>2026-05-02T16:05:53Z</time></trkpt><trkpt lat="42.186776284658976" lon="13.264347757083224"><ele>800.0</ele><time>2026-05-02T16:05:54Z</time></trkpt><trkpt lat="42.18659591306688" lon="13.264538267584577"><ele>800.5</ele><time>2026-05-02T16:05:55Z</time></trkpt><trkpt lat="42.18641306908524" lon="13.264734374036586"><ele>801.0</ele><time>2026-05-02T16:05:56Z</time></trkpt><trkpt lat="42.18622478262056" lon="13.264919650381085"><ele>800.3333333333333</ele><time>2026-05-02T16:05:57Z</time></trkpt><trkpt lat="42.186043633820155" lon="13.265085987692855"><ele>799.6666666666666</ele><time>2026-05-02T16:05:58Z</time></trkpt><trkpt lat="42.18585414635518" lon="13.26525864787838"><ele>799.0</ele><time>2026-05-02T16:05:59Z</time></trkpt><trkpt lat="42.18566822159884" lon="13.265425227651368"><ele>802.5</ele><time>2026-05-02T16:06:00Z</time></trkpt><trkpt lat="42.18547280833557" lon="13.265599953996775"><ele>806.0</ele><time>2026-05-02T16:06:01Z</time></trkpt><trkpt lat="42.185284937143166" lon="13.26576307902159"><ele>806.0</ele><time>2026-05-02T16:06:02Z</time></trkpt><trkpt lat="42.18509574109953" lon="13.265935844747561"><ele>806.0</ele><time>2026-05-02T16:06:03Z</time></trkpt><trkpt lat="42.18490531004512" lon="13.266098894622614"><ele>808.0</ele><time>2026-05-02T16:06:04Z</time></trkpt><trkpt lat="42.184715845316774" lon="13.266268999959282"><ele>810.0</ele><time>2026-05-02T16:06:05Z</time></trkpt><trkpt lat="42.18452767737437" lon="13.2664323493871"><ele>808.6666666666667</ele><time>2026-05-02T16:06:06Z</time></trkpt><trkpt lat="42.18434396727503" lon="13.266596451925992"><ele>807.3333333333334</ele><time>2026-05-02T16:06:06.999Z</time></trkpt><trkpt lat="42.18415942126484" lon="13.266759299513343"><ele>806.0</ele><time>2026-05-02T16:06:07.999Z</time></trkpt><trkpt lat="42.18396520608142" lon="13.266929406661893"><ele>806.0</ele><time>2026-05-02T16:06:08.999Z</time></trkpt><trkpt lat="42.18376608580505" lon="13.267106981365721"><ele>806.0</ele><time>2026-05-02T16:06:09.999Z</time></trkpt><trkpt lat="42.18356398108223" lon="13.267283686733993"><ele>806.5</ele><time>2026-05-02T16:06:10.999Z</time></trkpt><trkpt lat="42.183346551339376" lon="13.267473131145685"><ele>807.0</ele><time>2026-05-02T16:06:11.999Z</time></trkpt><trkpt lat="42.18312320425127" lon="13.267671002034195"><ele>807.0</ele><time>2026-05-02T16:06:12.999Z</time></trkpt><trkpt lat="42.182897904643944" lon="13.267867735479287"><ele>807.0</ele><time>2026-05-02T16:06:13.999Z</time></trkpt><trkpt lat="42.182664717966546" lon="13.268068948745409"><ele>809.0</ele><time>2026-05-02T16:06:14.999Z</time></trkpt><trkpt lat="42.18243367037638" lon="13.268270318749416"><ele>811.0</ele><time>2026-05-02T16:06:15.999Z</time></trkpt><trkpt lat="42.18220409294358" lon="13.26847040115126"><ele>811.0</ele><time>2026-05-02T16:06:16.999Z</time></trkpt><trkpt lat="42.18197647105599" lon="13.268666956026472"><ele>811.0</ele><time>2026-05-02T16:06:17.999Z</time></trkpt><trkpt lat="42.181754292821594" lon="13.268864897830923"><ele>809.0</ele><time>2026-05-02T16:06:18.999Z</time></trkpt><trkpt lat="42.18153819869885" lon="13.269057609736347"><ele>807.0</ele><time>2026-05-02T16:06:19.999Z</time></trkpt><trkpt lat="42.18132411033247" lon="13.269247191183235"><ele>807.0</ele><time>2026-05-02T16:06:20.999Z</time></trkpt><trkpt lat="42.181115199356114" lon="13.269429486464789"><ele>807.0</ele><time>2026-05-02T16:06:21.999Z</time></trkpt><trkpt lat="42.18092452222315" lon="13.269600379224245"><ele>807.0</ele><time>2026-05-02T16:06:22.999Z</time></trkpt><trkpt lat="42.18074648063648" lon="13.269761585902785"><ele>807.0</ele><time>2026-05-02T16:06:23.999Z</time></trkpt><trkpt lat="42.18056357705593" lon="13.269920192141962"><ele>807.0</ele><time>2026-05-02T16:06:24.999Z</time></trkpt><trkpt lat="42.18036161419065" lon="13.270088334338526"><ele>806.5</ele><time>2026-05-02T16:06:25.999Z</time></trkpt><trkpt lat="42.180146261058944" lon="13.270270400077917"><ele>806.0</ele><time>2026-05-02T16:06:26.999Z</time></trkpt><trkpt lat="42.179924885842986" lon="13.27046317401789"><ele>806.5</ele><time>2026-05-02T16:06:27.999Z</time></trkpt><trkpt lat="42.17970264334297" lon="13.270661201102847"><ele>807.0</ele><time>2026-05-02T16:06:28.999Z</time></trkpt><trkpt lat="42.179484672299104" lon="13.270855290521467"><ele>807.0</ele><time>2026-05-02T16:06:29.999Z</time></trkpt><trkpt lat="42.17926829645016" lon="13.271047779720869"><ele>807.0</ele><time>2026-05-02T16:06:30.999Z</time></trkpt><trkpt lat="42.179065966796784" lon="13.271223026053201"><ele>813.5</ele><time>2026-05-02T16:06:31.999Z</time></trkpt><trkpt lat="42.178876941966315" lon="13.271389516559086"><ele>820.0</ele><time>2026-05-02T16:06:32.999Z</time></trkpt><trkpt lat="42.17869113528577" lon="13.271559636241506"><ele>820.0</ele><time>2026-05-02T16:06:33.999Z</time></trkpt><trkpt lat="42.178512723843944" lon="13.271738118168109"><ele>820.0</ele><time>2026-05-02T16:06:34.999Z</time></trkpt><trkpt lat="42.17833490925606" lon="13.27194284043365"><ele>820.0</ele><time>2026-05-02T16:06:35.999Z</time></trkpt><trkpt lat="42.17815906607832" lon="13.272177916879034"><ele>820.0</ele><time>2026-05-02T16:06:36.999Z</time></trkpt><trkpt lat="42.17800351248095" lon="13.27243570863554"><ele>820.0</ele><time>2026-05-02T16:06:38Z</time></trkpt><trkpt lat="42.177858821831656" lon="13.272711590060497"><ele>820.0</ele><time>2026-05-02T16:06:39Z</time></trkpt><trkpt lat="42.17773855143657" lon="13.272991087718221"><ele>818.6666666666666</ele><time>2026-05-02T16:06:40Z</time></trkpt><trkpt lat="42.17764159551103" lon="13.273254293369325"><ele>817.3333333333333</ele><time>2026-05-02T16:06:41Z</time></trkpt><trkpt lat="42.17756156455061" lon="13.273505404386231"><ele>816.0</ele><time>2026-05-02T16:06:42Z</time></trkpt><trkpt lat="42.177504769344246" lon="13.273717239247457"><ele>816.0</ele><time>2026-05-02T16:06:43Z</time></trkpt><trkpt lat="42.17746586994016" lon="13.273903495242777"><ele>816.0</ele><time>2026-05-02T16:06:44Z</time></trkpt><trkpt lat="42.17743577367411" lon="13.274077919630548"><ele>816.0</ele><time>2026-05-02T16:06:45Z</time></trkpt><trkpt lat="42.17741378584958" lon="13.274226302382342"><ele>816.0</ele><time>2026-05-02T16:06:46Z</time></trkpt><trkpt lat="42.177400072424966" lon="13.274341832478768"><ele>816.1999999999999</ele><time>2026-05-02T16:06:47Z</time></trkpt><trkpt lat="42.17738860373149" lon="13.274443565791046"><ele>816.4</ele><time>2026-05-02T16:06:48Z</time></trkpt><trkpt lat="42.17737082775364" lon="13.274541146724696"><ele>816.6</ele><time>2026-05-02T16:06:49Z</time></trkpt><trkpt lat="42.17733445614736" lon="13.274626695398426"><ele>816.8</ele><time>2026-05-02T16:06:50Z</time></trkpt><trkpt lat="42.17726967969919" lon="13.274756973159535"><ele>817.0</ele><time>2026-05-02T16:06:52Z</time></trkpt><trkpt lat="42.17727149923325" lon="13.274936354252894"><ele>817.5</ele><time>2026-05-02T16:06:54Z</time></trkpt><trkpt lat="42.177299370115904" lon="13.275047109268376"><ele>818.0</ele><time>2026-05-02T16:06:55Z</time></trkpt><trkpt lat="42.17733963826654" lon="13.275196477784855"><ele>818.5</ele><time>2026-05-02T16:06:56Z</time></trkpt><trkpt lat="42.17736019009464" lon="13.275365199843902"><ele>819.0</ele><time>2026-05-02T16:06:57Z</time></trkpt><trkpt lat="42.17735871160131" lon="13.275533364224913"><ele>819.2</ele><time>2026-05-02T16:06:58Z</time></trkpt><trkpt lat="42.17734970094684" lon="13.275685648425256"><ele>819.4000000000001</ele><time>2026-05-02T16:06:59Z</time></trkpt><trkpt lat="42.17734630960885" lon="13.275826379829565"><ele>819.6</ele><time>2026-05-02T16:07:00Z</time></trkpt><trkpt lat="42.17734856347133" lon="13.275952799403317"><ele>819.8</ele><time>2026-05-02T16:07:01Z</time></trkpt><trkpt lat="42.17735142046392" lon="13.276065136625313"><ele>820.0</ele><time>2026-05-02T16:07:02Z</time></trkpt><trkpt lat="42.177353476021175" lon="13.276158762498644"><ele>820.0</ele><time>2026-05-02T16:07:03Z</time></trkpt><trkpt lat="42.177354356254796" lon="13.276313639787904"><ele>820.0</ele><time>2026-05-02T16:07:05Z</time></trkpt><trkpt lat="42.1773565257525" lon="13.27640035667639"><ele>820.0</ele><time>2026-05-02T16:07:09Z</time></trkpt><trkpt lat="42.17736381748424" lon="13.27649871559428"><ele>820.0</ele><time>2026-05-02T16:07:32Z</time></trkpt><trkpt lat="42.177367259168584" lon="13.276671929897073"><ele>820.0</ele><time>2026-05-02T16:07:34Z</time></trkpt><trkpt lat="42.177364891741" lon="13.276775804027162"><ele>820.4</ele><time>2026-05-02T16:07:35Z</time></trkpt><trkpt lat="42.177346598179426" lon="13.276915285016358"><ele>820.8</ele><time>2026-05-02T16:07:37Z</time></trkpt><trkpt lat="42.17734660277475" lon="13.277011558962233"><ele>821.2</ele><time>2026-05-02T16:08:12.999Z</time></trkpt><trkpt lat="42.17737493711761" lon="13.277172364402452"><ele>821.6</ele><time>2026-05-02T16:08:14.999Z</time></trkpt><trkpt lat="42.17738720156945" lon="13.277291594616894"><ele>822.0</ele><time>2026-05-02T16:08:15.999Z</time></trkpt><trkpt lat="42.177401296319594" lon="13.277433655473503"><ele>822.4000000000001</ele><time>2026-05-02T16:08:16.999Z</time></trkpt><trkpt lat="42.177413947651154" lon="13.277572628350738"><ele>822.8000000000001</ele><time>2026-05-02T16:08:17.999Z</time></trkpt><trkpt lat="42.177385553111726" lon="13.277715465430706"><ele>823.2</ele><time>2026-05-02T16:08:18.999Z</time></trkpt><trkpt lat="42.1773725874177" lon="13.277833992372805"><ele>823.6</ele><time>2026-05-02T16:08:19.999Z</time></trkpt><trkpt lat="42.17735717403085" lon="13.277933674623975"><ele>824.0</ele><time>2026-05-02T16:08:20.999Z</time></trkpt><trkpt lat="42.177326320022864" lon="13.278031128858206"><ele>825.8000000000001</ele><time>2026-05-02T16:08:21.999Z</time></trkpt><trkpt lat="42.17727571525941" lon="13.278138595470319"><ele>827.6</ele><time>2026-05-02T16:08:22.999Z</time></trkpt><trkpt lat="42.177199989987734" lon="13.278218497953352"><ele>829.4</ele><time>2026-05-02T16:08:23.999Z</time></trkpt><trkpt lat="42.1771081029838" lon="13.278265125542235"><ele>831.2</ele><time>2026-05-02T16:08:24.999Z</time></trkpt><trkpt lat="42.17700277418912" lon="13.278277820529654"><ele>833.0</ele><time>2026-05-02T16:08:25.999Z</time></trkpt><trkpt lat="42.176901484784906" lon="13.278222793158594"><ele>833.0</ele><time>2026-05-02T16:08:26.999Z</time></trkpt><trkpt lat="42.17680703507542" lon="13.278138004999942"><ele>833.0</ele><time>2026-05-02T16:08:27.999Z</time></trkpt><trkpt lat="42.17671909748947" lon="13.278021613696813"><ele>833.0</ele><time>2026-05-02T16:08:28.999Z</time></trkpt><trkpt lat="42.176632983688584" lon="13.277874231157709"><ele>833.0</ele><time>2026-05-02T16:08:29.999Z</time></trkpt><trkpt lat="42.17653434779949" lon="13.277718852420625"><ele>833.0</ele><time>2026-05-02T16:08:30.999Z</time></trkpt><trkpt lat="42.17644474776715" lon="13.277549191571264"><ele>833.0</ele><time>2026-05-02T16:08:31.999Z</time></trkpt><trkpt lat="42.17634220791359" lon="13.277391827009266"><ele>833.0</ele><time>2026-05-02T16:08:32.999Z</time></trkpt><trkpt lat="42.1762049834803" lon="13.277253846358926"><ele>831.6666666666667</ele><time>2026-05-02T16:08:33.999Z</time></trkpt><trkpt lat="42.17604286234079" lon="13.277153417795848"><ele>830.3333333333333</ele><time>2026-05-02T16:08:34.999Z</time></trkpt><trkpt lat="42.175864130181424" lon="13.277114567316277"><ele>829.0</ele><time>2026-05-02T16:08:35.999Z</time></trkpt><trkpt lat="42.175681304081074" lon="13.277131789746461"><ele>829.0</ele><time>2026-05-02T16:08:36.999Z</time></trkpt><trkpt lat="42.17549814852639" lon="13.277182571426836"><ele>829.0</ele><time>2026-05-02T16:08:37.999Z</time></trkpt><trkpt lat="42.17531607600128" lon="13.277258024493573"><ele>829.0</ele><time>2026-05-02T16:08:38.999Z</time></trkpt><trkpt lat="42.17512704960763" lon="13.277369153305196"><ele>829.3333333333333</ele><time>2026-05-02T16:08:39.999Z</time></trkpt><trkpt lat="42.17494015197641" lon="13.277535733370932"><ele>829.6666666666667</ele><time>2026-05-02T16:08:40.999Z</time></trkpt><trkpt lat="42.17476870789923" lon="13.277674098576831"><ele>830.0</ele><time>2026-05-02T16:08:41.999Z</time></trkpt><trkpt lat="42.174595894374754" lon="13.277845414670548"><ele>830.0</ele><time>2026-05-02T16:08:43Z</time></trkpt><trkpt lat="42.174427759674" lon="13.278024626017773"><ele>830.0</ele><time>2026-05-02T16:08:44Z</time></trkpt><trkpt lat="42.1742623261618" lon="13.278213850874778"><ele>830.0</ele><time>2026-05-02T16:08:45Z</time></trkpt><trkpt lat="42.17409875753903" lon="13.27842467247401"><ele>826.0</ele><time>2026-05-02T16:08:46Z</time></trkpt><trkpt lat="42.173936012925594" lon="13.278661891458993"><ele>822.0</ele><time>2026-05-02T16:08:47Z</time></trkpt><trkpt lat="42.17378523000035" lon="13.278912928962795"><ele>823.0</ele><time>2026-05-02T16:08:48Z</time></trkpt><trkpt lat="42.173648274460376" lon="13.279188717088658"><ele>824.0</ele><time>2026-05-02T16:08:49Z</time></trkpt><trkpt lat="42.17352141034153" lon="13.27948621314926"><ele>825.5</ele><time>2026-05-02T16:08:50Z</time></trkpt><trkpt lat="42.173399754283466" lon="13.2798025249559"><ele>827.0</ele><time>2026-05-02T16:08:51Z</time></trkpt><trkpt lat="42.173284069495885" lon="13.280119917515679"><ele>822.0</ele><time>2026-05-02T16:08:52Z</time></trkpt><trkpt lat="42.17317691710193" lon="13.28041507777526"><ele>817.0</ele><time>2026-05-02T16:08:53Z</time></trkpt><trkpt lat="42.17308009622216" lon="13.28069203926595"><ele>817.0</ele><time>2026-05-02T16:08:54Z</time></trkpt><trkpt lat="42.17299550044883" lon="13.280947108571654"><ele>817.0</ele><time>2026-05-02T16:08:55Z</time></trkpt><trkpt lat="42.17292347137128" lon="13.281213310518947"><ele>817.0</ele><time>2026-05-02T16:08:56Z</time></trkpt><trkpt lat="42.172883889826316" lon="13.281480125024954"><ele>816.3333333333333</ele><time>2026-05-02T16:08:57Z</time></trkpt><trkpt lat="42.172871530828424" lon="13.28174763672931"><ele>815.6666666666667</ele><time>2026-05-02T16:08:58Z</time></trkpt><trkpt lat="42.172893298829095" lon="13.282008648263284"><ele>815.0</ele><time>2026-05-02T16:08:59Z</time></trkpt><trkpt lat="42.17295945922818" lon="13.282239949822202"><ele>812.0</ele><time>2026-05-02T16:09:00Z</time></trkpt><trkpt lat="42.17306027034616" lon="13.282447613659535"><ele>809.0</ele><time>2026-05-02T16:09:01Z</time></trkpt><trkpt lat="42.17318649285207" lon="13.282611960414904"><ele>806.0</ele><time>2026-05-02T16:09:02Z</time></trkpt><trkpt lat="42.173336949062346" lon="13.28270828696948"><ele>814.6666666666667</ele><time>2026-05-02T16:09:03Z</time></trkpt><trkpt lat="42.17349822943254" lon="13.282755721812244"><ele>823.3333333333333</ele><time>2026-05-02T16:09:04Z</time></trkpt><trkpt lat="42.17367069523444" lon="13.282755262020723"><ele>832.0</ele><time>2026-05-02T16:09:05Z</time></trkpt><trkpt lat="42.17384973784333" lon="13.2827008346289"><ele>832.6666666666666</ele><time>2026-05-02T16:09:06Z</time></trkpt><trkpt lat="42.17403661713976" lon="13.282612846234418"><ele>833.3333333333333</ele><time>2026-05-02T16:09:07Z</time></trkpt><trkpt lat="42.17422986096934" lon="13.2824965687005"><ele>834.0</ele><time>2026-05-02T16:09:08Z</time></trkpt><trkpt lat="42.17442797808623" lon="13.282361929447712"><ele>834.0</ele><time>2026-05-02T16:09:09Z</time></trkpt><trkpt lat="42.17462385741981" lon="13.282245406197342"><ele>834.0</ele><time>2026-05-02T16:09:10Z</time></trkpt><trkpt lat="42.174821392295236" lon="13.282145490113052"><ele>834.0</ele><time>2026-05-02T16:09:11Z</time></trkpt><trkpt lat="42.17501878927574" lon="13.282068087043701"><ele>833.3333333333333</ele><time>2026-05-02T16:09:12Z</time></trkpt><trkpt lat="42.17520447412665" lon="13.282021753931435"><ele>832.6666666666666</ele><time>2026-05-02T16:09:13Z</time></trkpt><trkpt lat="42.17539111127759" lon="13.282011930050013"><ele>832.0</ele><time>2026-05-02T16:09:14Z</time></trkpt><trkpt lat="42.175582117357244" lon="13.282047205912333"><ele>833.6666666666666</ele><time>2026-05-02T16:09:15Z</time></trkpt><trkpt lat="42.17577653226869" lon="13.282105278041842"><ele>835.3333333333333</ele><time>2026-05-02T16:09:16Z</time></trkpt><trkpt lat="42.175972015275356" lon="13.282181850569852"><ele>837.0</ele><time>2026-05-02T16:09:17Z</time></trkpt><trkpt lat="42.17616907624839" lon="13.282275312437353"><ele>837.6666666666667</ele><time>2026-05-02T16:09:18Z</time></trkpt><trkpt lat="42.176359234207375" lon="13.282396095540625"><ele>838.3333333333334</ele><time>2026-05-02T16:09:19Z</time></trkpt><trkpt lat="42.176550607489425" lon="13.282538943754973"><ele>839.0</ele><time>2026-05-02T16:09:20Z</time></trkpt><trkpt lat="42.17674915727416" lon="13.282682247925848"><ele>839.5</ele><time>2026-05-02T16:09:21Z</time></trkpt><trkpt lat="42.17695634276869" lon="13.282815308940322"><ele>840.0</ele><time>2026-05-02T16:09:22Z</time></trkpt><trkpt lat="42.177178391937765" lon="13.282944730594487"><ele>840.5</ele><time>2026-05-02T16:09:23Z</time></trkpt><trkpt lat="42.177411891859705" lon="13.283074297802585"><ele>841.0</ele><time>2026-05-02T16:09:24Z</time></trkpt><trkpt lat="42.17766116691622" lon="13.283219729611753"><ele>842.0</ele><time>2026-05-02T16:09:25Z</time></trkpt><trkpt lat="42.17791417137386" lon="13.283383506614905"><ele>843.0</ele><time>2026-05-02T16:09:26Z</time></trkpt><trkpt lat="42.17816634876262" lon="13.283549073742845"><ele>842.0</ele><time>2026-05-02T16:09:27Z</time></trkpt><trkpt lat="42.178429486593856" lon="13.283719248622083"><ele>841.0</ele><time>2026-05-02T16:09:28Z</time></trkpt><trkpt lat="42.17869418500596" lon="13.283889579210518"><ele>841.5</ele><time>2026-05-02T16:09:29Z</time></trkpt><trkpt lat="42.17896199706168" lon="13.284060873957252"><ele>842.0</ele><time>2026-05-02T16:09:30Z</time></trkpt><trkpt lat="42.17923185212446" lon="13.284236493307635"><ele>842.0</ele><time>2026-05-02T16:09:31Z</time></trkpt><trkpt lat="42.179496772463196" lon="13.284409223513425"><ele>842.0</ele><time>2026-05-02T16:09:32Z</time></trkpt><trkpt lat="42.179763815301555" lon="13.284584820744662"><ele>840.5</ele><time>2026-05-02T16:09:33Z</time></trkpt><trkpt lat="42.1800208863322" lon="13.284751406932905"><ele>839.0</ele><time>2026-05-02T16:09:34Z</time></trkpt><trkpt lat="42.18027139346782" lon="13.2849104044904"><ele>839.0</ele><time>2026-05-02T16:09:35Z</time></trkpt><trkpt lat="42.18051726812302" lon="13.285061271710154"><ele>839.0</ele><time>2026-05-02T16:09:36Z</time></trkpt><trkpt lat="42.18076368168146" lon="13.285203474467268"><ele>839.0</ele><time>2026-05-02T16:09:37Z</time></trkpt><trkpt lat="42.18101344077307" lon="13.285337559357453"><ele>839.0</ele><time>2026-05-02T16:09:38Z</time></trkpt><trkpt lat="42.181272130714895" lon="13.285467149332383"><ele>838.0</ele><time>2026-05-02T16:09:39Z</time></trkpt><trkpt lat="42.18152909551022" lon="13.285592730465094"><ele>837.0</ele><time>2026-05-02T16:09:40Z</time></trkpt><trkpt lat="42.181786439981174" lon="13.285708794068269"><ele>840.0</ele><time>2026-05-02T16:09:41Z</time></trkpt><trkpt lat="42.18203968521331" lon="13.285807196229355"><ele>843.0</ele><time>2026-05-02T16:09:42Z</time></trkpt><trkpt lat="42.18229448352142" lon="13.285891239275015"><ele>845.0</ele><time>2026-05-02T16:09:43Z</time></trkpt><trkpt lat="42.18254941805151" lon="13.285967104135898"><ele>847.0</ele><time>2026-05-02T16:09:44Z</time></trkpt><trkpt lat="42.182803685578236" lon="13.2860329144528"><ele>847.0</ele><time>2026-05-02T16:09:45Z</time></trkpt><trkpt lat="42.18305463887206" lon="13.286089986250712"><ele>847.0</ele><time>2026-05-02T16:09:46Z</time></trkpt><trkpt lat="42.183304102756914" lon="13.286134926383534"><ele>847.5</ele><time>2026-05-02T16:09:47Z</time></trkpt><trkpt lat="42.18354855553067" lon="13.28616970316035"><ele>848.0</ele><time>2026-05-02T16:09:48Z</time></trkpt><trkpt lat="42.1837949532271" lon="13.286197333339354"><ele>848.5</ele><time>2026-05-02T16:09:49Z</time></trkpt><trkpt lat="42.18403744215372" lon="13.286217105994844"><ele>849.0</ele><time>2026-05-02T16:09:50Z</time></trkpt><trkpt lat="42.184284338981044" lon="13.286223494815816"><ele>849.0</ele><time>2026-05-02T16:09:51Z</time></trkpt><trkpt lat="42.184528800041086" lon="13.28622345419285"><ele>849.0</ele><time>2026-05-02T16:09:52Z</time></trkpt><trkpt lat="42.18477675605525" lon="13.28621492990875"><ele>850.0</ele><time>2026-05-02T16:09:53Z</time></trkpt><trkpt lat="42.18503092720323" lon="13.286196964002091"><ele>851.0</ele><time>2026-05-02T16:09:54Z</time></trkpt><trkpt lat="42.1852937502888" lon="13.28616956026863"><ele>851.0</ele><time>2026-05-02T16:09:55Z</time></trkpt><trkpt lat="42.18555721848799" lon="13.286135677555237"><ele>851.0</ele><time>2026-05-02T16:09:56Z</time></trkpt><trkpt lat="42.18582248699004" lon="13.286095395568278"><ele>852.0</ele><time>2026-05-02T16:09:57Z</time></trkpt><trkpt lat="42.18608738179127" lon="13.28604847793462"><ele>853.0</ele><time>2026-05-02T16:09:58Z</time></trkpt><trkpt lat="42.18635258915235" lon="13.286001249335374"><ele>856.5</ele><time>2026-05-02T16:09:59Z</time></trkpt><trkpt lat="42.18661470077694" lon="13.285955945777076"><ele>860.0</ele><time>2026-05-02T16:10:00Z</time></trkpt><trkpt lat="42.18687929580564" lon="13.285912392282299"><ele>860.0</ele><time>2026-05-02T16:10:01Z</time></trkpt><trkpt lat="42.18713784522584" lon="13.285868447668802"><ele>860.0</ele><time>2026-05-02T16:10:02Z</time></trkpt><trkpt lat="42.18739104298739" lon="13.285819755700052"><ele>867.0</ele><time>2026-05-02T16:10:03Z</time></trkpt><trkpt lat="42.18764291412359" lon="13.285772674234407"><ele>874.0</ele><time>2026-05-02T16:10:03.999Z</time></trkpt><trkpt lat="42.1878975966755" lon="13.285728016505642"><ele>874.0</ele><time>2026-05-02T16:10:04.999Z</time></trkpt><trkpt lat="42.188151304098476" lon="13.285681069397619"><ele>874.0</ele><time>2026-05-02T16:10:05.999Z</time></trkpt><trkpt lat="42.18840623420741" lon="13.285631245458324"><ele>872.5</ele><time>2026-05-02T16:10:06.999Z</time></trkpt><trkpt lat="42.18866327881787" lon="13.285582993157174"><ele>871.0</ele><time>2026-05-02T16:10:07.999Z</time></trkpt><trkpt lat="42.188928154934906" lon="13.285537203134211"><ele>875.0</ele><time>2026-05-02T16:10:08.999Z</time></trkpt><trkpt lat="42.1891861892479" lon="13.285493819839045"><ele>879.0</ele><time>2026-05-02T16:10:09.999Z</time></trkpt><trkpt lat="42.18944248923895" lon="13.285449942261872"><ele>879.0</ele><time>2026-05-02T16:10:10.999Z</time></trkpt><trkpt lat="42.189702458731425" lon="13.285402062896969"><ele>879.0</ele><time>2026-05-02T16:10:11.999Z</time></trkpt><trkpt lat="42.18996937737932" lon="13.285350287895518"><ele>880.0</ele><time>2026-05-02T16:10:12.999Z</time></trkpt><trkpt lat="42.190243318832096" lon="13.285294613755587"><ele>881.0</ele><time>2026-05-02T16:10:13.999Z</time></trkpt><trkpt lat="42.19053101009567" lon="13.285234694258136"><ele>883.0</ele><time>2026-05-02T16:10:14.999Z</time></trkpt><trkpt lat="42.1908229073874" lon="13.285165455043886"><ele>885.0</ele><time>2026-05-02T16:10:15.999Z</time></trkpt><trkpt lat="42.191108542103585" lon="13.285090686133698"><ele>885.0</ele><time>2026-05-02T16:10:16.999Z</time></trkpt><trkpt lat="42.191389376158455" lon="13.285010685684663"><ele>885.0</ele><time>2026-05-02T16:10:17.999Z</time></trkpt><trkpt lat="42.19167087033396" lon="13.284932632825441"><ele>890.0</ele><time>2026-05-02T16:10:18.999Z</time></trkpt><trkpt lat="42.191954532617785" lon="13.284850424708981"><ele>895.0</ele><time>2026-05-02T16:10:19.999Z</time></trkpt><trkpt lat="42.192240041070804" lon="13.284760044807816"><ele>890.5</ele><time>2026-05-02T16:10:20.999Z</time></trkpt><trkpt lat="42.192526086520324" lon="13.284661644699685"><ele>886.0</ele><time>2026-05-02T16:10:21.999Z</time></trkpt><trkpt lat="42.19279782551006" lon="13.284566857584432"><ele>886.0</ele><time>2026-05-02T16:10:22.999Z</time></trkpt><trkpt lat="42.19306377470306" lon="13.284475943388301"><ele>886.0</ele><time>2026-05-02T16:10:23.999Z</time></trkpt><trkpt lat="42.1933346144906" lon="13.284381102596017"><ele>891.5</ele><time>2026-05-02T16:10:24.999Z</time></trkpt><trkpt lat="42.193599722393444" lon="13.284292642169675"><ele>897.0</ele><time>2026-05-02T16:10:25.999Z</time></trkpt><trkpt lat="42.193866899069704" lon="13.284201467065259"><ele>901.5</ele><time>2026-05-02T16:10:26.999Z</time></trkpt><trkpt lat="42.194130665983394" lon="13.284111572835005"><ele>906.0</ele><time>2026-05-02T16:10:27.999Z</time></trkpt><trkpt lat="42.19439871255988" lon="13.284019779591032"><ele>905.0</ele><time>2026-05-02T16:10:28.999Z</time></trkpt><trkpt lat="42.19465755283355" lon="13.283929624982864"><ele>904.0</ele><time>2026-05-02T16:10:29.999Z</time></trkpt><trkpt lat="42.194923086263074" lon="13.283836504112577"><ele>904.0</ele><time>2026-05-02T16:10:30.999Z</time></trkpt><trkpt lat="42.1951934682151" lon="13.283744388011"><ele>904.0</ele><time>2026-05-02T16:10:31.999Z</time></trkpt><trkpt lat="42.19546659845224" lon="13.283650957188108"><ele>907.5</ele><time>2026-05-02T16:10:32.999Z</time></trkpt><trkpt lat="42.19574263373195" lon="13.283553299382895"><ele>911.0</ele><time>2026-05-02T16:10:33.999Z</time></trkpt><trkpt lat="42.19602215340207" lon="13.283453268382852"><ele>911.0</ele><time>2026-05-02T16:10:34.999Z</time></trkpt><trkpt lat="42.19629783446126" lon="13.283354137310793"><ele>911.0</ele><time>2026-05-02T16:10:35.999Z</time></trkpt><trkpt lat="42.19656819191502" lon="13.283259534508753"><ele>917.5</ele><time>2026-05-02T16:10:36.999Z</time></trkpt><trkpt lat="42.196833196722785" lon="13.283167515144502"><ele>924.0</ele><time>2026-05-02T16:10:37.999Z</time></trkpt><trkpt lat="42.1970875022337" lon="13.283081032277755"><ele>914.0</ele><time>2026-05-02T16:10:38.999Z</time></trkpt><trkpt lat="42.1973357386641" lon="13.282999378111194"><ele>904.0</ele><time>2026-05-02T16:10:39.999Z</time></trkpt><trkpt lat="42.197595775359204" lon="13.282919491129384"><ele>904.0</ele><time>2026-05-02T16:10:40.999Z</time></trkpt><trkpt lat="42.19786925685194" lon="13.282839353760174"><ele>904.0</ele><time>2026-05-02T16:10:41.999Z</time></trkpt><trkpt lat="42.19814644672796" lon="13.282769758401363"><ele>911.5</ele><time>2026-05-02T16:10:42.999Z</time></trkpt><trkpt lat="42.198420721987354" lon="13.282722108480238"><ele>919.0</ele><time>2026-05-02T16:10:43.999Z</time></trkpt><trkpt lat="42.19870013098833" lon="13.282704048298045"><ele>919.0</ele><time>2026-05-02T16:10:44.999Z</time></trkpt><trkpt lat="42.198978052841724" lon="13.282708746762442"><ele>919.0</ele><time>2026-05-02T16:10:45.999Z</time></trkpt><trkpt lat="42.19926283295407" lon="13.282750685435518"><ele>919.5</ele><time>2026-05-02T16:10:46.999Z</time></trkpt><trkpt lat="42.19955642671346" lon="13.282817647099598"><ele>920.0</ele><time>2026-05-02T16:10:47.999Z</time></trkpt><trkpt lat="42.19985652534292" lon="13.282904580157068"><ele>920.0</ele><time>2026-05-02T16:10:48.999Z</time></trkpt><trkpt lat="42.20016550396318" lon="13.2830044384934"><ele>920.0</ele><time>2026-05-02T16:10:49.999Z</time></trkpt><trkpt lat="42.200481869875354" lon="13.283114065457609"><ele>929.5</ele><time>2026-05-02T16:10:50.999Z</time></trkpt><trkpt lat="42.200799024267184" lon="13.283231316771497"><ele>939.0</ele><time>2026-05-02T16:10:51.999Z</time></trkpt><trkpt lat="42.20110830466862" lon="13.283355299756346"><ele>939.0</ele><time>2026-05-02T16:10:52.999Z</time></trkpt><trkpt lat="42.20140755268528" lon="13.283479887087422"><ele>939.0</ele><time>2026-05-02T16:10:53.999Z</time></trkpt><trkpt lat="42.20169976928066" lon="13.283604540732545"><ele>935.0</ele><time>2026-05-02T16:10:54.999Z</time></trkpt><trkpt lat="42.20199270207331" lon="13.283727810054415"><ele>931.0</ele><time>2026-05-02T16:10:55.999Z</time></trkpt><trkpt lat="42.202283919781294" lon="13.283842075154817"><ele>942.5</ele><time>2026-05-02T16:10:56.999Z</time></trkpt><trkpt lat="42.20257074434739" lon="13.28395229664518"><ele>954.0</ele><time>2026-05-02T16:10:57.999Z</time></trkpt><trkpt lat="42.20285827210497" lon="13.284061829610721"><ele>954.0</ele><time>2026-05-02T16:10:58.999Z</time></trkpt><trkpt lat="42.20314613719893" lon="13.28416760706684"><ele>954.0</ele><time>2026-05-02T16:10:59.999Z</time></trkpt><trkpt lat="42.20343433536014" lon="13.284262790091406"><ele>949.0</ele><time>2026-05-02T16:11:00.999Z</time></trkpt><trkpt lat="42.203720420754365" lon="13.28435797195173"><ele>944.0</ele><time>2026-05-02T16:11:01.999Z</time></trkpt><trkpt lat="42.204006102446854" lon="13.284454691480166"><ele>940.5</ele><time>2026-05-02T16:11:02.999Z</time></trkpt><trkpt lat="42.204294885672006" lon="13.28455568161622"><ele>937.0</ele><time>2026-05-02T16:11:03.999Z</time></trkpt><trkpt lat="42.20458126676899" lon="13.28466091702486"><ele>945.0</ele><time>2026-05-02T16:11:04.999Z</time></trkpt><trkpt lat="42.204868379524484" lon="13.284775460315782"><ele>953.0</ele><time>2026-05-02T16:11:05.999Z</time></trkpt><trkpt lat="42.20515587132999" lon="13.284894779330815"><ele>953.0</ele><time>2026-05-02T16:11:06.999Z</time></trkpt><trkpt lat="42.20543858895659" lon="13.285024398335008"><ele>953.0</ele><time>2026-05-02T16:11:07.999Z</time></trkpt><trkpt lat="42.20571316156219" lon="13.285169082209082"><ele>949.0</ele><time>2026-05-02T16:11:08.999Z</time></trkpt><trkpt lat="42.205983059450915" lon="13.285326740100082"><ele>945.0</ele><time>2026-05-02T16:11:09.999Z</time></trkpt><trkpt lat="42.206246172929916" lon="13.285496958582847"><ele>951.5</ele><time>2026-05-02T16:11:10.999Z</time></trkpt><trkpt lat="42.206499475304696" lon="13.285681594855854"><ele>958.0</ele><time>2026-05-02T16:11:11.999Z</time></trkpt><trkpt lat="42.20674126267011" lon="13.285884422917222"><ele>958.0</ele><time>2026-05-02T16:11:12.999Z</time></trkpt><trkpt lat="42.20697418111867" lon="13.286095112691976"><ele>958.0</ele><time>2026-05-02T16:11:13.999Z</time></trkpt><trkpt lat="42.20720014186218" lon="13.286318139662137"><ele>961.0</ele><time>2026-05-02T16:11:14.999Z</time></trkpt><trkpt lat="42.207418351359756" lon="13.28655021839864"><ele>964.0</ele><time>2026-05-02T16:11:15.999Z</time></trkpt><trkpt lat="42.20762430397513" lon="13.286790674133606"><ele>964.0</ele><time>2026-05-02T16:11:17Z</time></trkpt><trkpt lat="42.20782183424494" lon="13.287043782302586"><ele>964.0</ele><time>2026-05-02T16:11:18Z</time></trkpt><trkpt lat="42.20801571828589" lon="13.287318246899922"><ele>967.0</ele><time>2026-05-02T16:11:19Z</time></trkpt><trkpt lat="42.208202713991966" lon="13.287601437880298"><ele>970.0</ele><time>2026-05-02T16:11:20Z</time></trkpt><trkpt lat="42.208379438705514" lon="13.287893960609722"><ele>977.0</ele><time>2026-05-02T16:11:21Z</time></trkpt><trkpt lat="42.20855000227641" lon="13.28819134644408"><ele>984.0</ele><time>2026-05-02T16:11:22Z</time></trkpt><trkpt lat="42.20871356209274" lon="13.28848964532654"><ele>984.0</ele><time>2026-05-02T16:11:23Z</time></trkpt><trkpt lat="42.20887658172214" lon="13.288806629598342"><ele>984.0</ele><time>2026-05-02T16:11:24Z</time></trkpt><trkpt lat="42.209041265203076" lon="13.289135788525162"><ele>984.0</ele><time>2026-05-02T16:11:25Z</time></trkpt><trkpt lat="42.20921436160732" lon="13.28948582420558"><ele>984.0</ele><time>2026-05-02T16:11:26Z</time></trkpt><trkpt lat="42.2093927122396" lon="13.289840804916023"><ele>984.0</ele><time>2026-05-02T16:11:27Z</time></trkpt><trkpt lat="42.20958244182254" lon="13.290212054253809"><ele>984.0</ele><time>2026-05-02T16:11:27.999Z</time></trkpt><trkpt lat="42.209778483968904" lon="13.290594105923457"><ele>981.0</ele><time>2026-05-02T16:11:28.999Z</time></trkpt><trkpt lat="42.20997744973148" lon="13.290983693584563"><ele>978.0</ele><time>2026-05-02T16:11:29.999Z</time></trkpt><trkpt lat="42.21018382901547" lon="13.291376982072624"><ele>989.0</ele><time>2026-05-02T16:11:30.999Z</time></trkpt><trkpt lat="42.21039183971593" lon="13.291774688593327"><ele>1000.0</ele><time>2026-05-02T16:11:31.999Z</time></trkpt><trkpt lat="42.21059659266436" lon="13.292160481145896"><ele>993.5</ele><time>2026-05-02T16:11:32.999Z</time></trkpt><trkpt lat="42.21078663826191" lon="13.292514186235"><ele>987.0</ele><time>2026-05-02T16:11:33.999Z</time></trkpt><trkpt lat="42.21096734547795" lon="13.292849577658732"><ele>999.5</ele><time>2026-05-02T16:11:34.999Z</time></trkpt><trkpt lat="42.211142299129875" lon="13.293169687663072"><ele>1012.0</ele><time>2026-05-02T16:11:35.999Z</time></trkpt><trkpt lat="42.21130704035645" lon="13.293464104635127"><ele>1012.0</ele><time>2026-05-02T16:11:36.999Z</time></trkpt><trkpt lat="42.211458407360794" lon="13.293730657702762"><ele>1012.0</ele><time>2026-05-02T16:11:37.999Z</time></trkpt><trkpt lat="42.21160372933301" lon="13.29398017664836"><ele>1009.6666666666666</ele><time>2026-05-02T16:11:38.999Z</time></trkpt><trkpt lat="42.21174236324435" lon="13.294217857342636"><ele>1007.3333333333333</ele><time>2026-05-02T16:11:39.999Z</time></trkpt><trkpt lat="42.211879404046286" lon="13.294449763845483"><ele>1005.0</ele><time>2026-05-02T16:11:40.999Z</time></trkpt><trkpt lat="42.21202028096083" lon="13.294691147370473"><ele>1017.5</ele><time>2026-05-02T16:11:41.999Z</time></trkpt><trkpt lat="42.21216285309765" lon="13.29493717150143"><ele>1030.0</ele><time>2026-05-02T16:11:42.999Z</time></trkpt><trkpt lat="42.2123110905239" lon="13.295192518536698"><ele>1022.5</ele><time>2026-05-02T16:11:43.999Z</time></trkpt><trkpt lat="42.2124704257028" lon="13.295461254523039"><ele>1015.0</ele><time>2026-05-02T16:11:44.999Z</time></trkpt><trkpt lat="42.212633278888724" lon="13.295733438167028"><ele>1015.0</ele><time>2026-05-02T16:11:45.999Z</time></trkpt><trkpt lat="42.21279776496112" lon="13.295999635144996"><ele>1015.0</ele><time>2026-05-02T16:11:46.999Z</time></trkpt><trkpt lat="42.21295715195631" lon="13.296254034429934"><ele>1012.5</ele><time>2026-05-02T16:11:47.999Z</time></trkpt><trkpt lat="42.21311677440168" lon="13.296506460177708"><ele>1010.0</ele><time>2026-05-02T16:11:48.999Z</time></trkpt><trkpt lat="42.21327759241151" lon="13.296753463042284"><ele>1010.0</ele><time>2026-05-02T16:11:49.999Z</time></trkpt><trkpt lat="42.21343625517606" lon="13.296992320030165"><ele>1010.0</ele><time>2026-05-02T16:11:50.999Z</time></trkpt><trkpt lat="42.21360252402562" lon="13.297238242532297"><ele>1019.5</ele><time>2026-05-02T16:11:51.999Z</time></trkpt><trkpt lat="42.21377766566982" lon="13.297483950518975"><ele>1029.0</ele><time>2026-05-02T16:11:52.999Z</time></trkpt><trkpt lat="42.21395887008074" lon="13.297721430201022"><ele>1018.0</ele><time>2026-05-02T16:11:53.999Z</time></trkpt><trkpt lat="42.21414163716953" lon="13.297952124213936"><ele>1007.0</ele><time>2026-05-02T16:11:54.999Z</time></trkpt><trkpt lat="42.21433110304496" lon="13.298180688131994"><ele>1007.0</ele><time>2026-05-02T16:11:55.999Z</time></trkpt><trkpt lat="42.21452820637967" lon="13.298407388640312"><ele>1007.0</ele><time>2026-05-02T16:11:56.999Z</time></trkpt><trkpt lat="42.21473298539689" lon="13.298630250458572"><ele>1018.0</ele><time>2026-05-02T16:11:57.999Z</time></trkpt><trkpt lat="42.214942661232975" lon="13.298850367968166"><ele>1029.0</ele><time>2026-05-02T16:11:58.999Z</time></trkpt><trkpt lat="42.21515886184465" lon="13.299069283322964"><ele>1040.5</ele><time>2026-05-02T16:11:59.999Z</time></trkpt><trkpt lat="42.215381046097015" lon="13.299284993798528"><ele>1052.0</ele><time>2026-05-02T16:12:00.999Z</time></trkpt><trkpt lat="42.21560776916622" lon="13.299494008459309"><ele>1063.5</ele><time>2026-05-02T16:12:01.999Z</time></trkpt><trkpt lat="42.215837898595105" lon="13.299693349547425"><ele>1075.0</ele><time>2026-05-02T16:12:02.999Z</time></trkpt><trkpt lat="42.21608538583418" lon="13.29990931171297"><ele>1080.0</ele><time>2026-05-02T16:12:04.057Z</time></trkpt><trkpt lat="42.21632362077333" lon="13.300114628500458"><ele>1085.0</ele><time>2026-05-02T16:12:05.057Z</time></trkpt><trkpt lat="42.216560657221976" lon="13.300313314998911"><ele>1106.0</ele><time>2026-05-02T16:12:06.057Z</time></trkpt><trkpt lat="42.21679040679645" lon="13.300506572529514"><ele>1127.0</ele><time>2026-05-02T16:12:07.054Z</time></trkpt><trkpt lat="42.217017901641086" lon="13.30069744188485"><ele>1128.0</ele><time>2026-05-02T16:12:08.037Z</time></trkpt><trkpt lat="42.217248473451505" lon="13.300888835859617"><ele>1129.0</ele><time>2026-05-02T16:12:09.031Z</time></trkpt><trkpt lat="42.217489522348494" lon="13.301035074442131"><ele>1160.5</ele><time>2026-05-02T16:12:10.026Z</time></trkpt><trkpt lat="42.2177237545731" lon="13.301196126509407"><ele>1192.0</ele><time>2026-05-02T16:12:11.027Z</time></trkpt><trkpt lat="42.21955799711832" lon="13.302346863981647"><ele>1106.0</ele><time>2026-05-02T16:12:14.198Z</time></trkpt><trkpt lat="42.248470159637456" lon="13.320944014692902"><ele>1106.0</ele><time>2026-05-02T16:14:09.998Z</time></trkpt><trkpt lat="42.24871975632491" lon="13.320952721723147"><ele>1106.0</ele><time>2026-05-02T16:14:10.998Z</time></trkpt><trkpt lat="42.24906332151271" lon="13.320952252928963"><ele>1105.0</ele><time>2026-05-02T16:14:11.998Z</time></trkpt><trkpt lat="42.249353999696375" lon="13.321022910712058"><ele>1104.0</ele><time>2026-05-02T16:14:12.998Z</time></trkpt><trkpt lat="42.24966097345903" lon="13.321065908867629"><ele>1100.5</ele><time>2026-05-02T16:14:13.998Z</time></trkpt><trkpt lat="42.24991765258699" lon="13.321149494961855"><ele>1097.0</ele><time>2026-05-02T16:14:14.998Z</time></trkpt><trkpt lat="42.25017742716048" lon="13.321211759233398"><ele>1097.0</ele><time>2026-05-02T16:14:16Z</time></trkpt><trkpt lat="42.25044685138951" lon="13.321282597146967"><ele>1097.0</ele><time>2026-05-02T16:14:17Z</time></trkpt><trkpt lat="42.25070597915716" lon="13.32134463401301"><ele>1089.0</ele><time>2026-05-02T16:14:18Z</time></trkpt><trkpt lat="42.25097012945554" lon="13.321411384594628"><ele>1081.0</ele><time>2026-05-02T16:14:19Z</time></trkpt><trkpt lat="42.25123954304035" lon="13.321467971653837"><ele>1075.5</ele><time>2026-05-02T16:14:20Z</time></trkpt><trkpt lat="42.25150927404383" lon="13.321519444675326"><ele>1070.0</ele><time>2026-05-02T16:14:21Z</time></trkpt><trkpt lat="42.25176772333109" lon="13.321560241965607"><ele>1070.0</ele><time>2026-05-02T16:14:22Z</time></trkpt><trkpt lat="42.252021362899434" lon="13.32160043688057"><ele>1070.0</ele><time>2026-05-02T16:14:23Z</time></trkpt><trkpt lat="42.252273830935245" lon="13.321639345570908"><ele>1083.0</ele><time>2026-05-02T16:14:24Z</time></trkpt><trkpt lat="42.25252795644617" lon="13.321674026188154"><ele>1096.0</ele><time>2026-05-02T16:14:25Z</time></trkpt><trkpt lat="42.25279558083732" lon="13.321707010403816"><ele>1096.0</ele><time>2026-05-02T16:14:26Z</time></trkpt><trkpt lat="42.25305897447348" lon="13.321735492658885"><ele>1096.0</ele><time>2026-05-02T16:14:27Z</time></trkpt><trkpt lat="42.253313277976815" lon="13.321763774031496"><ele>1096.0</ele><time>2026-05-02T16:14:28Z</time></trkpt><trkpt lat="42.253558520320546" lon="13.321789080382318"><ele>1096.0</ele><time>2026-05-02T16:14:29Z</time></trkpt><trkpt lat="42.25380915572293" lon="13.32181196473057"><ele>1094.5</ele><time>2026-05-02T16:14:30Z</time></trkpt><trkpt lat="42.254055810005184" lon="13.32183270593406"><ele>1093.0</ele><time>2026-05-02T16:14:31Z</time></trkpt><trkpt lat="42.25431041158025" lon="13.321849676998207"><ele>1093.0</ele><time>2026-05-02T16:14:32Z</time></trkpt><trkpt lat="42.254563271342185" lon="13.321864741579038"><ele>1093.0</ele><time>2026-05-02T16:14:33Z</time></trkpt><trkpt lat="42.25482035846397" lon="13.321873386408617"><ele>1095.0</ele><time>2026-05-02T16:14:34Z</time></trkpt><trkpt lat="42.255076982494394" lon="13.321882638460274"><ele>1097.0</ele><time>2026-05-02T16:14:35Z</time></trkpt><trkpt lat="42.25533398053118" lon="13.32188645797024"><ele>1097.0</ele><time>2026-05-02T16:14:36Z</time></trkpt><trkpt lat="42.255593843831505" lon="13.321887678014495"><ele>1097.0</ele><time>2026-05-02T16:14:37Z</time></trkpt><trkpt lat="42.25585594901978" lon="13.321888491490888"><ele>1095.0</ele><time>2026-05-02T16:14:38Z</time></trkpt><trkpt lat="42.25612608118829" lon="13.321887269963932"><ele>1093.0</ele><time>2026-05-02T16:14:39Z</time></trkpt><trkpt lat="42.25640186535353" lon="13.321882545659195"><ele>1087.5</ele><time>2026-05-02T16:14:40Z</time></trkpt><trkpt lat="42.25667682429179" lon="13.321870058936062"><ele>1082.0</ele><time>2026-05-02T16:14:41Z</time></trkpt><trkpt lat="42.256951474465815" lon="13.321856881344736"><ele>1082.0</ele><time>2026-05-02T16:14:42Z</time></trkpt><trkpt lat="42.25722730692338" lon="13.321839466076977"><ele>1082.0</ele><time>2026-05-02T16:14:43Z</time></trkpt><trkpt lat="42.257502872997485" lon="13.321821310408582"><ele>1091.0</ele><time>2026-05-02T16:14:44Z</time></trkpt><trkpt lat="42.257778412682065" lon="13.321802138982862"><ele>1100.0</ele><time>2026-05-02T16:14:45Z</time></trkpt><trkpt lat="42.25805773034513" lon="13.321777533252588"><ele>1103.5</ele><time>2026-05-02T16:14:46Z</time></trkpt><trkpt lat="42.25833064984147" lon="13.32174959633123"><ele>1107.0</ele><time>2026-05-02T16:14:47Z</time></trkpt><trkpt lat="42.258599903332325" lon="13.32171554741541"><ele>1107.0</ele><time>2026-05-02T16:14:48Z</time></trkpt><trkpt lat="42.258866175773576" lon="13.321680693619442"><ele>1107.0</ele><time>2026-05-02T16:14:49Z</time></trkpt><trkpt lat="42.259129911479114" lon="13.321644085652125"><ele>1104.5</ele><time>2026-05-02T16:14:50Z</time></trkpt><trkpt lat="42.25939622212104" lon="13.321602869972313"><ele>1102.0</ele><time>2026-05-02T16:14:51Z</time></trkpt><trkpt lat="42.2596676285684" lon="13.321558967209658"><ele>1103.0</ele><time>2026-05-02T16:14:52Z</time></trkpt><trkpt lat="42.2599467807759" lon="13.321508016414361"><ele>1104.0</ele><time>2026-05-02T16:14:53Z</time></trkpt><trkpt lat="42.26023796977393" lon="13.32145056802318"><ele>1092.0</ele><time>2026-05-02T16:14:54Z</time></trkpt><trkpt lat="42.26053694501614" lon="13.321393066265955"><ele>1080.0</ele><time>2026-05-02T16:14:55Z</time></trkpt><trkpt lat="42.260824545844876" lon="13.321336366993526"><ele>1080.0</ele><time>2026-05-02T16:14:56Z</time></trkpt><trkpt lat="42.26110361850662" lon="13.321283063585527"><ele>1080.0</ele><time>2026-05-02T16:14:57Z</time></trkpt><trkpt lat="42.26138818359296" lon="13.321229036486839"><ele>1083.0</ele><time>2026-05-02T16:14:58Z</time></trkpt><trkpt lat="42.2616695753145" lon="13.321178250323516"><ele>1086.0</ele><time>2026-05-02T16:14:59Z</time></trkpt><trkpt lat="42.26195181621885" lon="13.321124252088069"><ele>1086.0</ele><time>2026-05-02T16:15:00Z</time></trkpt><trkpt lat="42.262236763410904" lon="13.321069514966375"><ele>1086.0</ele><time>2026-05-02T16:15:01Z</time></trkpt><trkpt lat="42.262519847961045" lon="13.321016378763792"><ele>1087.0</ele><time>2026-05-02T16:15:02Z</time></trkpt><trkpt lat="42.26280189964508" lon="13.320965094052879"><ele>1088.0</ele><time>2026-05-02T16:15:03Z</time></trkpt><trkpt lat="42.263085895483414" lon="13.320913409403637"><ele>1090.0</ele><time>2026-05-02T16:15:04Z</time></trkpt><trkpt lat="42.26337791669183" lon="13.320857956404696"><ele>1092.0</ele><time>2026-05-02T16:15:05Z</time></trkpt><trkpt lat="42.26366800157332" lon="13.320800720357502"><ele>1093.5</ele><time>2026-05-02T16:15:06Z</time></trkpt><trkpt lat="42.26396116079557" lon="13.320744650252031"><ele>1095.0</ele><time>2026-05-02T16:15:07Z</time></trkpt><trkpt lat="42.26425352615998" lon="13.320687977437839"><ele>1095.0</ele><time>2026-05-02T16:15:08Z</time></trkpt><trkpt lat="42.264549090959505" lon="13.320628021950547"><ele>1095.0</ele><time>2026-05-02T16:15:09Z</time></trkpt><trkpt lat="42.26484603585184" lon="13.320564758423503"><ele>1082.5</ele><time>2026-05-02T16:15:10Z</time></trkpt><trkpt lat="42.26514843645456" lon="13.320498809379492"><ele>1070.0</ele><time>2026-05-02T16:15:11Z</time></trkpt><trkpt lat="42.26545317635078" lon="13.32042609343815"><ele>1072.0</ele><time>2026-05-02T16:15:12Z</time></trkpt><trkpt lat="42.26574849052048" lon="13.32035075377824"><ele>1074.0</ele><time>2026-05-02T16:15:13Z</time></trkpt><trkpt lat="42.26603945057704" lon="13.32026835569006"><ele>1074.0</ele><time>2026-05-02T16:15:14Z</time></trkpt><trkpt lat="42.26632680268145" lon="13.320179497741876"><ele>1074.0</ele><time>2026-05-02T16:15:15Z</time></trkpt><trkpt lat="42.266620786328396" lon="13.320083611761595"><ele>1078.0</ele><time>2026-05-02T16:15:16Z</time></trkpt><trkpt lat="42.2669103695984" lon="13.319980262776605"><ele>1082.0</ele><time>2026-05-02T16:15:17Z</time></trkpt><trkpt lat="42.26720053378294" lon="13.319867402645711"><ele>1077.5</ele><time>2026-05-02T16:15:18Z</time></trkpt><trkpt lat="42.26748461790576" lon="13.319738025863806"><ele>1073.0</ele><time>2026-05-02T16:15:19Z</time></trkpt><trkpt lat="42.267763284244026" lon="13.319596276625614"><ele>1073.0</ele><time>2026-05-02T16:15:20Z</time></trkpt><trkpt lat="42.26803758798719" lon="13.319449701174463"><ele>1073.0</ele><time>2026-05-02T16:15:21Z</time></trkpt><trkpt lat="42.268310009501995" lon="13.319298470583009"><ele>1074.0</ele><time>2026-05-02T16:15:22Z</time></trkpt><trkpt lat="42.26856386512204" lon="13.319147803111111"><ele>1075.0</ele><time>2026-05-02T16:15:23Z</time></trkpt><trkpt lat="42.268812001195265" lon="13.31898393934561"><ele>1067.5</ele><time>2026-05-02T16:15:24Z</time></trkpt><trkpt lat="42.2690551828299" lon="13.318809062803684"><ele>1060.0</ele><time>2026-05-02T16:15:25Z</time></trkpt><trkpt lat="42.26929743903414" lon="13.318624054663294"><ele>1060.0</ele><time>2026-05-02T16:15:26Z</time></trkpt><trkpt lat="42.269542367860865" lon="13.318428790419642"><ele>1060.0</ele><time>2026-05-02T16:15:27Z</time></trkpt><trkpt lat="42.26979092147244" lon="13.318225696604673"><ele>1055.5</ele><time>2026-05-02T16:15:28Z</time></trkpt><trkpt lat="42.270038417600404" lon="13.31801641152585"><ele>1051.0</ele><time>2026-05-02T16:15:29Z</time></trkpt><trkpt lat="42.27028687458358" lon="13.317786299892319"><ele>1051.0</ele><time>2026-05-02T16:15:30Z</time></trkpt><trkpt lat="42.27053211637967" lon="13.31754843827603"><ele>1051.0</ele><time>2026-05-02T16:15:31Z</time></trkpt><trkpt lat="42.27076406517724" lon="13.317315743157177"><ele>1047.5</ele><time>2026-05-02T16:15:32Z</time></trkpt><trkpt lat="42.270983400587085" lon="13.317094862557024"><ele>1044.0</ele><time>2026-05-02T16:15:33Z</time></trkpt><trkpt lat="42.27121565256822" lon="13.316866797138523"><ele>1058.0</ele><time>2026-05-02T16:15:34Z</time></trkpt><trkpt lat="42.27146459273659" lon="13.316633802789422"><ele>1072.0</ele><time>2026-05-02T16:15:35Z</time></trkpt><trkpt lat="42.27170628960458" lon="13.31641606980704"><ele>1055.0</ele><time>2026-05-02T16:15:36Z</time></trkpt><trkpt lat="42.271952216074375" lon="13.316203370463755"><ele>1038.0</ele><time>2026-05-02T16:15:37Z</time></trkpt><trkpt lat="42.272195867621406" lon="13.316002862554669"><ele>1051.5</ele><time>2026-05-02T16:15:38Z</time></trkpt><trkpt lat="42.27245111311286" lon="13.315809238429544"><ele>1065.0</ele><time>2026-05-02T16:15:39Z</time></trkpt><trkpt lat="42.27271388965462" lon="13.315629947688826"><ele>1052.5</ele><time>2026-05-02T16:15:40Z</time></trkpt><trkpt lat="42.27297401610943" lon="13.31546663073136"><ele>1040.0</ele><time>2026-05-02T16:15:41Z</time></trkpt><trkpt lat="42.273237059511125" lon="13.315317276047502"><ele>1040.0</ele><time>2026-05-02T16:15:42Z</time></trkpt><trkpt lat="42.273509426670465" lon="13.315176728353697"><ele>1040.0</ele><time>2026-05-02T16:15:43Z</time></trkpt><trkpt lat="42.27378467681449" lon="13.315043794693455"><ele>1046.0</ele><time>2026-05-02T16:15:44Z</time></trkpt><trkpt lat="42.274065008204246" lon="13.314913822560682"><ele>1052.0</ele><time>2026-05-02T16:15:45Z</time></trkpt><trkpt lat="42.27435352535046" lon="13.314788885339732"><ele>1044.0</ele><time>2026-05-02T16:15:46Z</time></trkpt><trkpt lat="42.274633034341804" lon="13.314669892130658"><ele>1036.0</ele><time>2026-05-02T16:15:47Z</time></trkpt><trkpt lat="42.27489995539394" lon="13.314555803571354"><ele>1036.0</ele><time>2026-05-02T16:15:48Z</time></trkpt><trkpt lat="42.2751543562797" lon="13.314445001685629"><ele>1036.0</ele><time>2026-05-02T16:15:49Z</time></trkpt><trkpt lat="42.27541151308371" lon="13.314332165724702"><ele>1041.0</ele><time>2026-05-02T16:15:50Z</time></trkpt><trkpt lat="42.27568050964835" lon="13.314216755889737"><ele>1046.0</ele><time>2026-05-02T16:15:51Z</time></trkpt><trkpt lat="42.27595748297362" lon="13.314098912955329"><ele>1046.0</ele><time>2026-05-02T16:15:52Z</time></trkpt><trkpt lat="42.276232457655624" lon="13.31398377113888"><ele>1046.0</ele><time>2026-05-02T16:15:53Z</time></trkpt><trkpt lat="42.276500394198436" lon="13.313864034438765"><ele>1035.0</ele><time>2026-05-02T16:15:54Z</time></trkpt><trkpt lat="42.27676540232882" lon="13.313727835998332"><ele>1024.0</ele><time>2026-05-02T16:15:55Z</time></trkpt><trkpt lat="42.27702581133367" lon="13.313563119191313"><ele>1033.0</ele><time>2026-05-02T16:15:56Z</time></trkpt><trkpt lat="42.27727596851998" lon="13.313378651774748"><ele>1042.0</ele><time>2026-05-02T16:15:57Z</time></trkpt><trkpt lat="42.277514443412095" lon="13.313188765495406"><ele>1023.5</ele><time>2026-05-02T16:15:58Z</time></trkpt><trkpt lat="42.27774319098926" lon="13.312985752501682"><ele>1005.0</ele><time>2026-05-02T16:15:59Z</time></trkpt><trkpt lat="42.277971436909475" lon="13.312776264268594"><ele>1018.0</ele><time>2026-05-02T16:16:00Z</time></trkpt><trkpt lat="42.27821476511225" lon="13.312552906868817"><ele>1031.0</ele><time>2026-05-02T16:16:01Z</time></trkpt><trkpt lat="42.27845445852763" lon="13.312341117618091"><ele>1006.0</ele><time>2026-05-02T16:16:02Z</time></trkpt><trkpt lat="42.27868008690218" lon="13.31214744522305"><ele>981.0</ele><time>2026-05-02T16:16:02.999Z</time></trkpt><trkpt lat="42.278910504856334" lon="13.31195861193956"><ele>1002.0</ele><time>2026-05-02T16:16:03.999Z</time></trkpt><trkpt lat="42.27914712413274" lon="13.311776024828813"><ele>1023.0</ele><time>2026-05-02T16:16:04.999Z</time></trkpt><trkpt lat="42.27939514092495" lon="13.311605886300963"><ele>1023.0</ele><time>2026-05-02T16:16:05.999Z</time></trkpt><trkpt lat="42.279645831021206" lon="13.31145334586902"><ele>1023.0</ele><time>2026-05-02T16:16:06.999Z</time></trkpt><trkpt lat="42.279908121015005" lon="13.31132030317355"><ele>1012.0</ele><time>2026-05-02T16:16:07.999Z</time></trkpt><trkpt lat="42.28017011398198" lon="13.311209318142906"><ele>1001.0</ele><time>2026-05-02T16:16:08.999Z</time></trkpt><trkpt lat="42.280438217333874" lon="13.311104255331541"><ele>1009.0</ele><time>2026-05-02T16:16:09.999Z</time></trkpt><trkpt lat="42.28071008747344" lon="13.311012981022529"><ele>1017.0</ele><time>2026-05-02T16:16:10.999Z</time></trkpt><trkpt lat="42.28099200483144" lon="13.310931853009535"><ele>1017.0</ele><time>2026-05-02T16:16:11.999Z</time></trkpt><trkpt lat="42.28127564254573" lon="13.310865200402262"><ele>1017.0</ele><time>2026-05-02T16:16:12.999Z</time></trkpt><trkpt lat="42.281559066577614" lon="13.310804862280937"><ele>1022.5</ele><time>2026-05-02T16:16:13.999Z</time></trkpt><trkpt lat="42.281842946741584" lon="13.310755862805864"><ele>1028.0</ele><time>2026-05-02T16:16:14.999Z</time></trkpt><trkpt lat="42.282129709639435" lon="13.31071645366091"><ele>1030.5</ele><time>2026-05-02T16:16:15.999Z</time></trkpt><trkpt lat="42.28240057718558" lon="13.310683744275211"><ele>1033.0</ele><time>2026-05-02T16:16:16.999Z</time></trkpt><trkpt lat="42.282652357864905" lon="13.31065895392413"><ele>1033.0</ele><time>2026-05-02T16:16:17.999Z</time></trkpt><trkpt lat="42.28289454901149" lon="13.310640988297322"><ele>1033.0</ele><time>2026-05-02T16:16:18.999Z</time></trkpt><trkpt lat="42.28311803940999" lon="13.310625411533085"><ele>1031.3333333333333</ele><time>2026-05-02T16:16:19.999Z</time></trkpt><trkpt lat="42.283336531185135" lon="13.310609679620017"><ele>1029.6666666666667</ele><time>2026-05-02T16:16:21.001Z</time></trkpt><trkpt lat="42.28354959630752" lon="13.310589466061954"><ele>1028.0</ele><time>2026-05-02T16:16:22.001Z</time></trkpt><trkpt lat="42.28375781689221" lon="13.310569727301395"><ele>1016.3333333333334</ele><time>2026-05-02T16:16:23.001Z</time></trkpt><trkpt lat="42.28396431003286" lon="13.310548236160669"><ele>1004.6666666666667</ele><time>2026-05-02T16:16:24.001Z</time></trkpt><trkpt lat="42.28418100404742" lon="13.310519748870284"><ele>993.0</ele><time>2026-05-02T16:16:25.001Z</time></trkpt><trkpt lat="42.28439948045101" lon="13.31049479152109"><ele>993.0</ele><time>2026-05-02T16:16:26.001Z</time></trkpt><trkpt lat="42.28461152798306" lon="13.310470386722603"><ele>993.0</ele><time>2026-05-02T16:16:27.001Z</time></trkpt><trkpt lat="42.2848203252603" lon="13.31044675999248"><ele>993.0</ele><time>2026-05-02T16:16:28.001Z</time></trkpt><trkpt lat="42.28503085712987" lon="13.310422777407648"><ele>993.6666666666667</ele><time>2026-05-02T16:16:29.001Z</time></trkpt><trkpt lat="42.28523414119267" lon="13.31039568053551"><ele>994.3333333333334</ele><time>2026-05-02T16:16:30.001Z</time></trkpt><trkpt lat="42.28543299802838" lon="13.310366862588513"><ele>995.0</ele><time>2026-05-02T16:16:31.001Z</time></trkpt><trkpt lat="42.28562499164927" lon="13.31034016238521"><ele>995.6666666666667</ele><time>2026-05-02T16:16:32.001Z</time></trkpt><trkpt lat="42.28581565465953" lon="13.310311119354274"><ele>996.3333333333333</ele><time>2026-05-02T16:16:33.001Z</time></trkpt><trkpt lat="42.28601339396172" lon="13.310276668379286"><ele>997.0</ele><time>2026-05-02T16:16:34.001Z</time></trkpt><trkpt lat="42.28621256059734" lon="13.310241806888254"><ele>997.0</ele><time>2026-05-02T16:16:35.001Z</time></trkpt><trkpt lat="42.28641789879834" lon="13.31020844234946"><ele>997.0</ele><time>2026-05-02T16:16:36.001Z</time></trkpt><trkpt lat="42.286616309574434" lon="13.310181573277212"><ele>997.0</ele><time>2026-05-02T16:16:37.001Z</time></trkpt><trkpt lat="42.28681110209496" lon="13.310151542222112"><ele>997.0</ele><time>2026-05-02T16:16:38.001Z</time></trkpt><trkpt lat="42.28699996166815" lon="13.310120630965027"><ele>997.0</ele><time>2026-05-02T16:16:39Z</time></trkpt><trkpt lat="42.28718929833051" lon="13.310091473908653"><ele>997.0</ele><time>2026-05-02T16:16:40Z</time></trkpt><trkpt lat="42.287403169380454" lon="13.310059507170887"><ele>999.5</ele><time>2026-05-02T16:16:41Z</time></trkpt><trkpt lat="42.2876356807538" lon="13.31002024931576"><ele>1002.0</ele><time>2026-05-02T16:16:42Z</time></trkpt><trkpt lat="42.287883082142805" lon="13.309981325244843"><ele>1002.5</ele><time>2026-05-02T16:16:43Z</time></trkpt><trkpt lat="42.28814059664764" lon="13.30994262857533"><ele>1003.0</ele><time>2026-05-02T16:16:44Z</time></trkpt><trkpt lat="42.28840497746588" lon="13.309902668742975"><ele>1003.0</ele><time>2026-05-02T16:16:45Z</time></trkpt><trkpt lat="42.28865665367364" lon="13.309859541009699"><ele>1003.0</ele><time>2026-05-02T16:16:46Z</time></trkpt><trkpt lat="42.288899031685304" lon="13.30982285231053"><ele>1004.0</ele><time>2026-05-02T16:16:47Z</time></trkpt><trkpt lat="42.28913700478637" lon="13.309786506664263"><ele>1005.0</ele><time>2026-05-02T16:16:48Z</time></trkpt><trkpt lat="42.28937102488405" lon="13.309748770522054"><ele>983.0</ele><time>2026-05-02T16:16:49Z</time></trkpt><trkpt lat="42.28961585009381" lon="13.309713896452495"><ele>961.0</ele><time>2026-05-02T16:16:50Z</time></trkpt><trkpt lat="42.28986342643179" lon="13.309675449324569"><ele>961.0</ele><time>2026-05-02T16:16:51Z</time></trkpt><trkpt lat="42.29009936518968" lon="13.309635475380132"><ele>961.0</ele><time>2026-05-02T16:16:52Z</time></trkpt><trkpt lat="42.29033606958192" lon="13.30959683823074"><ele>961.0</ele><time>2026-05-02T16:16:53Z</time></trkpt><trkpt lat="42.29056669788893" lon="13.3095615961158"><ele>961.0</ele><time>2026-05-02T16:16:54Z</time></trkpt><trkpt lat="42.29080242554539" lon="13.309526489859262"><ele>963.0</ele><time>2026-05-02T16:16:55Z</time></trkpt><trkpt lat="42.291027828321994" lon="13.309496994521602"><ele>965.0</ele><time>2026-05-02T16:16:56Z</time></trkpt><trkpt lat="42.29127024708881" lon="13.309465757512216"><ele>965.0</ele><time>2026-05-02T16:16:57Z</time></trkpt><trkpt lat="42.291524557074126" lon="13.309439031532108"><ele>965.0</ele><time>2026-05-02T16:16:58Z</time></trkpt><trkpt lat="42.29178456714365" lon="13.309419658080683"><ele>965.0</ele><time>2026-05-02T16:16:59Z</time></trkpt><trkpt lat="42.29204761216147" lon="13.309411982411335"><ele>965.0</ele><time>2026-05-02T16:17:00Z</time></trkpt><trkpt lat="42.292301838608026" lon="13.309413189019548"><ele>964.0</ele><time>2026-05-02T16:17:01Z</time></trkpt><trkpt lat="42.29254742666471" lon="13.309417293470611"><ele>963.0</ele><time>2026-05-02T16:17:02Z</time></trkpt><trkpt lat="42.29279999315119" lon="13.309421137713906"><ele>963.0</ele><time>2026-05-02T16:17:03Z</time></trkpt><trkpt lat="42.29305972189764" lon="13.309427388214827"><ele>963.0</ele><time>2026-05-02T16:17:04Z</time></trkpt><trkpt lat="42.293325320868476" lon="13.309434631002334"><ele>961.0</ele><time>2026-05-02T16:17:05Z</time></trkpt><trkpt lat="42.29359553602137" lon="13.309439780583684"><ele>959.0</ele><time>2026-05-02T16:17:06Z</time></trkpt><trkpt lat="42.29385723441388" lon="13.30944531327554"><ele>949.5</ele><time>2026-05-02T16:17:07Z</time></trkpt><trkpt lat="42.294105744119236" lon="13.3094520716492"><ele>940.0</ele><time>2026-05-02T16:17:08Z</time></trkpt><trkpt lat="42.29435024738385" lon="13.309455779478364"><ele>940.0</ele><time>2026-05-02T16:17:09Z</time></trkpt><trkpt lat="42.294605132157436" lon="13.309453235176191"><ele>940.0</ele><time>2026-05-02T16:17:10Z</time></trkpt><trkpt lat="42.29486807151354" lon="13.309439405237324"><ele>943.0</ele><time>2026-05-02T16:17:11Z</time></trkpt><trkpt lat="42.29513367540949" lon="13.309416123516044"><ele>946.0</ele><time>2026-05-02T16:17:12Z</time></trkpt><trkpt lat="42.29540380201446" lon="13.309370781741647"><ele>949.5</ele><time>2026-05-02T16:17:13Z</time></trkpt><trkpt lat="42.29567468331663" lon="13.3093080050144"><ele>953.0</ele><time>2026-05-02T16:17:14Z</time></trkpt><trkpt lat="42.29594436770647" lon="13.309229973989245"><ele>953.0</ele><time>2026-05-02T16:17:15Z</time></trkpt><trkpt lat="42.29621754637895" lon="13.309138779037767"><ele>953.0</ele><time>2026-05-02T16:17:16Z</time></trkpt><trkpt lat="42.296493352457496" lon="13.309032619378106"><ele>958.0</ele><time>2026-05-02T16:17:17Z</time></trkpt><trkpt lat="42.2967664605558" lon="13.308915446036679"><ele>963.0</ele><time>2026-05-02T16:17:18Z</time></trkpt><trkpt lat="42.29702984142472" lon="13.308802080043522"><ele>951.0</ele><time>2026-05-02T16:17:19Z</time></trkpt><trkpt lat="42.29728801716932" lon="13.308695380508782"><ele>939.0</ele><time>2026-05-02T16:17:20Z</time></trkpt><trkpt lat="42.29755149973015" lon="13.308584547572073"><ele>939.0</ele><time>2026-05-02T16:17:21Z</time></trkpt><trkpt lat="42.297815757000116" lon="13.308471948139234"><ele>939.0</ele><time>2026-05-02T16:17:22Z</time></trkpt><trkpt lat="42.29807588707373" lon="13.30835940759304"><ele>944.0</ele><time>2026-05-02T16:17:23Z</time></trkpt><trkpt lat="42.2983325497303" lon="13.30825007362563"><ele>949.0</ele><time>2026-05-02T16:17:24Z</time></trkpt><trkpt lat="42.2985927041449" lon="13.308138731478143"><ele>938.5</ele><time>2026-05-02T16:17:25Z</time></trkpt><trkpt lat="42.29884574939455" lon="13.308033485373057"><ele>928.0</ele><time>2026-05-02T16:17:26Z</time></trkpt><trkpt lat="42.29909325012008" lon="13.307927986250467"><ele>928.0</ele><time>2026-05-02T16:17:27Z</time></trkpt><trkpt lat="42.29934083431797" lon="13.307822269102896"><ele>928.0</ele><time>2026-05-02T16:17:28Z</time></trkpt><trkpt lat="42.29958945228481" lon="13.307717018007414"><ele>930.0</ele><time>2026-05-02T16:17:29Z</time></trkpt><trkpt lat="42.299835367038504" lon="13.307611828969716"><ele>932.0</ele><time>2026-05-02T16:17:30Z</time></trkpt><trkpt lat="42.30007940057286" lon="13.30750767827576"><ele>932.0</ele><time>2026-05-02T16:17:31Z</time></trkpt><trkpt lat="42.300313977801125" lon="13.307408144828633"><ele>932.0</ele><time>2026-05-02T16:17:32Z</time></trkpt><trkpt lat="42.300545552576786" lon="13.307308074182684"><ele>919.0</ele><time>2026-05-02T16:17:33Z</time></trkpt><trkpt lat="42.300770680519804" lon="13.307209072507145"><ele>906.0</ele><time>2026-05-02T16:17:34Z</time></trkpt><trkpt lat="42.300990074745144" lon="13.307115277375251"><ele>906.0</ele><time>2026-05-02T16:17:35Z</time></trkpt><trkpt lat="42.30122522500733" lon="13.30701557868142"><ele>906.0</ele><time>2026-05-02T16:17:36Z</time></trkpt><trkpt lat="42.301470941832406" lon="13.30691223064552"><ele>909.0</ele><time>2026-05-02T16:17:37Z</time></trkpt><trkpt lat="42.30171140615436" lon="13.306815375620488"><ele>912.0</ele><time>2026-05-02T16:17:38Z</time></trkpt><trkpt lat="42.301954721985496" lon="13.306715511328168"><ele>912.0</ele><time>2026-05-02T16:17:39Z</time></trkpt><trkpt lat="42.30219323230399" lon="13.306616807459262"><ele>912.0</ele><time>2026-05-02T16:17:40Z</time></trkpt><trkpt lat="42.30242336322454" lon="13.306516814346761"><ele>917.0</ele><time>2026-05-02T16:17:41Z</time></trkpt><trkpt lat="42.30265935257312" lon="13.306415076218313"><ele>922.0</ele><time>2026-05-02T16:17:42Z</time></trkpt><trkpt lat="42.30290263338443" lon="13.306307992185383"><ele>909.5</ele><time>2026-05-02T16:17:43Z</time></trkpt><trkpt lat="42.30314622323029" lon="13.306199678094858"><ele>897.0</ele><time>2026-05-02T16:17:44Z</time></trkpt><trkpt lat="42.30338836663905" lon="13.30609477787951"><ele>897.0</ele><time>2026-05-02T16:17:45Z</time></trkpt><trkpt lat="42.30363230145148" lon="13.305988099078787"><ele>897.0</ele><time>2026-05-02T16:17:46Z</time></trkpt><trkpt lat="42.30387646922548" lon="13.305876073025948"><ele>903.5</ele><time>2026-05-02T16:17:47Z</time></trkpt><trkpt lat="42.30411607896666" lon="13.305756210524997"><ele>910.0</ele><time>2026-05-02T16:17:48Z</time></trkpt><trkpt lat="42.304346375298756" lon="13.305629836722293"><ele>899.5</ele><time>2026-05-02T16:17:49Z</time></trkpt><trkpt lat="42.30456927990834" lon="13.305503570545701"><ele>889.0</ele><time>2026-05-02T16:17:50Z</time></trkpt><trkpt lat="42.304800829942174" lon="13.305372490234591"><ele>889.0</ele><time>2026-05-02T16:17:51Z</time></trkpt><trkpt lat="42.30503682073082" lon="13.305247014844259"><ele>889.0</ele><time>2026-05-02T16:17:52Z</time></trkpt><trkpt lat="42.305274721870504" lon="13.305126698155789"><ele>889.0</ele><time>2026-05-02T16:17:53Z</time></trkpt><trkpt lat="42.30552281284832" lon="13.3050130296042"><ele>889.0</ele><time>2026-05-02T16:17:54Z</time></trkpt><trkpt lat="42.30577764394949" lon="13.304909392345753"><ele>895.0</ele><time>2026-05-02T16:17:55Z</time></trkpt><trkpt lat="42.306033958729536" lon="13.304821129735672"><ele>901.0</ele><time>2026-05-02T16:17:56Z</time></trkpt><trkpt lat="42.30629570147811" lon="13.304749406071691"><ele>892.0</ele><time>2026-05-02T16:17:57Z</time></trkpt><trkpt lat="42.30654688987743" lon="13.304697188976457"><ele>883.0</ele><time>2026-05-02T16:17:58Z</time></trkpt><trkpt lat="42.30678954279728" lon="13.304659558446511"><ele>883.0</ele><time>2026-05-02T16:17:59Z</time></trkpt><trkpt lat="42.307031003352726" lon="13.304629560367957"><ele>883.0</ele><time>2026-05-02T16:18:00Z</time></trkpt><trkpt lat="42.30727598969898" lon="13.304609855757635"><ele>887.0</ele><time>2026-05-02T16:18:01Z</time></trkpt><trkpt lat="42.307522856424356" lon="13.304601603412252"><ele>891.0</ele><time>2026-05-02T16:18:02Z</time></trkpt><trkpt lat="42.30775509971782" lon="13.304610772280595"><ele>891.0</ele><time>2026-05-02T16:18:03Z</time></trkpt><trkpt lat="42.30798611735525" lon="13.304629321847838"><ele>891.0</ele><time>2026-05-02T16:18:04Z</time></trkpt><trkpt lat="42.30822771395303" lon="13.304667265866767"><ele>890.0</ele><time>2026-05-02T16:18:05Z</time></trkpt><trkpt lat="42.30845433253409" lon="13.304715286146505"><ele>889.0</ele><time>2026-05-02T16:18:06Z</time></trkpt><trkpt lat="42.30868664701144" lon="13.304775676728962"><ele>888.5</ele><time>2026-05-02T16:18:07Z</time></trkpt><trkpt lat="42.30892470447784" lon="13.30484607789187"><ele>888.0</ele><time>2026-05-02T16:18:08Z</time></trkpt><trkpt lat="42.309165394567415" lon="13.304931185895617"><ele>888.0</ele><time>2026-05-02T16:18:09Z</time></trkpt><trkpt lat="42.30940793514694" lon="13.305026877978017"><ele>888.0</ele><time>2026-05-02T16:18:10Z</time></trkpt><trkpt lat="42.30964667066532" lon="13.30513820012519"><ele>885.0</ele><time>2026-05-02T16:18:11Z</time></trkpt><trkpt lat="42.309876685174565" lon="13.30526137510275"><ele>882.0</ele><time>2026-05-02T16:18:12Z</time></trkpt><trkpt lat="42.31008712142806" lon="13.305388263611416"><ele>882.0</ele><time>2026-05-02T16:18:13Z</time></trkpt><trkpt lat="42.31028698695092" lon="13.305526936777195"><ele>882.0</ele><time>2026-05-02T16:18:14Z</time></trkpt><trkpt lat="42.31050114466644" lon="13.305679984119465"><ele>881.5</ele><time>2026-05-02T16:18:15Z</time></trkpt><trkpt lat="42.31071318567035" lon="13.305839371964273"><ele>881.0</ele><time>2026-05-02T16:18:16Z</time></trkpt><trkpt lat="42.31093250166893" lon="13.306015338186253"><ele>881.0</ele><time>2026-05-02T16:18:17Z</time></trkpt><trkpt lat="42.31115895672136" lon="13.306205656581557"><ele>881.0</ele><time>2026-05-02T16:18:18Z</time></trkpt><trkpt lat="42.31139218379207" lon="13.306411640002022"><ele>882.0</ele><time>2026-05-02T16:18:19Z</time></trkpt><trkpt lat="42.311631557880965" lon="13.306630266409035"><ele>883.0</ele><time>2026-05-02T16:18:20Z</time></trkpt><trkpt lat="42.311871547370345" lon="13.306852737670251"><ele>883.0</ele><time>2026-05-02T16:18:21Z</time></trkpt><trkpt lat="42.31211060217972" lon="13.307074577872717"><ele>883.0</ele><time>2026-05-02T16:18:22Z</time></trkpt><trkpt lat="42.31234615282831" lon="13.3072950861294"><ele>881.5</ele><time>2026-05-02T16:18:23Z</time></trkpt><trkpt lat="42.31258504043597" lon="13.307518492230033"><ele>880.0</ele><time>2026-05-02T16:18:23.999Z</time></trkpt><trkpt lat="42.312824853836304" lon="13.307742562043313"><ele>880.0</ele><time>2026-05-02T16:18:24.999Z</time></trkpt><trkpt lat="42.31306484424207" lon="13.307966591165068"><ele>880.0</ele><time>2026-05-02T16:18:25.999Z</time></trkpt><trkpt lat="42.313302099116754" lon="13.308189246472727"><ele>874.0</ele><time>2026-05-02T16:18:27.001Z</time></trkpt><trkpt lat="42.313534197849066" lon="13.308406921382803"><ele>868.0</ele><time>2026-05-02T16:18:28.001Z</time></trkpt><trkpt lat="42.31376485532315" lon="13.308624356721628"><ele>859.5</ele><time>2026-05-02T16:18:29.001Z</time></trkpt><trkpt lat="42.31398974683279" lon="13.308838041077998"><ele>851.0</ele><time>2026-05-02T16:18:30.001Z</time></trkpt><trkpt lat="42.314212702517246" lon="13.309053105931856"><ele>851.0</ele><time>2026-05-02T16:18:31.001Z</time></trkpt><trkpt lat="42.314427417852755" lon="13.309258198416385"><ele>851.0</ele><time>2026-05-02T16:18:32.001Z</time></trkpt><trkpt lat="42.31464603295191" lon="13.30946532733358"><ele>847.5</ele><time>2026-05-02T16:18:33.001Z</time></trkpt><trkpt lat="42.314872048840236" lon="13.309676784547891"><ele>844.0</ele><time>2026-05-02T16:18:34.001Z</time></trkpt><trkpt lat="42.31510261699903" lon="13.30989243972617"><ele>844.0</ele><time>2026-05-02T16:18:35.001Z</time></trkpt><trkpt lat="42.315337119161924" lon="13.310114212531625"><ele>844.0</ele><time>2026-05-02T16:18:36.001Z</time></trkpt><trkpt lat="42.31557644756362" lon="13.310339816042797"><ele>837.5</ele><time>2026-05-02T16:18:37.001Z</time></trkpt><trkpt lat="42.315816951786275" lon="13.310566858436118"><ele>831.0</ele><time>2026-05-02T16:18:38.001Z</time></trkpt><trkpt lat="42.316058457594224" lon="13.31079237701279"><ele>831.0</ele><time>2026-05-02T16:18:39.001Z</time></trkpt><trkpt lat="42.316297953454225" lon="13.311015263057257"><ele>831.0</ele><time>2026-05-02T16:18:40.001Z</time></trkpt><trkpt lat="42.316536003723556" lon="13.311238306735815"><ele>835.0</ele><time>2026-05-02T16:18:41.001Z</time></trkpt><trkpt lat="42.31677598392256" lon="13.311464407464783"><ele>839.0</ele><time>2026-05-02T16:18:42.001Z</time></trkpt><trkpt lat="42.31701984204704" lon="13.311694531258034"><ele>842.5</ele><time>2026-05-02T16:18:43.001Z</time></trkpt><trkpt lat="42.31726401272507" lon="13.311927078563707"><ele>846.0</ele><time>2026-05-02T16:18:44.001Z</time></trkpt><trkpt lat="42.31750897438086" lon="13.312159451238484"><ele>848.5</ele><time>2026-05-02T16:18:45.001Z</time></trkpt><trkpt lat="42.31775759151665" lon="13.312391183089854"><ele>851.0</ele><time>2026-05-02T16:18:46.001Z</time></trkpt><trkpt lat="42.31801106487378" lon="13.312625379448244"><ele>851.0</ele><time>2026-05-02T16:18:47.001Z</time></trkpt><trkpt lat="42.31826589023404" lon="13.31286072718417"><ele>851.0</ele><time>2026-05-02T16:18:48.001Z</time></trkpt><trkpt lat="42.3185205933393" lon="13.313100377009192"><ele>851.5</ele><time>2026-05-02T16:18:49.001Z</time></trkpt><trkpt lat="42.31876772300936" lon="13.31333689595888"><ele>852.0</ele><time>2026-05-02T16:18:50.001Z</time></trkpt><trkpt lat="42.319005662616746" lon="13.313561738034581"><ele>849.5</ele><time>2026-05-02T16:18:51.001Z</time></trkpt><trkpt lat="42.31924028478324" lon="13.31378469191861"><ele>847.0</ele><time>2026-05-02T16:18:52.001Z</time></trkpt><trkpt lat="42.31947136002524" lon="13.314007159398374"><ele>847.0</ele><time>2026-05-02T16:18:53.001Z</time></trkpt><trkpt lat="42.31970312316899" lon="13.314226116126884"><ele>847.0</ele><time>2026-05-02T16:18:54Z</time></trkpt><trkpt lat="42.31993128478515" lon="13.31443896277596"><ele>844.0</ele><time>2026-05-02T16:18:55Z</time></trkpt><trkpt lat="42.32016201660835" lon="13.314648780131225"><ele>841.0</ele><time>2026-05-02T16:18:56Z</time></trkpt><trkpt lat="42.32038276005737" lon="13.314844395060126"><ele>836.0</ele><time>2026-05-02T16:18:57Z</time></trkpt><trkpt lat="42.32061016691712" lon="13.315035849273016"><ele>831.0</ele><time>2026-05-02T16:18:58Z</time></trkpt><trkpt lat="42.32084722212759" lon="13.315229527332269"><ele>831.0</ele><time>2026-05-02T16:18:59Z</time></trkpt><trkpt lat="42.32109568501189" lon="13.315419959046547"><ele>831.0</ele><time>2026-05-02T16:19:00Z</time></trkpt><trkpt lat="42.32135895084005" lon="13.315603609941565"><ele>827.5</ele><time>2026-05-02T16:19:01Z</time></trkpt><trkpt lat="42.321630541675454" lon="13.315780047211907"><ele>824.0</ele><time>2026-05-02T16:19:02Z</time></trkpt><trkpt lat="42.321907036924" lon="13.315944058018049"><ele>824.0</ele><time>2026-05-02T16:19:03Z</time></trkpt><trkpt lat="42.32218905989947" lon="13.31609804862066"><ele>824.0</ele><time>2026-05-02T16:19:04Z</time></trkpt><trkpt lat="42.32247708551898" lon="13.31624190430233"><ele>821.5</ele><time>2026-05-02T16:19:05Z</time></trkpt><trkpt lat="42.32276926527925" lon="13.31637253600084"><ele>819.0</ele><time>2026-05-02T16:19:06Z</time></trkpt><trkpt lat="42.32305891753914" lon="13.316485154562104"><ele>817.0</ele><time>2026-05-02T16:19:07Z</time></trkpt><trkpt lat="42.323333336704685" lon="13.31657864754432"><ele>815.0</ele><time>2026-05-02T16:19:08Z</time></trkpt><trkpt lat="42.32360363220521" lon="13.316659096197162"><ele>815.0</ele><time>2026-05-02T16:19:09Z</time></trkpt><trkpt lat="42.32388303898829" lon="13.31673291065358"><ele>815.0</ele><time>2026-05-02T16:19:10Z</time></trkpt><trkpt lat="42.324168023591604" lon="13.316795539248867"><ele>812.5</ele><time>2026-05-02T16:19:11Z</time></trkpt><trkpt lat="42.32443855347516" lon="13.316841694476778"><ele>810.0</ele><time>2026-05-02T16:19:12Z</time></trkpt><trkpt lat="42.32470341329015" lon="13.316876242262833"><ele>808.5</ele><time>2026-05-02T16:19:13Z</time></trkpt><trkpt lat="42.32497044411006" lon="13.316900660340046"><ele>807.0</ele><time>2026-05-02T16:19:14Z</time></trkpt><trkpt lat="42.325235877417775" lon="13.316913529690114"><ele>807.0</ele><time>2026-05-02T16:19:15Z</time></trkpt><trkpt lat="42.32550203638744" lon="13.316919877755248"><ele>807.0</ele><time>2026-05-02T16:19:16Z</time></trkpt><trkpt lat="42.32576480902305" lon="13.31692666541015"><ele>807.5</ele><time>2026-05-02T16:19:17Z</time></trkpt><trkpt lat="42.32602456345057" lon="13.316928668423587"><ele>808.0</ele><time>2026-05-02T16:19:18Z</time></trkpt><trkpt lat="42.326293347377536" lon="13.316923086998813"><ele>807.5</ele><time>2026-05-02T16:19:19Z</time></trkpt><trkpt lat="42.32656660199701" lon="13.316911829329252"><ele>807.0</ele><time>2026-05-02T16:19:20Z</time></trkpt><trkpt lat="42.32685338010118" lon="13.316903436382157"><ele>807.0</ele><time>2026-05-02T16:19:21Z</time></trkpt><trkpt lat="42.327144801718724" lon="13.316897008442538"><ele>807.0</ele><time>2026-05-02T16:19:22Z</time></trkpt><trkpt lat="42.32742886231113" lon="13.316890887847894"><ele>804.5</ele><time>2026-05-02T16:19:23Z</time></trkpt><trkpt lat="42.32771106056711" lon="13.316882938371286"><ele>802.0</ele><time>2026-05-02T16:19:24Z</time></trkpt><trkpt lat="42.3279965161779" lon="13.31687469069296"><ele>798.0</ele><time>2026-05-02T16:19:25Z</time></trkpt><trkpt lat="42.32828583086969" lon="13.316864022681283"><ele>794.0</ele><time>2026-05-02T16:19:26Z</time></trkpt><trkpt lat="42.3285768995166" lon="13.316854271557519"><ele>794.0</ele><time>2026-05-02T16:19:27Z</time></trkpt><trkpt lat="42.32887060758299" lon="13.316847617136343"><ele>794.0</ele><time>2026-05-02T16:19:28Z</time></trkpt><trkpt lat="42.32917146763595" lon="13.316843316539138"><ele>792.5</ele><time>2026-05-02T16:19:29Z</time></trkpt><trkpt lat="42.329465003746215" lon="13.316838709954423"><ele>791.0</ele><time>2026-05-02T16:19:30Z</time></trkpt><trkpt lat="42.32975533648193" lon="13.316830568515394"><ele>789.0</ele><time>2026-05-02T16:19:31Z</time></trkpt><trkpt lat="42.33004555738185" lon="13.316821963257066"><ele>787.0</ele><time>2026-05-02T16:19:32Z</time></trkpt><trkpt lat="42.33033710935647" lon="13.316808611288591"><ele>786.5</ele><time>2026-05-02T16:19:33Z</time></trkpt><trkpt lat="42.3306329148403" lon="13.316788024560998"><ele>786.0</ele><time>2026-05-02T16:19:34Z</time></trkpt><trkpt lat="42.330941323460614" lon="13.316771261477742"><ele>786.0</ele><time>2026-05-02T16:19:35Z</time></trkpt><trkpt lat="42.331265976774766" lon="13.316751390293515"><ele>786.0</ele><time>2026-05-02T16:19:36Z</time></trkpt><trkpt lat="42.33160122343609" lon="13.316742557566588"><ele>783.5</ele><time>2026-05-02T16:19:37Z</time></trkpt><trkpt lat="42.33194768509289" lon="13.316734995967568"><ele>781.0</ele><time>2026-05-02T16:19:38Z</time></trkpt><trkpt lat="42.332295343361075" lon="13.316730502495957"><ele>778.5</ele><time>2026-05-02T16:19:39Z</time></trkpt><trkpt lat="42.332635103048844" lon="13.316727849228439"><ele>776.0</ele><time>2026-05-02T16:19:40Z</time></trkpt><trkpt lat="42.33296319439015" lon="13.316726763808846"><ele>775.5</ele><time>2026-05-02T16:19:41Z</time></trkpt><trkpt lat="42.33328959692216" lon="13.316727549628848"><ele>775.0</ele><time>2026-05-02T16:19:42Z</time></trkpt><trkpt lat="42.3335964180148" lon="13.316723103187973"><ele>775.0</ele><time>2026-05-02T16:19:43Z</time></trkpt><trkpt lat="42.33388816582439" lon="13.316713516270939"><ele>775.0</ele><time>2026-05-02T16:19:44Z</time></trkpt><trkpt lat="42.334173389182325" lon="13.316706376277082"><ele>772.0</ele><time>2026-05-02T16:19:45Z</time></trkpt><trkpt lat="42.334450917622625" lon="13.316702588865798"><ele>769.0</ele><time>2026-05-02T16:19:46Z</time></trkpt><trkpt lat="42.334718697163716" lon="13.316699406033804"><ele>769.0</ele><time>2026-05-02T16:19:47Z</time></trkpt><trkpt lat="42.334996202375486" lon="13.316689663358076"><ele>769.0</ele><time>2026-05-02T16:19:48Z</time></trkpt><trkpt lat="42.33527486126099" lon="13.316680705598213"><ele>768.0</ele><time>2026-05-02T16:19:49Z</time></trkpt><trkpt lat="42.33555831198507" lon="13.316675176853195"><ele>767.0</ele><time>2026-05-02T16:19:50Z</time></trkpt><trkpt lat="42.33584733452644" lon="13.316670161997921"><ele>767.0</ele><time>2026-05-02T16:19:51Z</time></trkpt><trkpt lat="42.336123877312446" lon="13.316664754891105"><ele>767.0</ele><time>2026-05-02T16:19:52Z</time></trkpt><trkpt lat="42.336387271977195" lon="13.316659838515921"><ele>764.0</ele><time>2026-05-02T16:19:53Z</time></trkpt><trkpt lat="42.33666005928201" lon="13.316652054211625"><ele>761.0</ele><time>2026-05-02T16:19:54Z</time></trkpt><trkpt lat="42.33693902298936" lon="13.316640899228775"><ele>758.5</ele><time>2026-05-02T16:19:55Z</time></trkpt><trkpt lat="42.33722054885157" lon="13.31663224530257"><ele>756.0</ele><time>2026-05-02T16:19:56Z</time></trkpt><trkpt lat="42.337501021327945" lon="13.316625680901616"><ele>756.0</ele><time>2026-05-02T16:19:57Z</time></trkpt><trkpt lat="42.33777471705768" lon="13.316623535117015"><ele>756.0</ele><time>2026-05-02T16:19:58Z</time></trkpt><trkpt lat="42.338042564582736" lon="13.316618369249671"><ele>754.5</ele><time>2026-05-02T16:19:59Z</time></trkpt><trkpt lat="42.33831749670121" lon="13.316611935430991"><ele>753.0</ele><time>2026-05-02T16:20:00Z</time></trkpt><trkpt lat="42.3386060473142" lon="13.316603597872376"><ele>751.5</ele><time>2026-05-02T16:20:01Z</time></trkpt><trkpt lat="42.33890032472193" lon="13.316601035441376"><ele>750.0</ele><time>2026-05-02T16:20:02Z</time></trkpt><trkpt lat="42.33918854368147" lon="13.316603763792074"><ele>750.0</ele><time>2026-05-02T16:20:03Z</time></trkpt><trkpt lat="42.33946872171825" lon="13.316613747514412"><ele>750.0</ele><time>2026-05-02T16:20:04Z</time></trkpt><trkpt lat="42.339754930655836" lon="13.316631056541839"><ele>748.5</ele><time>2026-05-02T16:20:05Z</time></trkpt><trkpt lat="42.34004104031445" lon="13.31665903235278"><ele>747.0</ele><time>2026-05-02T16:20:06Z</time></trkpt><trkpt lat="42.34032788311158" lon="13.316695405118425"><ele>746.0</ele><time>2026-05-02T16:20:07Z</time></trkpt><trkpt lat="42.34060439616329" lon="13.316740789554174"><ele>745.0</ele><time>2026-05-02T16:20:08Z</time></trkpt><trkpt lat="42.34088580595374" lon="13.31680025105601"><ele>745.0</ele><time>2026-05-02T16:20:09Z</time></trkpt><trkpt lat="42.3411753595611" lon="13.316874234913486"><ele>745.0</ele><time>2026-05-02T16:20:10Z</time></trkpt><trkpt lat="42.34146178450177" lon="13.316962972807147"><ele>742.5</ele><time>2026-05-02T16:20:11Z</time></trkpt><trkpt lat="42.34175109871969" lon="13.317063217907092"><ele>740.0</ele><time>2026-05-02T16:20:12Z</time></trkpt><trkpt lat="42.34202351938629" lon="13.317174761967912"><ele>735.0</ele><time>2026-05-02T16:20:13Z</time></trkpt><trkpt lat="42.342290771819926" lon="13.317301958087155"><ele>730.0</ele><time>2026-05-02T16:20:14Z</time></trkpt><trkpt lat="42.342556096581205" lon="13.317443244730313"><ele>730.0</ele><time>2026-05-02T16:20:15Z</time></trkpt><trkpt lat="42.342822502548735" lon="13.317598157259637"><ele>730.0</ele><time>2026-05-02T16:20:16Z</time></trkpt><trkpt lat="42.343079793260664" lon="13.317762666724484"><ele>730.0</ele><time>2026-05-02T16:20:17Z</time></trkpt><trkpt lat="42.34332731010075" lon="13.317937074533528"><ele>730.0</ele><time>2026-05-02T16:20:18Z</time></trkpt><trkpt lat="42.34357828416627" lon="13.318125535483107"><ele>729.0</ele><time>2026-05-02T16:20:19Z</time></trkpt><trkpt lat="42.34382587503257" lon="13.318328483276147"><ele>728.0</ele><time>2026-05-02T16:20:20Z</time></trkpt><trkpt lat="42.34406446821097" lon="13.318543142340618"><ele>728.0</ele><time>2026-05-02T16:20:21Z</time></trkpt><trkpt lat="42.34429912509006" lon="13.31877043648037"><ele>728.0</ele><time>2026-05-02T16:20:22Z</time></trkpt><trkpt lat="42.344525735201984" lon="13.31900666508423"><ele>722.5</ele><time>2026-05-02T16:20:23Z</time></trkpt><trkpt lat="42.3447505860027" lon="13.31925607142349"><ele>717.0</ele><time>2026-05-02T16:20:24Z</time></trkpt><trkpt lat="42.344971564725626" lon="13.319512710956209"><ele>722.0</ele><time>2026-05-02T16:20:25Z</time></trkpt><trkpt lat="42.34518794309672" lon="13.319775265137501"><ele>727.0</ele><time>2026-05-02T16:20:26Z</time></trkpt><trkpt lat="42.34538739643805" lon="13.32003513487522"><ele>735.0</ele><time>2026-05-02T16:20:27Z</time></trkpt><trkpt lat="42.345567488189964" lon="13.320288755700947"><ele>743.0</ele><time>2026-05-02T16:20:28Z</time></trkpt><trkpt lat="42.34574952882801" lon="13.320551924969665"><ele>749.5</ele><time>2026-05-02T16:20:29Z</time></trkpt><trkpt lat="42.3459380026671" lon="13.320818878255874"><ele>756.0</ele><time>2026-05-02T16:20:30Z</time></trkpt><trkpt lat="42.34612552654325" lon="13.321080274480382"><ele>756.0</ele><time>2026-05-02T16:20:30.999Z</time></trkpt><trkpt lat="42.3463134700689" lon="13.321341915697335"><ele>756.0</ele><time>2026-05-02T16:20:32.001Z</time></trkpt><trkpt lat="42.34650536319391" lon="13.321610726654818"><ele>764.0</ele><time>2026-05-02T16:20:33.001Z</time></trkpt><trkpt lat="42.34669595227051" lon="13.321881815173773"><ele>772.0</ele><time>2026-05-02T16:20:34.001Z</time></trkpt><trkpt lat="42.34689375270169" lon="13.32217077490133"><ele>769.5</ele><time>2026-05-02T16:20:35.062Z</time></trkpt><trkpt lat="42.34706039398783" lon="13.322455751471184"><ele>767.0</ele><time>2026-05-02T16:20:36.062Z</time></trkpt><trkpt lat="42.347232054605584" lon="13.322725823157795"><ele>767.0</ele><time>2026-05-02T16:20:37.06Z</time></trkpt><trkpt lat="42.34740644518572" lon="13.323000096090002"><ele>767.0</ele><time>2026-05-02T16:20:38.059Z</time></trkpt><trkpt lat="42.34860375368918" lon="13.325201799086171"><ele>738.0</ele><time>2026-05-02T16:20:41.192Z</time></trkpt><trkpt lat="42.349121662989624" lon="13.326345986417362"><ele>719.0</ele><time>2026-05-02T16:20:42.197Z</time></trkpt><trkpt lat="42.349613256227606" lon="13.327888252802616"><ele>708.5</ele><time>2026-05-02T16:20:51.001Z</time></trkpt><trkpt lat="42.349721834999" lon="13.328282429601877"><ele>698.0</ele><time>2026-05-02T16:20:52.001Z</time></trkpt><trkpt lat="42.34981896072191" lon="13.328725585738159"><ele>697.0</ele><time>2026-05-02T16:20:53.001Z</time></trkpt><trkpt lat="42.349881170685535" lon="13.329125373818904"><ele>696.0</ele><time>2026-05-02T16:20:54Z</time></trkpt><trkpt lat="42.34993713892034" lon="13.329519853475986"><ele>696.5</ele><time>2026-05-02T16:20:55Z</time></trkpt><trkpt lat="42.34998519412973" lon="13.329916838831545"><ele>697.0</ele><time>2026-05-02T16:20:56Z</time></trkpt><trkpt lat="42.350017490965" lon="13.330294734970467"><ele>697.5</ele><time>2026-05-02T16:20:57Z</time></trkpt><trkpt lat="42.350043985607094" lon="13.330674783831688"><ele>698.0</ele><time>2026-05-02T16:20:58Z</time></trkpt><trkpt lat="42.35006011762373" lon="13.33107653137387"><ele>699.5</ele><time>2026-05-02T16:20:59Z</time></trkpt><trkpt lat="42.35006581428009" lon="13.331474977141147"><ele>701.0</ele><time>2026-05-02T16:21:00Z</time></trkpt><trkpt lat="42.35005981604801" lon="13.331857912773698"><ele>699.0</ele><time>2026-05-02T16:21:01Z</time></trkpt><trkpt lat="42.350045832207286" lon="13.332244120105765"><ele>697.0</ele><time>2026-05-02T16:21:02Z</time></trkpt><trkpt lat="42.35002726801254" lon="13.332632956829746"><ele>697.0</ele><time>2026-05-02T16:21:03Z</time></trkpt><trkpt lat="42.350006120335316" lon="13.333018012867843"><ele>697.0</ele><time>2026-05-02T16:21:04Z</time></trkpt><trkpt lat="42.34998045601069" lon="13.33339468350002"><ele>693.0</ele><time>2026-05-02T16:21:05Z</time></trkpt><trkpt lat="42.349951792004134" lon="13.333759426609882"><ele>689.0</ele><time>2026-05-02T16:21:06Z</time></trkpt><trkpt lat="42.34991773314282" lon="13.334139584516658"><ele>685.0</ele><time>2026-05-02T16:21:07Z</time></trkpt><trkpt lat="42.34988375890538" lon="13.334523340302114"><ele>681.0</ele><time>2026-05-02T16:21:08Z</time></trkpt><trkpt lat="42.34984826443611" lon="13.334917339318412"><ele>678.0</ele><time>2026-05-02T16:21:09Z</time></trkpt><trkpt lat="42.349812891052764" lon="13.335315725462054"><ele>675.0</ele><time>2026-05-02T16:21:10Z</time></trkpt><trkpt lat="42.349776527832596" lon="13.33572416983959"><ele>673.0</ele><time>2026-05-02T16:21:11Z</time></trkpt><trkpt lat="42.34973814789297" lon="13.336131921003975"><ele>671.0</ele><time>2026-05-02T16:21:12Z</time></trkpt><trkpt lat="42.34969757103777" lon="13.336544604289998"><ele>679.5</ele><time>2026-05-02T16:21:13Z</time></trkpt><trkpt lat="42.34966022198054" lon="13.336944751253371"><ele>688.0</ele><time>2026-05-02T16:21:14Z</time></trkpt><trkpt lat="42.34962459300824" lon="13.337321574005685"><ele>688.0</ele><time>2026-05-02T16:21:15Z</time></trkpt><trkpt lat="42.349589718429776" lon="13.337696335367909"><ele>688.0</ele><time>2026-05-02T16:21:16Z</time></trkpt><trkpt lat="42.34955672515913" lon="13.33807431162687"><ele>685.0</ele><time>2026-05-02T16:21:17Z</time></trkpt><trkpt lat="42.349521658438306" lon="13.338462782042873"><ele>682.0</ele><time>2026-05-02T16:21:18Z</time></trkpt><trkpt lat="42.34948384922926" lon="13.338857445642148"><ele>679.5</ele><time>2026-05-02T16:21:19Z</time></trkpt><trkpt lat="42.34944708796277" lon="13.33922693299156"><ele>677.0</ele><time>2026-05-02T16:21:20Z</time></trkpt><trkpt lat="42.34941206302622" lon="13.339586222570922"><ele>676.0</ele><time>2026-05-02T16:21:21Z</time></trkpt><trkpt lat="42.3493772615938" lon="13.33996617446848"><ele>675.0</ele><time>2026-05-02T16:21:22Z</time></trkpt><trkpt lat="42.3493424783558" lon="13.340355605880239"><ele>672.5</ele><time>2026-05-02T16:21:23Z</time></trkpt><trkpt lat="42.349307594569545" lon="13.340755736632756"><ele>670.0</ele><time>2026-05-02T16:21:24Z</time></trkpt><trkpt lat="42.3492716075448" lon="13.341155283907492"><ele>668.0</ele><time>2026-05-02T16:21:25Z</time></trkpt><trkpt lat="42.34923765643814" lon="13.341535667419198"><ele>666.0</ele><time>2026-05-02T16:21:26Z</time></trkpt><trkpt lat="42.3492008313111" lon="13.3419119827231"><ele>663.5</ele><time>2026-05-02T16:21:27Z</time></trkpt><trkpt lat="42.349166020384544" lon="13.342287442408258"><ele>661.0</ele><time>2026-05-02T16:21:28Z</time></trkpt><trkpt lat="42.34913345197296" lon="13.342648369249876"><ele>661.0</ele><time>2026-05-02T16:21:29Z</time></trkpt><trkpt lat="42.34910010050079" lon="13.343023698398897"><ele>661.0</ele><time>2026-05-02T16:21:30Z</time></trkpt><trkpt lat="42.349065978911554" lon="13.343409397692303"><ele>657.5</ele><time>2026-05-02T16:21:31Z</time></trkpt><trkpt lat="42.34902815009765" lon="13.343793947715476"><ele>654.0</ele><time>2026-05-02T16:21:32Z</time></trkpt><trkpt lat="42.34898408374267" lon="13.34417603722296"><ele>651.0</ele><time>2026-05-02T16:21:33Z</time></trkpt><trkpt lat="42.348932320539866" lon="13.344550947717773"><ele>648.0</ele><time>2026-05-02T16:21:34Z</time></trkpt><trkpt lat="42.348870860090315" lon="13.34491420912965"><ele>656.0</ele><time>2026-05-02T16:21:35Z</time></trkpt><trkpt lat="42.348798634184256" lon="13.34526538441254"><ele>664.0</ele><time>2026-05-02T16:21:36Z</time></trkpt><trkpt lat="42.34871461268688" lon="13.345618781051181"><ele>664.0</ele><time>2026-05-02T16:21:37Z</time></trkpt><trkpt lat="42.348618389365235" lon="13.345959989049309"><ele>664.0</ele><time>2026-05-02T16:21:38Z</time></trkpt><trkpt lat="42.34850789233905" lon="13.346299129379325"><ele>659.0</ele><time>2026-05-02T16:21:39Z</time></trkpt><trkpt lat="42.34838732304173" lon="13.346634200884822"><ele>654.0</ele><time>2026-05-02T16:21:40Z</time></trkpt><trkpt lat="42.348251801788166" lon="13.346974333361574"><ele>649.0</ele><time>2026-05-02T16:21:41Z</time></trkpt><trkpt lat="42.3481127657825" lon="13.34730864742753"><ele>644.0</ele><time>2026-05-02T16:21:42Z</time></trkpt><trkpt lat="42.347973120921814" lon="13.347647060045434"><ele>651.0</ele><time>2026-05-02T16:21:43Z</time></trkpt><trkpt lat="42.347837314939895" lon="13.347976507863466"><ele>658.0</ele><time>2026-05-02T16:21:44Z</time></trkpt><trkpt lat="42.34770090090748" lon="13.34829985082263"><ele>658.0</ele><time>2026-05-02T16:21:45Z</time></trkpt><trkpt lat="42.347566320228104" lon="13.348628312884818"><ele>658.0</ele><time>2026-05-02T16:21:46Z</time></trkpt><trkpt lat="42.34743754195602" lon="13.348953407519067"><ele>651.5</ele><time>2026-05-02T16:21:47Z</time></trkpt><trkpt lat="42.34731600960773" lon="13.349282713744348"><ele>645.0</ele><time>2026-05-02T16:21:48Z</time></trkpt><trkpt lat="42.347207399327495" lon="13.349602635407166"><ele>654.0</ele><time>2026-05-02T16:21:49Z</time></trkpt><trkpt lat="42.34710592919399" lon="13.349932661737068"><ele>663.0</ele><time>2026-05-02T16:21:50Z</time></trkpt><trkpt lat="42.347014705304694" lon="13.350263461675535"><ele>659.0</ele><time>2026-05-02T16:21:51Z</time></trkpt><trkpt lat="42.34693595033991" lon="13.350595421966922"><ele>655.0</ele><time>2026-05-02T16:21:52Z</time></trkpt><trkpt lat="42.346869115040406" lon="13.35093074584974"><ele>655.0</ele><time>2026-05-02T16:21:53Z</time></trkpt><trkpt lat="42.34681487057288" lon="13.35127293688941"><ele>655.0</ele><time>2026-05-02T16:21:54Z</time></trkpt><trkpt lat="42.346771541967215" lon="13.35163280815773"><ele>649.0</ele><time>2026-05-02T16:21:55Z</time></trkpt><trkpt lat="42.3467401274778" lon="13.351991683182577"><ele>643.0</ele><time>2026-05-02T16:21:56Z</time></trkpt><trkpt lat="42.34672692724714" lon="13.352331347771862"><ele>641.0</ele><time>2026-05-02T16:21:57Z</time></trkpt><trkpt lat="42.34672099688167" lon="13.352674037234355"><ele>639.0</ele><time>2026-05-02T16:21:58Z</time></trkpt><trkpt lat="42.34672684981476" lon="13.35302533907017"><ele>637.0</ele><time>2026-05-02T16:21:59Z</time></trkpt><trkpt lat="42.34674552964181" lon="13.353387701103719"><ele>635.0</ele><time>2026-05-02T16:22:00Z</time></trkpt><trkpt lat="42.346775779892845" lon="13.35374000648538"><ele>636.0</ele><time>2026-05-02T16:22:01Z</time></trkpt><trkpt lat="42.34682146833353" lon="13.354082483495857"><ele>637.0</ele><time>2026-05-02T16:22:02Z</time></trkpt><trkpt lat="42.34687896098193" lon="13.35441369992952"><ele>636.5</ele><time>2026-05-02T16:22:03Z</time></trkpt><trkpt lat="42.34694906521473" lon="13.354751066662788"><ele>636.0</ele><time>2026-05-02T16:22:04Z</time></trkpt><trkpt lat="42.34703078438718" lon="13.355088236309808"><ele>636.0</ele><time>2026-05-02T16:22:05Z</time></trkpt><trkpt lat="42.347133972259456" lon="13.355432242089893"><ele>636.0</ele><time>2026-05-02T16:22:06Z</time></trkpt><trkpt lat="42.34725897977617" lon="13.355785526784116"><ele>634.0</ele><time>2026-05-02T16:22:07Z</time></trkpt><trkpt lat="42.347404243026766" lon="13.356146047834654"><ele>632.0</ele><time>2026-05-02T16:22:08Z</time></trkpt><trkpt lat="42.347565644902225" lon="13.35651050402991"><ele>632.0</ele><time>2026-05-02T16:22:09Z</time></trkpt><trkpt lat="42.3477433276145" lon="13.35687030653684"><ele>632.0</ele><time>2026-05-02T16:22:10Z</time></trkpt><trkpt lat="42.3479260204031" lon="13.357204853962939"><ele>631.0</ele><time>2026-05-02T16:22:11Z</time></trkpt><trkpt lat="42.34811940201781" lon="13.357515280989718"><ele>630.0</ele><time>2026-05-02T16:22:12Z</time></trkpt><trkpt lat="42.34833104980892" lon="13.357811188993004"><ele>630.5</ele><time>2026-05-02T16:22:13Z</time></trkpt><trkpt lat="42.34854900505404" lon="13.358097876443072"><ele>631.0</ele><time>2026-05-02T16:22:14Z</time></trkpt><trkpt lat="42.34877373237103" lon="13.35837484572259"><ele>629.0</ele><time>2026-05-02T16:22:15Z</time></trkpt><trkpt lat="42.34900856588986" lon="13.358640038870618"><ele>627.0</ele><time>2026-05-02T16:22:16Z</time></trkpt><trkpt lat="42.34924730599383" lon="13.358867594109713"><ele>627.0</ele><time>2026-05-02T16:22:17Z</time></trkpt><trkpt lat="42.34949750498198" lon="13.359068694513418"><ele>627.0</ele><time>2026-05-02T16:22:18Z</time></trkpt><trkpt lat="42.34975448714884" lon="13.359244708905543"><ele>627.5</ele><time>2026-05-02T16:22:19Z</time></trkpt><trkpt lat="42.350015994052804" lon="13.359404641043728"><ele>628.0</ele><time>2026-05-02T16:22:20Z</time></trkpt><trkpt lat="42.35028186301897" lon="13.359552799813706"><ele>627.5</ele><time>2026-05-02T16:22:21Z</time></trkpt><trkpt lat="42.35055593367962" lon="13.359681106608745"><ele>627.0</ele><time>2026-05-02T16:22:22Z</time></trkpt><trkpt lat="42.3508265372889" lon="13.359790761488089"><ele>627.0</ele><time>2026-05-02T16:22:23Z</time></trkpt><trkpt lat="42.351099997014344" lon="13.359871571800273"><ele>627.0</ele><time>2026-05-02T16:22:24Z</time></trkpt><trkpt lat="42.35137479617201" lon="13.359936009454463"><ele>627.0</ele><time>2026-05-02T16:22:25Z</time></trkpt><trkpt lat="42.3516512078756" lon="13.359982919846521"><ele>627.0</ele><time>2026-05-02T16:22:26Z</time></trkpt><trkpt lat="42.3519290565051" lon="13.360014019319662"><ele>626.0</ele><time>2026-05-02T16:22:27Z</time></trkpt><trkpt lat="42.352214220857526" lon="13.360035317758367"><ele>625.0</ele><time>2026-05-02T16:22:27.999Z</time></trkpt><trkpt lat="42.352504533711844" lon="13.360052102404127"><ele>625.0</ele><time>2026-05-02T16:22:28.999Z</time></trkpt><trkpt lat="42.352802235747255" lon="13.360068044267777"><ele>625.0</ele><time>2026-05-02T16:22:29.999Z</time></trkpt><trkpt lat="42.353103768628735" lon="13.36008174877216"><ele>627.0</ele><time>2026-05-02T16:22:30.999Z</time></trkpt><trkpt lat="42.353404791473174" lon="13.360099456293087"><ele>629.0</ele><time>2026-05-02T16:22:31.999Z</time></trkpt><trkpt lat="42.35370319784171" lon="13.360117958372397"><ele>627.5</ele><time>2026-05-02T16:22:32.999Z</time></trkpt><trkpt lat="42.353986582464714" lon="13.360145688771125"><ele>626.0</ele><time>2026-05-02T16:22:33.999Z</time></trkpt><trkpt lat="42.35425314046058" lon="13.360183968818133"><ele>626.0</ele><time>2026-05-02T16:22:34.999Z</time></trkpt><trkpt lat="42.354523332974374" lon="13.360235498234628"><ele>626.0</ele><time>2026-05-02T16:22:35.999Z</time></trkpt><trkpt lat="42.354802428295564" lon="13.360295333550928"><ele>625.0</ele><time>2026-05-02T16:22:36.999Z</time></trkpt><trkpt lat="42.355080284053145" lon="13.36036256673888"><ele>624.0</ele><time>2026-05-02T16:22:38.001Z</time></trkpt><trkpt lat="42.35534026109184" lon="13.360428963096572"><ele>624.0</ele><time>2026-05-02T16:22:39.001Z</time></trkpt><trkpt lat="42.35558878646712" lon="13.360502133181603"><ele>624.0</ele><time>2026-05-02T16:22:40.001Z</time></trkpt><trkpt lat="42.35583338865877" lon="13.360578548311373"><ele>624.0</ele><time>2026-05-02T16:22:41.001Z</time></trkpt><trkpt lat="42.35607595572693" lon="13.360661701238106"><ele>624.0</ele><time>2026-05-02T16:22:42.001Z</time></trkpt><trkpt lat="42.35630049412596" lon="13.36074732092395"><ele>624.6666666666666</ele><time>2026-05-02T16:22:43.001Z</time></trkpt><trkpt lat="42.35651121449073" lon="13.360832810247276"><ele>625.3333333333333</ele><time>2026-05-02T16:22:44.001Z</time></trkpt><trkpt lat="42.35672317425476" lon="13.360922211780629"><ele>626.0</ele><time>2026-05-02T16:22:45.001Z</time></trkpt><trkpt lat="42.356953933392255" lon="13.361024200467917"><ele>626.0</ele><time>2026-05-02T16:22:46.001Z</time></trkpt><trkpt lat="42.35719303454699" lon="13.361137080333842"><ele>626.0</ele><time>2026-05-02T16:22:47.001Z</time></trkpt><trkpt lat="42.35743748391421" lon="13.36125734477084"><ele>626.0</ele><time>2026-05-02T16:22:48.001Z</time></trkpt><trkpt lat="42.357671413324034" lon="13.361379902228448"><ele>626.0</ele><time>2026-05-02T16:22:49.001Z</time></trkpt><trkpt lat="42.35790342823156" lon="13.361509805047426"><ele>626.5</ele><time>2026-05-02T16:22:50.001Z</time></trkpt><trkpt lat="42.358133461978426" lon="13.361653933593532"><ele>627.0</ele><time>2026-05-02T16:22:51.001Z</time></trkpt><trkpt lat="42.358355092383704" lon="13.361788059243864"><ele>627.0</ele><time>2026-05-02T16:22:52Z</time></trkpt><trkpt lat="42.35856111686456" lon="13.361915286304898"><ele>627.0</ele><time>2026-05-02T16:22:53Z</time></trkpt><trkpt lat="42.35875753711502" lon="13.362030467672884"><ele>627.0</ele><time>2026-05-02T16:22:54Z</time></trkpt><trkpt lat="42.35895684947269" lon="13.362149008746721"><ele>629.6666666666666</ele><time>2026-05-02T16:22:55Z</time></trkpt><trkpt lat="42.35914788472188" lon="13.362266874334535"><ele>632.3333333333333</ele><time>2026-05-02T16:22:56Z</time></trkpt><trkpt lat="42.35932598960666" lon="13.36237758124328"><ele>635.0</ele><time>2026-05-02T16:22:57Z</time></trkpt><trkpt lat="42.359492412038385" lon="13.3624836399349"><ele>635.0</ele><time>2026-05-02T16:22:58Z</time></trkpt><trkpt lat="42.35966086730441" lon="13.362595417440042"><ele>635.0</ele><time>2026-05-02T16:22:59Z</time></trkpt><trkpt lat="42.35983052594416" lon="13.362714373918283"><ele>635.0</ele><time>2026-05-02T16:23:00Z</time></trkpt><trkpt lat="42.35999690408894" lon="13.362834904841295"><ele>635.6666666666666</ele><time>2026-05-02T16:23:01Z</time></trkpt><trkpt lat="42.36015655843495" lon="13.362958266365252"><ele>636.3333333333334</ele><time>2026-05-02T16:23:02Z</time></trkpt><trkpt lat="42.36030280852146" lon="13.363089047508621"><ele>637.0</ele><time>2026-05-02T16:23:03Z</time></trkpt><trkpt lat="42.360440311465375" lon="13.363227395286641"><ele>636.3333333333334</ele><time>2026-05-02T16:23:04Z</time></trkpt><trkpt lat="42.36056899194371" lon="13.363380431257207"><ele>635.6666666666666</ele><time>2026-05-02T16:23:05Z</time></trkpt><trkpt lat="42.36069834790143" lon="13.36355286520871"><ele>635.0</ele><time>2026-05-02T16:23:06Z</time></trkpt><trkpt lat="42.36081656886411" lon="13.363733847462708"><ele>634.3333333333333</ele><time>2026-05-02T16:23:07Z</time></trkpt><trkpt lat="42.36092988141849" lon="13.363935383697436"><ele>633.6666666666666</ele><time>2026-05-02T16:23:08Z</time></trkpt><trkpt lat="42.361040528441904" lon="13.364143745035314"><ele>633.0</ele><time>2026-05-02T16:23:09Z</time></trkpt><trkpt lat="42.36113743213527" lon="13.364379163019386"><ele>633.0</ele><time>2026-05-02T16:23:10Z</time></trkpt><trkpt lat="42.361212143918145" lon="13.364609769840236"><ele>633.0</ele><time>2026-05-02T16:23:11Z</time></trkpt><trkpt lat="42.36127513921236" lon="13.364840992829832"><ele>633.0</ele><time>2026-05-02T16:23:12Z</time></trkpt><trkpt lat="42.361325623562685" lon="13.365085360431184"><ele>633.0</ele><time>2026-05-02T16:23:13Z</time></trkpt><trkpt lat="42.361363583395715" lon="13.365342689270491"><ele>633.0</ele><time>2026-05-02T16:23:14Z</time></trkpt><trkpt lat="42.3613856079117" lon="13.365585717485212"><ele>633.0</ele><time>2026-05-02T16:23:15Z</time></trkpt><trkpt lat="42.361399409042676" lon="13.365816366265372"><ele>633.3333333333334</ele><time>2026-05-02T16:23:16Z</time></trkpt><trkpt lat="42.36140967190987" lon="13.366067291471984"><ele>633.6666666666667</ele><time>2026-05-02T16:23:17Z</time></trkpt><trkpt lat="42.36141228642709" lon="13.3663240597687"><ele>634.0</ele><time>2026-05-02T16:23:18Z</time></trkpt><trkpt lat="42.36140696299504" lon="13.36657190863211"><ele>634.0</ele><time>2026-05-02T16:23:19Z</time></trkpt><trkpt lat="42.36141457896926" lon="13.366796799145162"><ele>634.0</ele><time>2026-05-02T16:23:20Z</time></trkpt><trkpt lat="42.36137126793824" lon="13.367043301539981"><ele>634.0</ele><time>2026-05-02T16:23:21Z</time></trkpt><trkpt lat="42.36134948434511" lon="13.367282568697469"><ele>632.6666666666667</ele><time>2026-05-02T16:23:22Z</time></trkpt><trkpt lat="42.361330397238895" lon="13.367517703042301"><ele>631.3333333333334</ele><time>2026-05-02T16:23:23Z</time></trkpt><trkpt lat="42.361310606784514" lon="13.36774275070544"><ele>630.0</ele><time>2026-05-02T16:23:24Z</time></trkpt><trkpt lat="42.36129170358262" lon="13.367955151191925"><ele>629.75</ele><time>2026-05-02T16:23:25Z</time></trkpt><trkpt lat="42.361274945172546" lon="13.368148218217275"><ele>629.5</ele><time>2026-05-02T16:23:26Z</time></trkpt><trkpt lat="42.3612585883981" lon="13.368330901351579"><ele>629.25</ele><time>2026-05-02T16:23:27Z</time></trkpt><trkpt lat="42.36123968875374" lon="13.368505670649956"><ele>629.0</ele><time>2026-05-02T16:23:28Z</time></trkpt><trkpt lat="42.36122134307246" lon="13.368694561902657"><ele>630.0</ele><time>2026-05-02T16:23:29Z</time></trkpt><trkpt lat="42.36120917131375" lon="13.368886618642373"><ele>631.0</ele><time>2026-05-02T16:23:30Z</time></trkpt><trkpt lat="42.36120077616019" lon="13.369070043691936"><ele>632.0</ele><time>2026-05-02T16:23:31Z</time></trkpt><trkpt lat="42.36119539491254" lon="13.369240802581741"><ele>633.0</ele><time>2026-05-02T16:23:32Z</time></trkpt><trkpt lat="42.36119187302752" lon="13.369396459387218"><ele>633.0</ele><time>2026-05-02T16:23:33Z</time></trkpt><trkpt lat="42.3611897825133" lon="13.369508602297625"><ele>633.0</ele><time>2026-05-02T16:23:34Z</time></trkpt><trkpt lat="42.36116838737168" lon="13.369665701624323"><ele>633.0</ele><time>2026-05-02T16:23:36Z</time></trkpt><trkpt lat="42.36116484778703" lon="13.369814004878403"><ele>633.0</ele><time>2026-05-02T16:23:38Z</time></trkpt><trkpt lat="42.36116294477504" lon="13.369927098759947"><ele>633.0</ele><time>2026-05-02T16:23:40Z</time></trkpt><trkpt lat="42.36116191611087" lon="13.370012800079095"><ele>634.4</ele><time>2026-05-02T16:24:55Z</time></trkpt><trkpt lat="42.361169407088575" lon="13.370106496770317"><ele>635.8</ele><time>2026-05-02T16:25:53.999Z</time></trkpt><trkpt lat="42.36116385093854" lon="13.370255915802591"><ele>637.2</ele><time>2026-05-02T16:25:55.999Z</time></trkpt><trkpt lat="42.3611507521845" lon="13.370407164521243"><ele>638.6</ele><time>2026-05-02T16:25:57.999Z</time></trkpt><trkpt lat="42.36114200037795" lon="13.370550656120082"><ele>640.0</ele><time>2026-05-02T16:25:59.999Z</time></trkpt><trkpt lat="42.36113623416647" lon="13.370684698682956"><ele>640.0</ele><time>2026-05-02T16:26:01.999Z</time></trkpt><trkpt lat="42.36113650083953" lon="13.37079417722325"><ele>640.0</ele><time>2026-05-02T16:26:02.999Z</time></trkpt><trkpt lat="42.3611401201939" lon="13.370918907237186"><ele>640.0</ele><time>2026-05-02T16:26:03.999Z</time></trkpt><trkpt lat="42.361141317789915" lon="13.371064561745081"><ele>640.0</ele><time>2026-05-02T16:26:04.999Z</time></trkpt><trkpt lat="42.36113526840607" lon="13.371219191082783"><ele>640.0</ele><time>2026-05-02T16:26:05.999Z</time></trkpt><trkpt lat="42.361128421147804" lon="13.37139025891158"><ele>640.4</ele><time>2026-05-02T16:26:06.999Z</time></trkpt><trkpt lat="42.361115819520926" lon="13.371574245249002"><ele>640.8</ele><time>2026-05-02T16:26:07.999Z</time></trkpt><trkpt lat="42.36110250705083" lon="13.371731789260938"><ele>641.2</ele><time>2026-05-02T16:26:08.999Z</time></trkpt><trkpt lat="42.361059391906956" lon="13.371848222852151"><ele>641.6</ele><time>2026-05-02T16:26:09.999Z</time></trkpt><trkpt lat="42.361042770558974" lon="13.371965409209034"><ele>642.0</ele><time>2026-05-02T16:26:10.999Z</time></trkpt><trkpt lat="42.3610461965273" lon="13.37208609648472"><ele>642.2</ele><time>2026-05-02T16:26:11.999Z</time></trkpt><trkpt lat="42.360994646098085" lon="13.372192450397424"><ele>642.4000000000001</ele><time>2026-05-02T16:26:12.999Z</time></trkpt><trkpt lat="42.360908188199595" lon="13.372265927918582"><ele>642.5999999999999</ele><time>2026-05-02T16:26:13.999Z</time></trkpt><trkpt lat="42.36080700995189" lon="13.372296382454811"><ele>642.8</ele><time>2026-05-02T16:26:14.999Z</time></trkpt><trkpt lat="42.36070800295821" lon="13.372308879575979"><ele>643.0</ele><time>2026-05-02T16:26:15.999Z</time></trkpt><trkpt lat="42.36059580835307" lon="13.372348133289128"><ele>642.5</ele><time>2026-05-02T16:26:16.999Z</time></trkpt><trkpt lat="42.360487413238594" lon="13.372410963292952"><ele>642.0</ele><time>2026-05-02T16:26:17.999Z</time></trkpt><trkpt lat="42.36036932063255" lon="13.372488171064246"><ele>641.5</ele><time>2026-05-02T16:26:18.999Z</time></trkpt><trkpt lat="42.360252792579416" lon="13.37256367666836"><ele>641.0</ele><time>2026-05-02T16:26:19.999Z</time></trkpt><trkpt lat="42.360155351255294" lon="13.372626684245155"><ele>641.0</ele><time>2026-05-02T16:26:20.999Z</time></trkpt><trkpt lat="42.36007286919807" lon="13.372684608948864"><ele>641.0</ele><time>2026-05-02T16:26:21.999Z</time></trkpt><trkpt lat="42.3599898813958" lon="13.372737246046189"><ele>641.0</ele><time>2026-05-02T16:26:22.999Z</time></trkpt><trkpt lat="42.3599126324825" lon="13.37279379508589"><ele>641.0</ele><time>2026-05-02T16:26:23.999Z</time></trkpt><trkpt lat="42.359859260111335" lon="13.37290438437455"><ele>641.0</ele><time>2026-05-02T16:26:24.999Z</time></trkpt><trkpt lat="42.35983964820901" lon="13.373035962403222"><ele>641.5999999999999</ele><time>2026-05-02T16:26:25.999Z</time></trkpt><trkpt lat="42.359855779980364" lon="13.37318368851706"><ele>642.2</ele><time>2026-05-02T16:26:26.999Z</time></trkpt><trkpt lat="42.359879064462966" lon="13.373328436975395"><ele>642.8</ele><time>2026-05-02T16:26:27.999Z</time></trkpt><trkpt lat="42.35990251151499" lon="13.373475101682407"><ele>643.4000000000001</ele><time>2026-05-02T16:26:28.999Z</time></trkpt><trkpt lat="42.35991647576561" lon="13.373591045637678"><ele>644.0</ele><time>2026-05-02T16:26:29.999Z</time></trkpt><trkpt lat="42.35995816008561" lon="13.373730083946027"><ele>644.0</ele><time>2026-05-02T16:26:31.999Z</time></trkpt><trkpt lat="42.360039714750336" lon="13.373809965252947"><ele>644.0</ele><time>2026-05-02T16:26:33.999Z</time></trkpt><trkpt lat="42.36011805610336" lon="13.373825308461134"><ele>644.0</ele><time>2026-05-02T16:26:35.999Z</time></trkpt><trkpt lat="42.36009941457032" lon="13.37390713541119"><ele>644.0</ele><time>2026-05-02T16:26:38.999Z</time></trkpt><trkpt lat="42.36006848003068" lon="13.373982099785588"><ele>644.0</ele><time>2026-05-02T16:26:43.999Z</time></trkpt><trkpt lat="42.360095284804345" lon="13.37406853558462"><ele>644.0</ele><time>2026-05-02T16:26:52Z</time></trkpt><trkpt lat="42.36007821815506" lon="13.373949692221506"><ele>644.2</ele><time>2026-05-02T16:26:57Z</time></trkpt><trkpt lat="42.3601122628157" lon="13.374050415197026"><ele>644.4000000000001</ele><time>2026-05-02T16:33:50.999Z</time></trkpt><trkpt lat="42.360092948888386" lon="13.374159143301053"><ele>644.6</ele><time>2026-05-02T16:33:52.999Z</time></trkpt><trkpt lat="42.36007189477266" lon="13.374323011432946"><ele>644.8</ele><time>2026-05-02T16:34:01.999Z</time></trkpt><trkpt lat="42.36006488378253" lon="13.37449266368944"><ele>645.0</ele><time>2026-05-02T16:34:02.999Z</time></trkpt><trkpt lat="42.36010669968219" lon="13.37470843743603"><ele>645.3333333333334</ele><time>2026-05-02T16:34:03.999Z</time></trkpt><trkpt lat="42.360139912811974" lon="13.374922377156592"><ele>645.6666666666667</ele><time>2026-05-02T16:34:04.999Z</time></trkpt><trkpt lat="42.360164889515595" lon="13.375125101314955"><ele>646.0</ele><time>2026-05-02T16:34:05.999Z</time></trkpt><trkpt lat="42.36018387348673" lon="13.375322456161113"><ele>646.0</ele><time>2026-05-02T16:34:06.999Z</time></trkpt><trkpt lat="42.36020307427777" lon="13.375491515913609"><ele>646.0</ele><time>2026-05-02T16:34:07.999Z</time></trkpt><trkpt lat="42.36021274998932" lon="13.375614584182008"><ele>646.0</ele><time>2026-05-02T16:34:08.999Z</time></trkpt><trkpt lat="42.36022570745886" lon="13.375722931059304"><ele>646.0</ele><time>2026-05-02T16:34:09.999Z</time></trkpt><trkpt lat="42.36023805121199" lon="13.37581272285864"><ele>646.0</ele><time>2026-05-02T16:34:10.999Z</time></trkpt><trkpt lat="42.36025746490631" lon="13.3760003621176"><ele>646.4</ele><time>2026-05-02T16:34:12.999Z</time></trkpt><trkpt lat="42.36027122814543" lon="13.376094387479357"><ele>646.8</ele><time>2026-05-02T16:34:13.999Z</time></trkpt><trkpt lat="42.360287496123235" lon="13.376204766787312"><ele>647.1999999999999</ele><time>2026-05-02T16:34:14.999Z</time></trkpt><trkpt lat="42.36030288850948" lon="13.37633349543231"><ele>647.5999999999999</ele><time>2026-05-02T16:34:15.999Z</time></trkpt><trkpt lat="42.36031067390676" lon="13.376483878014023"><ele>648.0</ele><time>2026-05-02T16:34:16.999Z</time></trkpt><trkpt lat="42.360320448794525" lon="13.376648559013812"><ele>648.5</ele><time>2026-05-02T16:34:17.999Z</time></trkpt><trkpt lat="42.36034324775695" lon="13.37683510749249"><ele>649.0</ele><time>2026-05-02T16:34:18.999Z</time></trkpt><trkpt lat="42.36035896764447" lon="13.377027969363978"><ele>649.5</ele><time>2026-05-02T16:34:19.999Z</time></trkpt><trkpt lat="42.36036693286732" lon="13.377219709536599"><ele>650.0</ele><time>2026-05-02T16:34:20.999Z</time></trkpt><trkpt lat="42.36037249314864" lon="13.377392344639382"><ele>650.0</ele><time>2026-05-02T16:34:21.999Z</time></trkpt><trkpt lat="42.36037804101207" lon="13.37755529152422"><ele>650.0</ele><time>2026-05-02T16:34:22.999Z</time></trkpt><trkpt lat="42.36037979314171" lon="13.377746711343773"><ele>650.0</ele><time>2026-05-02T16:34:23.999Z</time></trkpt><trkpt lat="42.36036980151172" lon="13.3779367145925"><ele>650.0</ele><time>2026-05-02T16:34:24.999Z</time></trkpt><trkpt lat="42.36035178485289" lon="13.378115386218868"><ele>650.25</ele><time>2026-05-02T16:34:25.999Z</time></trkpt><trkpt lat="42.3603341406317" lon="13.378278735772389"><ele>650.5</ele><time>2026-05-02T16:34:26.999Z</time></trkpt><trkpt lat="42.36031149523358" lon="13.378424592463656"><ele>650.75</ele><time>2026-05-02T16:34:27.999Z</time></trkpt><trkpt lat="42.36028625317457" lon="13.378570915083175"><ele>651.0</ele><time>2026-05-02T16:34:28.999Z</time></trkpt><trkpt lat="42.360255192474206" lon="13.378727225272684"><ele>651.1999999999999</ele><time>2026-05-02T16:34:29.999Z</time></trkpt><trkpt lat="42.360222791861034" lon="13.378877120523281"><ele>651.4</ele><time>2026-05-02T16:34:30.999Z</time></trkpt><trkpt lat="42.360186961588184" lon="13.379012888113252"><ele>651.6</ele><time>2026-05-02T16:34:31.999Z</time></trkpt><trkpt lat="42.360149579036204" lon="13.379120716461234"><ele>651.8</ele><time>2026-05-02T16:34:32.999Z</time></trkpt><trkpt lat="42.360133310110406" lon="13.379221542283391"><ele>652.0</ele><time>2026-05-02T16:34:33.999Z</time></trkpt><trkpt lat="42.3600884674429" lon="13.379292513958857"><ele>652.0</ele><time>2026-05-02T16:34:34.999Z</time></trkpt><trkpt lat="42.36003241533405" lon="13.37942999886814"><ele>652.0</ele><time>2026-05-02T16:34:36.999Z</time></trkpt><trkpt lat="42.359955998918515" lon="13.379560833376267"><ele>652.0</ele><time>2026-05-02T16:34:38.999Z</time></trkpt><trkpt lat="42.35991746635713" lon="13.379636118712147"><ele>652.0</ele><time>2026-05-02T16:34:39.999Z</time></trkpt><trkpt lat="42.359891743874826" lon="13.379732290076774"><ele>652.0</ele><time>2026-05-02T16:34:40.999Z</time></trkpt><trkpt lat="42.359885283894144" lon="13.379850150988007"><ele>651.8</ele><time>2026-05-02T16:34:41.999Z</time></trkpt><trkpt lat="42.359891453839644" lon="13.379971221844437"><ele>651.6</ele><time>2026-05-02T16:34:42.999Z</time></trkpt><trkpt lat="42.35989126076283" lon="13.380097084927177"><ele>651.4</ele><time>2026-05-02T16:34:43.999Z</time></trkpt><trkpt lat="42.3598628325818" lon="13.380236186887645"><ele>651.1999999999999</ele><time>2026-05-02T16:34:44.999Z</time></trkpt><trkpt lat="42.35980234656923" lon="13.380381715830602"><ele>651.0</ele><time>2026-05-02T16:34:45.999Z</time></trkpt><trkpt lat="42.359723709004484" lon="13.380541682179453"><ele>650.8</ele><time>2026-05-02T16:34:46.999Z</time></trkpt><trkpt lat="42.35965423088123" lon="13.380686497085003"><ele>650.5999999999999</ele><time>2026-05-02T16:34:47.999Z</time></trkpt><trkpt lat="42.35959751747764" lon="13.3808088501107"><ele>650.4</ele><time>2026-05-02T16:34:48.999Z</time></trkpt><trkpt lat="42.359545556715936" lon="13.380921392591246"><ele>650.2</ele><time>2026-05-02T16:34:49.999Z</time></trkpt><trkpt lat="42.35949992218449" lon="13.381019777087085"><ele>650.0</ele><time>2026-05-02T16:34:50.999Z</time></trkpt><trkpt lat="42.35945554155677" lon="13.38111227622758"><ele>650.0</ele><time>2026-05-02T16:34:51.999Z</time></trkpt><trkpt lat="42.35939680315294" lon="13.381230931486414"><ele>650.0</ele><time>2026-05-02T16:34:52.999Z</time></trkpt><trkpt lat="42.35931785611578" lon="13.381378207843595"><ele>650.0</ele><time>2026-05-02T16:34:53.999Z</time></trkpt><trkpt lat="42.35923804548355" lon="13.38152882182805"><ele>650.0</ele><time>2026-05-02T16:34:54.999Z</time></trkpt><trkpt lat="42.35917376754124" lon="13.381672782265637"><ele>649.75</ele><time>2026-05-02T16:34:55.999Z</time></trkpt><trkpt lat="42.35910898758207" lon="13.381817593612425"><ele>649.5</ele><time>2026-05-02T16:34:56.999Z</time></trkpt><trkpt lat="42.35903965300906" lon="13.381968092835876"><ele>649.25</ele><time>2026-05-02T16:34:57.999Z</time></trkpt><trkpt lat="42.35897144461268" lon="13.382116391627967"><ele>649.0</ele><time>2026-05-02T16:34:58.999Z</time></trkpt><trkpt lat="42.35890092801559" lon="13.382280124747489"><ele>649.5</ele><time>2026-05-02T16:34:59.999Z</time></trkpt><trkpt lat="42.3588336165625" lon="13.382432094412488"><ele>650.0</ele><time>2026-05-02T16:35:00.999Z</time></trkpt><trkpt lat="42.35876581005011" lon="13.382593411333428"><ele>650.5</ele><time>2026-05-02T16:35:01.999Z</time></trkpt><trkpt lat="42.35869680422433" lon="13.38276538995329"><ele>651.0</ele><time>2026-05-02T16:35:02.999Z</time></trkpt><trkpt lat="42.3586191960084" lon="13.382946082767127"><ele>650.3333333333334</ele><time>2026-05-02T16:35:03.999Z</time></trkpt><trkpt lat="42.35853841868084" lon="13.383123710417905"><ele>649.6666666666667</ele><time>2026-05-02T16:35:04.999Z</time></trkpt><trkpt lat="42.358456851455536" lon="13.383300609946458"><ele>649.0</ele><time>2026-05-02T16:35:05.999Z</time></trkpt><trkpt lat="42.35837089502896" lon="13.383477889226253"><ele>649.0</ele><time>2026-05-02T16:35:06.999Z</time></trkpt><trkpt lat="42.35828571565944" lon="13.383645322060788"><ele>649.0</ele><time>2026-05-02T16:35:07.999Z</time></trkpt><trkpt lat="42.35820907516476" lon="13.38380585694684"><ele>649.0</ele><time>2026-05-02T16:35:08.999Z</time></trkpt><trkpt lat="42.35813763836961" lon="13.38395933089887"><ele>649.0</ele><time>2026-05-02T16:35:09.999Z</time></trkpt><trkpt lat="42.358074659510685" lon="13.384096812339207"><ele>648.75</ele><time>2026-05-02T16:35:10.999Z</time></trkpt><trkpt lat="42.358009311562434" lon="13.384239067079752"><ele>648.5</ele><time>2026-05-02T16:35:11.999Z</time></trkpt><trkpt lat="42.35794926477556" lon="13.384390752027025"><ele>648.25</ele><time>2026-05-02T16:35:12.999Z</time></trkpt><trkpt lat="42.35790492406567" lon="13.3845285817329"><ele>648.0</ele><time>2026-05-02T16:35:13.999Z</time></trkpt><trkpt lat="42.357869536895855" lon="13.384655810495438"><ele>648.1666666666666</ele><time>2026-05-02T16:35:14.999Z</time></trkpt><trkpt lat="42.3578389046398" lon="13.384777199521961"><ele>648.3333333333334</ele><time>2026-05-02T16:35:15.999Z</time></trkpt><trkpt lat="42.35780707631629" lon="13.384893814093891"><ele>648.5</ele><time>2026-05-02T16:35:16.999Z</time></trkpt><trkpt lat="42.35777569421723" lon="13.384996039411764"><ele>648.6666666666667</ele><time>2026-05-02T16:35:17.999Z</time></trkpt><trkpt lat="42.357745120407166" lon="13.38508032770024"><ele>648.8333333333334</ele><time>2026-05-02T16:35:18.999Z</time></trkpt><trkpt lat="42.35770543389526" lon="13.38516320018935"><ele>649.0</ele><time>2026-05-02T16:35:19.999Z</time></trkpt><trkpt lat="42.35765611025766" lon="13.385237333349012"><ele>649.0</ele><time>2026-05-02T16:35:20.999Z</time></trkpt><trkpt lat="42.357607111334914" lon="13.385301663803153"><ele>649.0</ele><time>2026-05-02T16:35:21.999Z</time></trkpt><trkpt lat="42.357554033791956" lon="13.38537128110533"><ele>649.0</ele><time>2026-05-02T16:35:22.999Z</time></trkpt><trkpt lat="42.357509449550875" lon="13.385449278455853"><ele>649.0</ele><time>2026-05-02T16:35:23.999Z</time></trkpt><trkpt lat="42.357467243566234" lon="13.385527117833448"><ele>649.0</ele><time>2026-05-02T16:35:24.999Z</time></trkpt><trkpt lat="42.35741225972288" lon="13.385632079369344"><ele>649.0</ele><time>2026-05-02T16:35:25.999Z</time></trkpt><trkpt lat="42.357346116060576" lon="13.385762736705669"><ele>649.0</ele><time>2026-05-02T16:35:26.999Z</time></trkpt><trkpt lat="42.357269114238875" lon="13.385888324085816"><ele>649.0</ele><time>2026-05-02T16:35:27.999Z</time></trkpt><trkpt lat="42.35716989901636" lon="13.38601053326717"><ele>649.0</ele><time>2026-05-02T16:35:28.999Z</time></trkpt><trkpt lat="42.3570592300939" lon="13.386127830414095"><ele>649.0</ele><time>2026-05-02T16:35:29.999Z</time></trkpt><trkpt lat="42.356971860486134" lon="13.386225259155747"><ele>648.8000000000001</ele><time>2026-05-02T16:35:30.999Z</time></trkpt><trkpt lat="42.35690518121141" lon="13.386312995648534"><ele>648.6</ele><time>2026-05-02T16:35:31.999Z</time></trkpt><trkpt lat="42.35684099204627" lon="13.386405829134269"><ele>648.4</ele><time>2026-05-02T16:35:32.999Z</time></trkpt><trkpt lat="42.35677689763252" lon="13.386512473647084"><ele>648.2</ele><time>2026-05-02T16:35:33.999Z</time></trkpt><trkpt lat="42.35671734226122" lon="13.38661569120337"><ele>648.0</ele><time>2026-05-02T16:35:34.999Z</time></trkpt><trkpt lat="42.35666049343378" lon="13.386715195273602"><ele>648.0</ele><time>2026-05-02T16:35:35.999Z</time></trkpt><trkpt lat="42.356606345607865" lon="13.386809828995696"><ele>648.0</ele><time>2026-05-02T16:35:36.999Z</time></trkpt><trkpt lat="42.356552725851046" lon="13.386897280252427"><ele>648.0</ele><time>2026-05-02T16:35:37.999Z</time></trkpt><trkpt lat="42.356500960691406" lon="13.386983326611958"><ele>648.0</ele><time>2026-05-02T16:35:38.999Z</time></trkpt><trkpt lat="42.35645523014593" lon="13.387063693587526"><ele>648.0</ele><time>2026-05-02T16:35:39.999Z</time></trkpt><trkpt lat="42.356398777037455" lon="13.387165466833691"><ele>648.0</ele><time>2026-05-02T16:35:40.999Z</time></trkpt><trkpt lat="42.35632603475105" lon="13.38729798230493"><ele>647.5999999999999</ele><time>2026-05-02T16:35:41.999Z</time></trkpt><trkpt lat="42.35625260432021" lon="13.387426062421264"><ele>647.1999999999999</ele><time>2026-05-02T16:35:42.999Z</time></trkpt><trkpt lat="42.35618826589851" lon="13.387543638398032"><ele>646.8</ele><time>2026-05-02T16:35:43.999Z</time></trkpt><trkpt lat="42.35612175793203" lon="13.387664999987592"><ele>646.4</ele><time>2026-05-02T16:35:44.999Z</time></trkpt><trkpt lat="42.35605806848034" lon="13.387764264759928"><ele>646.0</ele><time>2026-05-02T16:35:45.999Z</time></trkpt><trkpt lat="42.356002691667605" lon="13.387855946969278"><ele>646.0</ele><time>2026-05-02T16:35:46.999Z</time></trkpt><trkpt lat="42.35595503429812" lon="13.387940132466834"><ele>646.0</ele><time>2026-05-02T16:35:47.999Z</time></trkpt><trkpt lat="42.355905101708096" lon="13.388012127195267"><ele>646.0</ele><time>2026-05-02T16:35:48.999Z</time></trkpt><trkpt lat="42.355832143419825" lon="13.388095732831546"><ele>646.0</ele><time>2026-05-02T16:35:50.999Z</time></trkpt><trkpt lat="42.35576359361749" lon="13.388151553462054"><ele>646.0</ele><time>2026-05-02T16:35:52.999Z</time></trkpt><trkpt lat="42.35566564971361" lon="13.388213985927493"><ele>646.0</ele><time>2026-05-02T16:35:54.999Z</time></trkpt><trkpt lat="42.35559637862932" lon="13.388257127522785"><ele>646.8333333333334</ele><time>2026-05-02T16:35:55.999Z</time></trkpt><trkpt lat="42.35551321465941" lon="13.388351922902249"><ele>647.6666666666667</ele><time>2026-05-02T16:35:57.999Z</time></trkpt><trkpt lat="42.35549270193492" lon="13.388437219076641"><ele>648.5</ele><time>2026-05-02T16:35:58.999Z</time></trkpt><trkpt lat="42.35549503700202" lon="13.388531561861548"><ele>649.3333333333334</ele><time>2026-05-02T16:35:59.999Z</time></trkpt><trkpt lat="42.3555239359101" lon="13.388613492521527"><ele>650.1666666666666</ele><time>2026-05-02T16:36:00.999Z</time></trkpt><trkpt lat="42.355564372742556" lon="13.38868776433293"><ele>651.0</ele><time>2026-05-02T16:36:01.999Z</time></trkpt><trkpt lat="42.35567799434323" lon="13.388768541801497"><ele>652.5</ele><time>2026-05-02T16:36:02.999Z</time></trkpt><trkpt lat="42.35577112550314" lon="13.388883824905614"><ele>654.0</ele><time>2026-05-02T16:36:03.999Z</time></trkpt><trkpt lat="42.355854344722" lon="13.389014231609647"><ele>655.5</ele><time>2026-05-02T16:36:04.999Z</time></trkpt><trkpt lat="42.355937944179445" lon="13.389135165613476"><ele>657.0</ele><time>2026-05-02T16:36:05.999Z</time></trkpt><trkpt lat="42.356017174899655" lon="13.389261409675129"><ele>657.0</ele><time>2026-05-02T16:36:06.999Z</time></trkpt><trkpt lat="42.35610291856143" lon="13.389414627240281"><ele>657.0</ele><time>2026-05-02T16:36:07.999Z</time></trkpt><trkpt lat="42.3561815999031" lon="13.389570234663932"><ele>657.0</ele><time>2026-05-02T16:36:08.999Z</time></trkpt><trkpt lat="42.356241000279766" lon="13.389708650091173"><ele>657.0</ele><time>2026-05-02T16:36:09.999Z</time></trkpt><trkpt lat="42.35629838683902" lon="13.389826027702327"><ele>657.5</ele><time>2026-05-02T16:36:10.999Z</time></trkpt><trkpt lat="42.35635748604756" lon="13.38993129195915"><ele>658.0</ele><time>2026-05-02T16:36:11.999Z</time></trkpt><trkpt lat="42.356418235738076" lon="13.390027050581129"><ele>658.5</ele><time>2026-05-02T16:36:12.999Z</time></trkpt><trkpt lat="42.35647484189131" lon="13.390113719859789"><ele>659.0</ele><time>2026-05-02T16:36:13.999Z</time></trkpt><trkpt lat="42.35653429948086" lon="13.390187672732221"><ele>659.5</ele><time>2026-05-02T16:36:14.999Z</time></trkpt><trkpt lat="42.35659184999855" lon="13.39024554761219"><ele>660.0</ele><time>2026-05-02T16:36:15.999Z</time></trkpt><trkpt lat="42.35668219290919" lon="13.390362301299039"><ele>659.0</ele><time>2026-05-02T16:36:17.999Z</time></trkpt><trkpt lat="42.35672798522309" lon="13.39043995930648"><ele>658.0</ele><time>2026-05-02T16:36:18.999Z</time></trkpt><trkpt lat="42.356784599682655" lon="13.390597088396987"><ele>657.0</ele><time>2026-05-02T16:36:20.999Z</time></trkpt><trkpt lat="42.356803027213864" lon="13.390701481047428"><ele>656.0</ele><time>2026-05-02T16:36:21.999Z</time></trkpt><trkpt lat="42.35680069268158" lon="13.390807149136043"><ele>655.0</ele><time>2026-05-02T16:36:22.999Z</time></trkpt><trkpt lat="42.35677996905493" lon="13.390910229500811"><ele>654.0</ele><time>2026-05-02T16:36:23.999Z</time></trkpt><trkpt lat="42.356752014935914" lon="13.391011777869833"><ele>654.0</ele><time>2026-05-02T16:36:24.999Z</time></trkpt><trkpt lat="42.35673064244252" lon="13.391129367433397"><ele>654.0</ele><time>2026-05-02T16:36:25.999Z</time></trkpt><trkpt lat="42.356687681536975" lon="13.391288426375448"><ele>654.0</ele><time>2026-05-02T16:36:26.999Z</time></trkpt><trkpt lat="42.35667934180024" lon="13.391480742583303"><ele>654.0</ele><time>2026-05-02T16:36:27.999Z</time></trkpt><trkpt lat="42.356662753764276" lon="13.39167790706392"><ele>655.0</ele><time>2026-05-02T16:36:28.999Z</time></trkpt><trkpt lat="42.35665458484698" lon="13.391850980676647"><ele>656.0</ele><time>2026-05-02T16:36:29.999Z</time></trkpt><trkpt lat="42.35665095782927" lon="13.392002665179332"><ele>657.0</ele><time>2026-05-02T16:36:30.999Z</time></trkpt><trkpt lat="42.35664863978296" lon="13.392141116239891"><ele>658.0</ele><time>2026-05-02T16:36:31.999Z</time></trkpt><trkpt lat="42.356649604897605" lon="13.392270706230102"><ele>659.0</ele><time>2026-05-02T16:36:32.999Z</time></trkpt><trkpt lat="42.35664279521396" lon="13.392392463393495"><ele>660.2</ele><time>2026-05-02T16:36:33.999Z</time></trkpt><trkpt lat="42.356645517418805" lon="13.392496264857545"><ele>661.4000000000001</ele><time>2026-05-02T16:36:34.999Z</time></trkpt><trkpt lat="42.356628347050986" lon="13.392599141204963"><ele>662.6</ele><time>2026-05-02T16:36:35.999Z</time></trkpt><trkpt lat="42.35662519050896" lon="13.392743618414992"><ele>663.8</ele><time>2026-05-02T16:36:36.999Z</time></trkpt><trkpt lat="42.35662124707575" lon="13.392924109045879"><ele>665.0</ele><time>2026-05-02T16:36:37.999Z</time></trkpt><trkpt lat="42.35661699296076" lon="13.393118470582504"><ele>665.8</ele><time>2026-05-02T16:36:38.999Z</time></trkpt><trkpt lat="42.35662904124294" lon="13.393305029101233"><ele>666.6</ele><time>2026-05-02T16:36:39.999Z</time></trkpt><trkpt lat="42.35662235452857" lon="13.39344852227019"><ele>667.4000000000001</ele><time>2026-05-02T16:36:40.999Z</time></trkpt><trkpt lat="42.35662055579762" lon="13.393568421424714"><ele>668.2</ele><time>2026-05-02T16:36:41.999Z</time></trkpt><trkpt lat="42.356615212841014" lon="13.39369609236669"><ele>669.0</ele><time>2026-05-02T16:36:42.999Z</time></trkpt><trkpt lat="42.35660957107271" lon="13.393839841124409"><ele>670.2</ele><time>2026-05-02T16:36:43.999Z</time></trkpt><trkpt lat="42.3566064234557" lon="13.393994244719321"><ele>671.4000000000001</ele><time>2026-05-02T16:36:44.999Z</time></trkpt><trkpt lat="42.35660720188127" lon="13.394128341935467"><ele>672.6</ele><time>2026-05-02T16:36:45.999Z</time></trkpt><trkpt lat="42.35660822427431" lon="13.39424362884555"><ele>673.8</ele><time>2026-05-02T16:36:46.999Z</time></trkpt><trkpt lat="42.35659049781671" lon="13.39436707141274"><ele>675.0</ele><time>2026-05-02T16:36:47.999Z</time></trkpt><trkpt lat="42.3566023842051" lon="13.394490919997885"><ele>675.0</ele><time>2026-05-02T16:36:48.999Z</time></trkpt><trkpt lat="42.35660102488566" lon="13.394603329943587"><ele>675.0</ele><time>2026-05-02T16:36:49.999Z</time></trkpt><trkpt lat="42.356594955115284" lon="13.39471210719108"><ele>675.0</ele><time>2026-05-02T16:36:50.999Z</time></trkpt><trkpt lat="42.35659200601324" lon="13.394826909154652"><ele>675.0</ele><time>2026-05-02T16:36:51.999Z</time></trkpt><trkpt lat="42.35658870589068" lon="13.394947428926203"><ele>675.0</ele><time>2026-05-02T16:36:52.999Z</time></trkpt><trkpt lat="42.356588715653764" lon="13.395061782108657"><ele>675.0</ele><time>2026-05-02T16:36:53.999Z</time></trkpt><trkpt lat="42.356586103429045" lon="13.395194708288903"><ele>675.2</ele><time>2026-05-02T16:36:54.999Z</time></trkpt><trkpt lat="42.35658458444659" lon="13.395326062632048"><ele>675.4</ele><time>2026-05-02T16:36:55.999Z</time></trkpt><trkpt lat="42.356581636590974" lon="13.395458999159946"><ele>675.5999999999999</ele><time>2026-05-02T16:36:56.999Z</time></trkpt><trkpt lat="42.35658048126182" lon="13.395581819331273"><ele>675.8</ele><time>2026-05-02T16:36:57.999Z</time></trkpt><trkpt lat="42.356577531847186" lon="13.395696753590553"><ele>676.0</ele><time>2026-05-02T16:36:58.999Z</time></trkpt><trkpt lat="42.35657476797021" lon="13.395804293335303"><ele>675.6666666666667</ele><time>2026-05-02T16:36:59.999Z</time></trkpt><trkpt lat="42.3565731094528" lon="13.3959036129801"><ele>675.3333333333334</ele><time>2026-05-02T16:37:00.999Z</time></trkpt><trkpt lat="42.35656875049661" lon="13.396009009650829"><ele>675.0</ele><time>2026-05-02T16:37:01.999Z</time></trkpt><trkpt lat="42.35656564345923" lon="13.396109010438135"><ele>674.6666666666666</ele><time>2026-05-02T16:37:02.999Z</time></trkpt><trkpt lat="42.35656274032425" lon="13.39620353314219"><ele>674.3333333333333</ele><time>2026-05-02T16:37:03.999Z</time></trkpt><trkpt lat="42.35656123516974" lon="13.396313843177502"><ele>674.0</ele><time>2026-05-02T16:37:04.999Z</time></trkpt><trkpt lat="42.356554021543324" lon="13.396444570257318"><ele>675.25</ele><time>2026-05-02T16:37:05.999Z</time></trkpt><trkpt lat="42.35654453440036" lon="13.396589974494672"><ele>676.5</ele><time>2026-05-02T16:37:06.999Z</time></trkpt><trkpt lat="42.35653137910284" lon="13.396743161578245"><ele>677.75</ele><time>2026-05-02T16:37:07.999Z</time></trkpt><trkpt lat="42.35651837593413" lon="13.39690155217738"><ele>679.0</ele><time>2026-05-02T16:37:08.999Z</time></trkpt><trkpt lat="42.356509224729464" lon="13.397055523939606"><ele>681.25</ele><time>2026-05-02T16:37:09.999Z</time></trkpt><trkpt lat="42.35650418213086" lon="13.397200231161419"><ele>683.5</ele><time>2026-05-02T16:37:10.999Z</time></trkpt><trkpt lat="42.35650792299517" lon="13.397354831462117"><ele>685.75</ele><time>2026-05-02T16:37:11.999Z</time></trkpt><trkpt lat="42.356520767865746" lon="13.39751459135661"><ele>688.0</ele><time>2026-05-02T16:37:12.999Z</time></trkpt><trkpt lat="42.3565443691861" lon="13.397679246760895"><ele>688.0</ele><time>2026-05-02T16:37:13.999Z</time></trkpt><trkpt lat="42.35658373871269" lon="13.397840114526588"><ele>688.0</ele><time>2026-05-02T16:37:14.999Z</time></trkpt><trkpt lat="42.356626365935895" lon="13.39800952012179"><ele>688.0</ele><time>2026-05-02T16:37:15.999Z</time></trkpt><trkpt lat="42.356701027333656" lon="13.398144026276"><ele>688.0</ele><time>2026-05-02T16:37:16.999Z</time></trkpt><trkpt lat="42.35675624475242" lon="13.398272448201041"><ele>688.2</ele><time>2026-05-02T16:37:17.999Z</time></trkpt><trkpt lat="42.35680736116355" lon="13.398394000497028"><ele>688.4</ele><time>2026-05-02T16:37:18.998Z</time></trkpt><trkpt lat="42.35686270875012" lon="13.39852111717815"><ele>688.6</ele><time>2026-05-02T16:37:19.998Z</time></trkpt><trkpt lat="42.35691542224524" lon="13.398652948580784"><ele>688.8000000000001</ele><time>2026-05-02T16:37:20.998Z</time></trkpt><trkpt lat="42.356962193525085" lon="13.398794704498936"><ele>689.0</ele><time>2026-05-02T16:37:21.998Z</time></trkpt><trkpt lat="42.356996570002" lon="13.398950024020921"><ele>690.0</ele><time>2026-05-02T16:37:22.998Z</time></trkpt><trkpt lat="42.35701623397887" lon="13.399105044682653"><ele>691.0</ele><time>2026-05-02T16:37:23.998Z</time></trkpt><trkpt lat="42.35702307597061" lon="13.399254890277613"><ele>692.0</ele><time>2026-05-02T16:37:24.998Z</time></trkpt><trkpt lat="42.357024376585976" lon="13.399392751725074"><ele>693.0</ele><time>2026-05-02T16:37:25.998Z</time></trkpt><trkpt lat="42.35702802499964" lon="13.399518505513118"><ele>694.0</ele><time>2026-05-02T16:37:26.999Z</time></trkpt><trkpt lat="42.35702930340254" lon="13.399666550050682"><ele>695.2</ele><time>2026-05-02T16:37:27.999Z</time></trkpt><trkpt lat="42.357030296728226" lon="13.399810104553575"><ele>696.4000000000001</ele><time>2026-05-02T16:37:28.999Z</time></trkpt><trkpt lat="42.3570297898581" lon="13.399946210564703"><ele>697.6</ele><time>2026-05-02T16:37:29.999Z</time></trkpt><trkpt lat="42.35703322841929" lon="13.400073684085504"><ele>698.8</ele><time>2026-05-02T16:37:30.999Z</time></trkpt><trkpt lat="42.35703092557223" lon="13.400219894858873"><ele>700.0</ele><time>2026-05-02T16:37:31.999Z</time></trkpt><trkpt lat="42.35702583329545" lon="13.400356122360392"><ele>700.0</ele><time>2026-05-02T16:37:32.999Z</time></trkpt><trkpt lat="42.35701876250629" lon="13.400468951161"><ele>700.0</ele><time>2026-05-02T16:37:33.999Z</time></trkpt><trkpt lat="42.35700932253353" lon="13.400571462853463"><ele>700.0</ele><time>2026-05-02T16:37:34.999Z</time></trkpt><trkpt lat="42.35699921690406" lon="13.400673596490375"><ele>700.0</ele><time>2026-05-02T16:37:35.999Z</time></trkpt><trkpt lat="42.35702839765451" lon="13.400842472496738"><ele>700.0</ele><time>2026-05-02T16:37:38.999Z</time></trkpt><trkpt lat="42.357043570185375" lon="13.40097651852091"><ele>700.6</ele><time>2026-05-02T16:37:39.999Z</time></trkpt><trkpt lat="42.35704673797345" lon="13.401111167571264"><ele>701.2</ele><time>2026-05-02T16:37:40.999Z</time></trkpt><trkpt lat="42.35704697620855" lon="13.40122233820311"><ele>701.8</ele><time>2026-05-02T16:37:41.999Z</time></trkpt><trkpt lat="42.3570459704334" lon="13.401336383499187"><ele>702.4</ele><time>2026-05-02T16:37:42.999Z</time></trkpt><trkpt lat="42.35705193332808" lon="13.401466301007677"><ele>703.0</ele><time>2026-05-02T16:37:43.999Z</time></trkpt><trkpt lat="42.35705031202983" lon="13.401587590034227"><ele>703.0</ele><time>2026-05-02T16:37:44.999Z</time></trkpt><trkpt lat="42.357047961348506" lon="13.40170624126151"><ele>703.0</ele><time>2026-05-02T16:37:45.999Z</time></trkpt><trkpt lat="42.35704422668324" lon="13.401834246935273"><ele>703.0</ele><time>2026-05-02T16:37:46.999Z</time></trkpt><trkpt lat="42.35704647899379" lon="13.401971132439227"><ele>703.0</ele><time>2026-05-02T16:37:47.999Z</time></trkpt><trkpt lat="42.357052444611696" lon="13.402114015448815"><ele>703.0</ele><time>2026-05-02T16:37:48.999Z</time></trkpt><trkpt lat="42.35705197165321" lon="13.402233964024802"><ele>702.0</ele><time>2026-05-02T16:37:49.999Z</time></trkpt><trkpt lat="42.357054285554284" lon="13.402366135000753"><ele>701.0</ele><time>2026-05-02T16:37:50.999Z</time></trkpt><trkpt lat="42.357062301762205" lon="13.402508856875016"><ele>700.0</ele><time>2026-05-02T16:37:51.999Z</time></trkpt><trkpt lat="42.35707148066115" lon="13.402638832278324"><ele>699.0</ele><time>2026-05-02T16:37:52.999Z</time></trkpt><trkpt lat="42.357086465932255" lon="13.402781024742719"><ele>698.0</ele><time>2026-05-02T16:37:53.999Z</time></trkpt><trkpt lat="42.357102177077635" lon="13.40290680258908"><ele>698.0</ele><time>2026-05-02T16:37:54.999Z</time></trkpt><trkpt lat="42.357133153563254" lon="13.403029628297386"><ele>698.0</ele><time>2026-05-02T16:37:55.999Z</time></trkpt><trkpt lat="42.35717049836186" lon="13.403138732253911"><ele>698.0</ele><time>2026-05-02T16:37:56.999Z</time></trkpt><trkpt lat="42.357217274031186" lon="13.40324756827187"><ele>698.0</ele><time>2026-05-02T16:37:57.999Z</time></trkpt><trkpt lat="42.357265475575204" lon="13.40335770679838"><ele>698.0</ele><time>2026-05-02T16:37:58.999Z</time></trkpt><trkpt lat="42.35730277943141" lon="13.403457100605754"><ele>698.6666666666666</ele><time>2026-05-02T16:37:59.999Z</time></trkpt><trkpt lat="42.35735037451255" lon="13.403562357641745"><ele>699.3333333333333</ele><time>2026-05-02T16:38:00.999Z</time></trkpt><trkpt lat="42.357388723134974" lon="13.403656199936506"><ele>700.0</ele><time>2026-05-02T16:38:01.999Z</time></trkpt><trkpt lat="42.357420182842056" lon="13.403742060171544"><ele>700.6666666666666</ele><time>2026-05-02T16:38:02.999Z</time></trkpt><trkpt lat="42.35745364221325" lon="13.40382192666389"><ele>701.3333333333334</ele><time>2026-05-02T16:38:03.999Z</time></trkpt><trkpt lat="42.35748765592925" lon="13.403915146964406"><ele>702.0</ele><time>2026-05-02T16:38:04.999Z</time></trkpt><trkpt lat="42.357520931679595" lon="13.404005310655128"><ele>702.0000000000001</ele><time>2026-05-02T16:38:05.999Z</time></trkpt><trkpt lat="42.357553310306386" lon="13.404087924407362"><ele>702.0</ele><time>2026-05-02T16:38:06.999Z</time></trkpt><trkpt lat="42.35758642953945" lon="13.404178716994434"><ele>702.0</ele><time>2026-05-02T16:38:07.999Z</time></trkpt><trkpt lat="42.35761546403511" lon="13.404275739275612"><ele>702.0</ele><time>2026-05-02T16:38:08.999Z</time></trkpt><trkpt lat="42.35763295838538" lon="13.404368040106972"><ele>702.0</ele><time>2026-05-02T16:38:09.999Z</time></trkpt><trkpt lat="42.35764068443342" lon="13.404457018440928"><ele>702.0000000000001</ele><time>2026-05-02T16:38:10.999Z</time></trkpt><trkpt lat="42.35763665171007" lon="13.404552340205187"><ele>702.0</ele><time>2026-05-02T16:38:11.999Z</time></trkpt><trkpt lat="42.35761503430377" lon="13.404644843411997"><ele>703.0</ele><time>2026-05-02T16:38:12.999Z</time></trkpt><trkpt lat="42.35757563558065" lon="13.404720798352308"><ele>704.0</ele><time>2026-05-02T16:38:13.999Z</time></trkpt><trkpt lat="42.35752046860194" lon="13.4047898630881"><ele>705.0</ele><time>2026-05-02T16:38:14.999Z</time></trkpt><trkpt lat="42.357458001852805" lon="13.404866608787408"><ele>706.0</ele><time>2026-05-02T16:38:15.999Z</time></trkpt><trkpt lat="42.357373075046254" lon="13.404902552943051"><ele>707.0</ele><time>2026-05-02T16:38:16.999Z</time></trkpt><trkpt lat="42.3572823950021" lon="13.40492440825326"><ele>708.0</ele><time>2026-05-02T16:38:17.999Z</time></trkpt><trkpt lat="42.357183581947936" lon="13.404934351901368"><ele>708.0</ele><time>2026-05-02T16:38:18.999Z</time></trkpt><trkpt lat="42.35709434453909" lon="13.404944795212714"><ele>708.0</ele><time>2026-05-02T16:38:19.999Z</time></trkpt><trkpt lat="42.35700935169298" lon="13.404964527995114"><ele>708.0</ele><time>2026-05-02T16:38:20.999Z</time></trkpt><trkpt lat="42.35691383929825" lon="13.404974335168571"><ele>708.0</ele><time>2026-05-02T16:38:21.999Z</time></trkpt><trkpt lat="42.35682756203875" lon="13.404996986901537"><ele>708.0</ele><time>2026-05-02T16:38:22.999Z</time></trkpt><trkpt lat="42.35674033258078" lon="13.405036379598403"><ele>708.0</ele><time>2026-05-02T16:38:23.999Z</time></trkpt><trkpt lat="42.356657071678356" lon="13.405096377071716"><ele>708.0</ele><time>2026-05-02T16:38:24.999Z</time></trkpt><trkpt lat="42.35658637520233" lon="13.405164138837376"><ele>708.0</ele><time>2026-05-02T16:38:25.999Z</time></trkpt><trkpt lat="42.35651738574439" lon="13.405226248871843"><ele>708.0</ele><time>2026-05-02T16:38:26.999Z</time></trkpt><trkpt lat="42.35645305974636" lon="13.405278620183013"><ele>708.0</ele><time>2026-05-02T16:38:27.999Z</time></trkpt><trkpt lat="42.35639361770123" lon="13.40532873413263"><ele>708.0</ele><time>2026-05-02T16:38:28.999Z</time></trkpt><trkpt lat="42.3563380857026" lon="13.4053822777028"><ele>708.5</ele><time>2026-05-02T16:38:29.999Z</time></trkpt><trkpt lat="42.356282647358434" lon="13.405437757703947"><ele>709.0</ele><time>2026-05-02T16:38:30.999Z</time></trkpt><trkpt lat="42.356225488814204" lon="13.40549034653073"><ele>709.5</ele><time>2026-05-02T16:38:31.999Z</time></trkpt><trkpt lat="42.35616953773464" lon="13.405538590481157"><ele>710.0</ele><time>2026-05-02T16:38:32.999Z</time></trkpt><trkpt lat="42.35607047357112" lon="13.40560471057626"><ele>710.5</ele><time>2026-05-02T16:38:34.999Z</time></trkpt><trkpt lat="42.35596380688982" lon="13.405635260128244"><ele>711.0</ele><time>2026-05-02T16:38:36.999Z</time></trkpt><trkpt lat="42.35589636232157" lon="13.405706577679913"><ele>711.0</ele><time>2026-05-02T16:38:37.999Z</time></trkpt><trkpt lat="42.35579947430833" lon="13.405667238587622"><ele>711.0</ele><time>2026-05-02T16:38:39.999Z</time></trkpt><trkpt lat="42.355785326798255" lon="13.405463952962455"><ele>711.0</ele><time>2026-05-02T16:38:40.999Z</time></trkpt><trkpt lat="42.35572317444014" lon="13.405415098088586"><ele>711.0</ele><time>2026-05-02T16:38:41.999Z</time></trkpt><trkpt lat="42.3557328252489" lon="13.405304513465275"><ele>711.0</ele><time>2026-05-02T16:38:42.999Z</time></trkpt><trkpt lat="42.355681342877176" lon="13.405148663797434"><ele>711.0</ele><time>2026-05-02T16:38:44.999Z</time></trkpt><trkpt lat="42.3556497883938" lon="13.40499754799702"><ele>711.0</ele><time>2026-05-02T16:38:46.999Z</time></trkpt><trkpt lat="42.35561666239166" lon="13.40485980469648"><ele>711.0</ele><time>2026-05-02T16:38:48.999Z</time></trkpt><trkpt lat="42.355586577591986" lon="13.404709430067184"><ele>711.0</ele><time>2026-05-02T16:38:50.999Z</time></trkpt><trkpt lat="42.35556425079142" lon="13.404617057318063"><ele>711.0</ele><time>2026-05-02T16:38:51.999Z</time></trkpt><trkpt lat="42.355523538794316" lon="13.404470859978584"><ele>713.0</ele><time>2026-05-02T16:38:53.999Z</time></trkpt><trkpt lat="42.35549864674042" lon="13.404340644192034"><ele>715.0</ele><time>2026-05-02T16:38:55.999Z</time></trkpt><trkpt lat="42.355467705501795" lon="13.404216408848734"><ele>717.0</ele><time>2026-05-02T16:38:57.999Z</time></trkpt><trkpt lat="42.35543564058231" lon="13.40407931382056"><ele>719.0</ele><time>2026-05-02T16:38:59.999Z</time></trkpt><trkpt lat="42.35541797757785" lon="13.403989855328325"><ele>721.0</ele><time>2026-05-02T16:39:00.999Z</time></trkpt><trkpt lat="42.355398624481346" lon="13.403902218831048"><ele>723.0</ele><time>2026-05-02T16:39:01.999Z</time></trkpt><trkpt lat="42.355375844111286" lon="13.40380209228838"><ele>723.0</ele><time>2026-05-02T16:39:02.999Z</time></trkpt><trkpt lat="42.35534739663619" lon="13.403679177580962"><ele>723.0</ele><time>2026-05-02T16:39:03.999Z</time></trkpt><trkpt lat="42.35532094333364" lon="13.403560753564575"><ele>723.0</ele><time>2026-05-02T16:39:04.999Z</time></trkpt><trkpt lat="42.35529077313118" lon="13.403454253347338"><ele>723.0</ele><time>2026-05-02T16:39:05.999Z</time></trkpt><trkpt lat="42.35526989277233" lon="13.40336116929117"><ele>723.0</ele><time>2026-05-02T16:39:06.999Z</time></trkpt><trkpt lat="42.3552160506054" lon="13.403226425955976"><ele>723.0</ele><time>2026-05-02T16:39:08.999Z</time></trkpt><trkpt lat="42.35515350489561" lon="13.403093125918252"><ele>723.0</ele><time>2026-05-02T16:39:10.999Z</time></trkpt><trkpt lat="42.35511303105119" lon="13.403015631309517"><ele>723.0</ele><time>2026-05-02T16:39:11.999Z</time></trkpt><trkpt lat="42.35506638363015" lon="13.40294141354122"><ele>723.0</ele><time>2026-05-02T16:39:12.999Z</time></trkpt><trkpt lat="42.35500744087058" lon="13.402867681796675"><ele>723.0</ele><time>2026-05-02T16:39:13.999Z</time></trkpt><trkpt lat="42.35496039270189" lon="13.40280150393643"><ele>723.0</ele><time>2026-05-02T16:39:14.999Z</time></trkpt><trkpt lat="42.354914451812064" lon="13.402742348474879"><ele>721.5999999999999</ele><time>2026-05-02T16:39:15.999Z</time></trkpt><trkpt lat="42.354824711109885" lon="13.402631307716211"><ele>720.1999999999999</ele><time>2026-05-02T16:39:17.999Z</time></trkpt><trkpt lat="42.35474107343161" lon="13.402538718393139"><ele>718.8</ele><time>2026-05-02T16:39:19.999Z</time></trkpt><trkpt lat="42.354666763249426" lon="13.402453510791366"><ele>717.4</ele><time>2026-05-02T16:39:21.999Z</time></trkpt><trkpt lat="42.3545779037084" lon="13.402353675097542"><ele>716.0</ele><time>2026-05-02T16:39:23.999Z</time></trkpt><trkpt lat="42.35452312201192" lon="13.402287263155866"><ele>718.0</ele><time>2026-05-02T16:39:24.998Z</time></trkpt><trkpt lat="42.35446751728635" lon="13.402221811412376"><ele>720.0</ele><time>2026-05-02T16:39:25.998Z</time></trkpt><trkpt lat="42.354388877260554" lon="13.402121266835355"><ele>722.0</ele><time>2026-05-02T16:39:27.998Z</time></trkpt><trkpt lat="42.35434986693099" lon="13.402041773745049"><ele>724.0</ele><time>2026-05-02T16:39:29.998Z</time></trkpt><trkpt lat="42.354317748242735" lon="13.401948933550427"><ele>726.0</ele><time>2026-05-02T16:39:32.999Z</time></trkpt><trkpt lat="42.35428979542094" lon="13.401841958306347"><ele>728.0</ele><time>2026-05-02T16:39:35.999Z</time></trkpt><trkpt lat="42.35429266116246" lon="13.401755717015858"><ele>728.0</ele><time>2026-05-02T16:39:38.999Z</time></trkpt><trkpt lat="42.35429845939741" lon="13.40166837408597"><ele>728.0</ele><time>2026-05-02T16:39:40.999Z</time></trkpt><trkpt lat="42.35433287689499" lon="13.401532029149392"><ele>728.0</ele><time>2026-05-02T16:39:42.999Z</time></trkpt><trkpt lat="42.354293259284205" lon="13.401416049812315"><ele>728.0</ele><time>2026-05-02T16:39:44.999Z</time></trkpt><trkpt lat="42.354231758119454" lon="13.401389785486412"><ele>728.0</ele><time>2026-05-02T16:39:46.999Z</time></trkpt><trkpt lat="42.354139104211306" lon="13.401361410627265"><ele>728.0</ele><time>2026-05-02T16:39:49.999Z</time></trkpt><trkpt lat="42.3540232988763" lon="13.401301852685652"><ele>728.5999999999999</ele><time>2026-05-02T16:39:51.999Z</time></trkpt><trkpt lat="42.353928155311536" lon="13.40123768805223"><ele>729.1999999999999</ele><time>2026-05-02T16:39:53.999Z</time></trkpt><trkpt lat="42.353846251795105" lon="13.401196868264435"><ele>729.8</ele><time>2026-05-02T16:39:55.999Z</time></trkpt><trkpt lat="42.353750292986994" lon="13.401233464315991"><ele>730.4</ele><time>2026-05-02T16:39:57.999Z</time></trkpt><trkpt lat="42.35373304343566" lon="13.401333530658647"><ele>731.0</ele><time>2026-05-02T16:39:59.999Z</time></trkpt><trkpt lat="42.35377935604322" lon="13.401499979546784"><ele>731.5</ele><time>2026-05-02T16:40:01.999Z</time></trkpt><trkpt lat="42.35379807665551" lon="13.401598064475706"><ele>732.0</ele><time>2026-05-02T16:40:03.999Z</time></trkpt><trkpt lat="42.35373641461968" lon="13.401709388714067"><ele>732.5</ele><time>2026-05-02T16:40:06.999Z</time></trkpt><trkpt lat="42.353733601844326" lon="13.40185408942978"><ele>733.0</ele><time>2026-05-02T16:40:08.999Z</time></trkpt><trkpt lat="42.35373041281101" lon="13.401963300068704"><ele>733.5</ele><time>2026-05-02T16:40:10.999Z</time></trkpt><trkpt lat="42.35373446829593" lon="13.402070682714594"><ele>734.0</ele><time>2026-05-02T16:40:13.999Z</time></trkpt><trkpt lat="42.353730896119146" lon="13.402168160350584"><ele>734.1666666666666</ele><time>2026-05-02T16:40:16.999Z</time></trkpt><trkpt lat="42.35374736338955" lon="13.402277491725627"><ele>734.3333333333333</ele><time>2026-05-02T16:40:20.999Z</time></trkpt><trkpt lat="42.35373708951758" lon="13.402411990667018"><ele>734.5</ele><time>2026-05-02T16:40:23.999Z</time></trkpt><trkpt lat="42.35374802042317" lon="13.402498456784093"><ele>734.6666666666666</ele><time>2026-05-02T16:40:25.999Z</time></trkpt><trkpt lat="42.353773388663136" lon="13.402602945363595"><ele>734.8333333333334</ele><time>2026-05-02T16:40:27.999Z</time></trkpt><trkpt lat="42.35383908405033" lon="13.402546896718112"><ele>735.0</ele><time>2026-05-02T16:40:33.999Z</time></trkpt><trkpt lat="42.353778811103325" lon="13.402491904203286"><ele>735.0</ele><time>2026-05-02T16:41:47.999Z</time></trkpt><trkpt lat="42.35371077725548" lon="13.40249622017851"><ele>735.0</ele><time>2026-05-02T16:41:52.999Z</time></trkpt><trkpt lat="42.35363388179104" lon="13.40251095194233"><ele>735.0</ele><time>2026-05-02T16:42:24.999Z</time></trkpt><trkpt lat="42.35370394832646" lon="13.402534237169268"><ele>735.0</ele><time>2026-05-02T16:43:14.999Z</time></trkpt><trkpt lat="42.35376758973376" lon="13.40251410978622"><ele>735.0</ele><time>2026-05-02T16:43:18.999Z</time></trkpt><trkpt lat="42.35383383471518" lon="13.402538155287681"><ele>735.0</ele><time>2026-05-02T16:43:27.999Z</time></trkpt><trkpt lat="42.35388075801837" lon="13.40247282097937"><ele>735.0</ele><time>2026-05-02T16:43:33.999Z</time></trkpt><trkpt lat="42.353927637098565" lon="13.402404290244077"><ele>731.0</ele><time>2026-05-02T16:44:13Z</time></trkpt><trkpt lat="42.3538744255968" lon="13.402451444356062"><ele>731.0</ele><time>2026-05-02T16:51:45.001Z</time></trkpt><trkpt lat="42.353940517495595" lon="13.40245847136494"><ele>731.0</ele><time>2026-05-02T16:54:20.001Z</time></trkpt><trkpt lat="42.35389254484644" lon="13.402371371118909"><ele>731.0</ele><time>2026-05-02T16:55:34Z</time></trkpt></trkseg></trk></gpx>